     2.11           OBSERVATION DATA    G (GPS)             RINEX VERSION / TYPE
teqc 2010Oct21 OPUS Account 20111025 18:19:24UTC            PGM / RUN BY / DATE
K 1521                                                      MARKER NAME
1123                                                        MARKER NUMBER
CSMIDDLETON NGS                                             OBSERVER / AGENCY
4624K01647 TRIMBLE NETR5 4.41                               REC # / TYPE / VERS
12694052 TRM41249.00 NONE                                   ANT # / TYPE
  -740019.0992 -5463802.2989  3195714.5259                  APPROX POSITION XYZ
        2.0040        0.0000        0.0000                  ANTENNA: DELTA H/E/N
     1     1                                                WAVELENGTH FACT L1/2
     5    L1    L2    C1    P1    P2                        # / TYPES OF OBSERV
    15                                                      LEAP SECONDS
  2011     7    26     0     0    0.0000000     GPS         TIME OF FIRST OBS
                                                            END OF HEADER
 11  7 26  0  0  0.0000000  0  8G04G20G27G09G02G28G17G10
 105028760.73848  81840758.07646  19986292.8284                   19986300.6804
 126652874.15846  98690585.71643  24101239.4224                   24101248.4964
 118030756.44647  91972126.30844  22460518.7114                   22460527.9734
 117072723.42547  91225588.24044  22278204.8984                   22278213.5864
 118857792.28847  92616531.00445  22617859.2504                   22617867.2664
 113868549.40048  88728713.45345  21668437.1644                   21668445.4654
 111770113.889 8  87093663.152 7  21269108.438
 125551937.86846  97832734.00143  23891722.2194                   23891734.2544
 11  7 26  0  0 30.0000000  0  8G04G20G27G09G02G28G17G10
 105003579.95148  81821136.69646  19981501.3444                   19981509.2934
 126678412.06846  98710485.37043  24106099.4454                   24106108.6564
 118012150.47647  91957628.12644  22456978.5314                   22456986.4384
 117034600.18547  91195881.82044  22270949.8524                   22270959.5864
 118772914.24147  92550392.37845  22601707.5634                   22601714.9694
 113913222.92948  88763523.95145  21676938.8524                   21676946.2544
 111799589.817 8  87116631.404 7  21274717.570
 125457605.60246  97759228.65043  23873770.2424                   23873783.2304
 11  7 26  0  1  0.0000000  0  8G04G20G27G09G02G28G17G10
 104978973.67348  81801962.99546  19976818.6254                   19976826.9494
 126704453.83446  98730777.61843  24111055.2194                   24111064.7424
 117994035.39547  91943512.48744  22453530.6804                   22453539.9774
 116997097.71847  91166659.11244  22263812.8914                   22263823.7464
 118688300.94547  92484460.04145  22585606.0474                   22585613.3984
 113958265.69148  88798622.13745  21685510.1334                   21685517.5824
 111829170.923 8  87139681.606 7  21280346.672
 125363262.26546  97685714.66943  23855817.2584                   23855830.1254
 11  7 26  0  1 30.0000000  0  8G04G20G27G09G02G28G17G10
 104954941.36848  81783236.54346  19972245.3594                   19972252.7624
 126730998.81146  98751462.03243  24116106.7664                   24116116.1094
 117976411.02747  91929779.21144  22450177.2814                   22450186.3444
 116960216.80747  91137920.77544  22256794.9534                   22256804.3554
 118603953.22547  92418734.64645  22569555.6174                   22569562.4774
 114003676.97148  88834007.51545  21694151.2034                   21694158.8954
 111858855.612 8  87162812.525 7  21285995.688
 125268910.48446  97612194.10343  23837862.8444                   23837875.4964
 11  7 26  0  2  0.0000000  0  8G04G20G27G09G02G28G17G10
 104931483.14748  81764957.42746  19967782.0704                   19967789.6844
 126758046.68546  98772538.33243  24121252.9384                   24121263.0234
 117959277.55847  91916428.46144  22446916.5784                   22446925.3524
 116923958.41947  91109667.47744  22249896.1024                   22249904.6994
 118519872.45647  92353217.27745  22553554.2664                   22553562.6294
 114049457.94748  88869680.94845  21702863.3834                   21702871.1054
 111888643.699 8  87186023.994 7  21291664.055
 125174553.40346  97538669.37743  23819906.9694                   23819920.3674
 11  7 26  0  2 30.0000000  0  8G04G20G27G09G02G28G17G10
 104908599.23448  81747125.82346  19963426.8284                   19963434.8284
 126785597.13045  98794006.16943  24126496.2504                   24126505.4964
 117942635.47147  91903460.60344  22443750.0784                   22443758.7544
 116888323.64647  91081900.14544  22243114.6414                   22243123.5984
 118436060.43947  92287909.33945  22537605.6484                   22537613.6214
 114095607.58848  88905641.65445  21711645.6724                   21711653.1724
 111918534.712 8  87209315.711 7  21297352.391
 125080193.83146  97465142.71543  23801949.5784                   23801963.8524
 11  7 26  0  3  0.0000000  0  8G04G20G27G09G02G28G17G10
 104886290.03648  81729742.04346  19959181.6174                   19959189.6724
 126813650.12645  98815865.59443  24131834.1484                   24131844.3914
 117926485.06947  91890875.87944  22440676.4924                   22440684.5274
 116853313.81947  91054619.76844  22236452.6254                   22236461.4924
 118352518.68647  92222811.98945  22521708.3754                   22521715.1724
 114142126.62348  88941890.18845  21720497.3754                   21720505.4654
 111948528.507 8  87232687.502 7  21303059.938
 124985835.07746  97391616.73143  23783994.0394                   23784006.7344
 11  7 26  0  3 30.0000000  0  8G04G20G27G09G02G28G17G10
 104864554.80548  81712805.51846  19955045.3674                   19955053.9384
 126842205.03045  98838116.19443  24137268.1094                   24137277.6294
 117910826.09247  91878674.08145  22437696.5234                   22437705.6644
 116818929.29947  91027826.68044  22229909.4384                   22229918.5554
 118269248.27347  92157926.08445  22505861.9304                   22505869.5274
 114189014.99948  88978426.53645  21729420.3444                   21729427.9774
 111978623.943 8  87256138.496 7  21308786.492
 124891479.99646  97318093.47543  23766039.9454                   23766051.5554
 11  7 26  0  4  0.0000000  0  8G04G20G27G09G02G28G17G10
 104843393.98348  81696316.57446  19951018.8284                   19951026.8054
 126871261.70146  98860757.75243  24142797.9384                   24142806.4494
 117895658.95847  91866855.49745  22434811.0784                   22434819.8674
 116785171.32847  91001521.82244  22223485.4304                   22223494.1024
 118186251.04647  92093253.04445  22490068.1334                   22490075.3364
 114236273.25848  89015251.11045  21738413.0314                   21738420.9104
 112008820.962 7  87279668.649 7  21314532.836
 124797131.52746  97244575.40843  23748085.8054                   23748097.6564
 11  7 26  0  4 30.0000000  0  8G04G20G27G09G02G28G17G10
 104822807.79948  81680275.39846  19947101.2034                   19947109.3364
 126900819.49346  98883789.85342  24148422.2194                   24148430.7304
 117880983.92147  91855420.39845  22432017.9454                   22432026.7704
 116752041.00847  90975706.00144  22217180.2814                   22217189.3014
 118103528.49047  92028794.05745  22474326.4064                   22474333.9384
 114283901.54648  89052364.00345  21747476.3834                   21747484.0594
 112039119.257 7  87303277.712 7  21320298.258
 124702792.89146  97171065.03343  23730133.2274                   23730145.0904
 11  7 26  0  5  0.0000000  0  8G04G20G27G09G02G28G17G10
 104802796.13848  81664681.90846  19943292.6644                   19943300.9844
 126930878.23845  98907212.19342  24154141.5234                   24154150.9304
 117866801.21947  91844368.93545  22429319.0394                   22429328.3794
 116719539.47047  90950380.13144  22210995.5634                   22211004.6644
 118021081.89947  91964550.06445  22458637.2814                   22458644.9344
 114331900.49347  89089765.72545  21756610.8984                   21756618.7194
 112069518.206 7  87326965.197 7  21326082.828
 124608467.27147  97097564.77043  23712183.2344                   23712196.1054
 11  7 26  0  5 30.0000000  0  8G04G20G27G09G02G28G17G10
 104783358.84748  81649535.98446  19939594.2504                   19939602.5434
 126961437.36656  98931024.50552  24159957.0704                   24159965.9024
 117853110.89147  91833701.11145  22426713.8674                   22426722.8554
 116687667.22046  90925544.64243  22204930.6954                   22204939.5434
 117938912.62347  91900522.19445  22443001.1174                   22443009.2974
 114380269.65048  89127455.94445  21765815.5394                   21765823.2774
 112100017.563 8  87350730.920 7  21331887.531
 124514157.40547  97024076.71043  23694236.9454                   23694248.2074
 11  7 26  0  6  0.0000000  0  8G04G20G27G09G02G28G17G10
 104764496.36948  81634837.97146  19936004.6644                   19936012.6994
 126992496.77846  98955226.68143  24165867.7584                   24165876.4574
 117839913.35047  91823417.31445  22424201.9774                   22424211.7194
 116656425.65246  90901200.58743  22198985.8204                   22198994.0124
 117857022.84447  91836712.06645  22427417.7814                   22427425.2344
 114429009.77647  89165435.20545  21775090.1484                   21775097.8244
 112130616.912 8  87374574.575 7  21337709.672
 124419867.06847  96950603.94243  23676293.8134                   23676304.7734
 11  7 26  0  6 30.0000000  0  8G04G20G27G09G02G28G17G10
 104746207.70048  81620587.09246  19932524.8204                   19932533.0744
 127024055.77046  98979818.09143  24171873.3054                   24171882.5164
 117827208.26747  91813517.21245  22421784.8444                   22421793.6134
 116625814.90546  90877348.06643  22193160.4614                   22193169.3404
 117775412.97547  91773120.06945  22411887.9064                   22411895.1804
 114478120.31248  89203703.12645  21784435.9534                   21784442.6024
 112161315.283 8  87398495.375 7  21343552.000
 124325598.66346  96877148.26743  23658354.6724                   23658366.4964
 11  7 26  0  7  0.0000000  0  8G04G20G27G09G02G28G17G10
 104728493.41948  81606783.77746  19929154.0084                   19929161.5594
 127056113.83445  99004798.41342  24177973.3524                   24177982.6724
 117814995.97647  91804001.12445  22419460.8524                   22419469.4614
 116595836.37546  90853988.19243  22187456.7584                   22187464.8134
 117694085.04847  91709747.74345  22396411.4064                   22396418.5394
 114527601.88048  89242260.16045  21793851.2974                   21793859.9494
 112192112.869 8  87422493.460 7  21349412.242
 124231355.51146  96803712.24743  23640420.7974                   23640432.9844
 11  7 26  0  7 30.0000000  0  8G04G20G27G09G02G28G17G10
 104711353.57348  81593428.07546  19925892.2664                   19925899.5354
 127088670.74745  99030167.43042  24184168.7584                   24184177.8954
 117803276.79248  91794869.26145  22417230.9844                   22417240.0434
 116566490.92546  90831121.64043  22181871.3594                   22181880.2464
 117613040.78647  91646596.45345  22380989.2344                   22380996.7504
 114577454.66748  89281106.45145  21803338.2034                   21803346.0394
 112223009.510 8  87446568.769 7  21355291.352
 124137141.12947  96730298.67743  23622491.7504                   23622504.4184
 11  7 26  0  8  0.0000000  0  8G04G20G27G09G02G28G17G10
 104694787.58848  81580519.53946  19922739.4534                   19922747.4384
 127121725.85945  99055924.61342  24190458.3834                   24190467.8874
 117792050.26747  91786121.29545  22415094.6024                   22415103.4384
 116537778.89147  90808748.66143  22176408.5394                   22176417.2424
 117532280.96547  91583666.81845  22365621.6724                   22365628.4654
 114627678.38248  89320241.77345  21812895.3524                   21812903.6914
 112254004.348 8  87470720.567 7  21361189.852
 124042957.99946  96656909.39943  23604570.0394                   23604581.3284
 11  7 26  0  8 30.0000000  0  8G04G20G27G09G02G28G17G10
 104678795.31748  81568058.05446  19919696.5314                   19919704.3054
 127155278.35246  99082069.41042  24196844.7034                   24196853.2584
 117781316.54247  91777757.32645  22413051.5474                   22413060.2734
 116509701.17346  90786869.91943  22171065.0084                   22171073.3284
 117451807.18647  91520960.04345  22350307.6414                   22350315.0744
 114678273.01648  89359666.12545  21822523.5084                   21822530.5944
 112285097.066 8  87494948.625 7  21367106.758
 123948809.35146  96583546.99743  23586653.6644                   23586664.8874
 11  7 26  0  9  0.0000000  0  8G04G20G27G09G02G28G17G10
 104663376.37148  81556043.31446  19916762.4384                   19916770.4574
 127189327.79046  99108601.44543  24203323.5474                   24203332.1294
 117771075.59747  91769777.32645  22411103.3444                   22411112.2074
 116482258.13146  90765485.73743  22165842.2274                   22165851.7934
 117371620.60447  91458477.10945  22335048.5394                   22335055.6214
 114729238.69048  89399379.59445  21832221.8444                   21832229.5944
 112316287.068 8  87519252.536 7  21373041.906
 123854698.36246  96510213.99443  23568744.8284                   23568756.3954
 11  7 26  0  9 30.0000000  0  8G04G20G27G09G02G28G17G10
 104648530.81548  81544475.37146  19913937.0234                   19913945.0864
 127223873.55946  99135520.26943  24209897.8674                   24209906.4574
 117761327.54247  91762181.43745  22409248.1644                   22409257.2774
 116455450.81046  90744596.96543  22160741.3834                   22160749.1094
 117291722.93447  91396219.25245  22319844.2974                   22319851.1524
 114780575.65348  89439382.37545  21841990.9064                   21841998.1564
 112347574.300 8  87543632.168 7  21378995.773
 123760628.05646  96436912.67643  23550843.8674                   23550855.4224
 11  7 26  0 10  0.0000000  0  8G04G20G27G09G02G28G17G10
 104634258.06848  81533353.76746  19911221.0164                   19911228.7934
 127258915.07646  99162825.31443  24216566.2194                   24216574.1024
 117752071.93847  91754969.24745  22407486.3674                   22407495.7584
 116429279.61046  90724203.85843  22155761.6094                   22155768.6254
 117212115.19748  91334187.35245  22304695.2424                   22304702.6564
 114832283.64647  89479674.28445  21851830.2504                   21851838.2704
 112378958.021 8  87568086.988 7  21384967.953
 123666601.74946  96363645.62743  23532950.3284                   23532962.5744
 11  7 26  0 10 30.0000000  0  9G12G04G20G27G09G02G28G17G10
                                  25018105.555
 104620558.06648  81522678.45546  19908614.2424                   19908621.8914
 127294451.65946  99190516.16143  24223328.7344                   24223337.7274
 117743309.14647  91748141.07445  22405818.9774                   22405828.1054
 116403745.31146  90704306.99343  22150902.0084                   22150909.7664
 117132799.12847  91272382.72145  22289602.1564                   22289609.2504
 114884363.04248  89520255.59345  21861740.7034                   21861749.0434
 112410438.349 8  87592617.092 7  21390958.398
 123572622.50446  96290415.27143  23515066.8914                   23515077.7154
 11  7 26  0 11  0.0000000  0  8G04G20G27G09G02G28G17G10
 104607430.55348  81512449.24046  19906116.3754                   19906124.1844
 127330482.73246  99218592.23243  24230184.4304                   24230193.9454
 117735039.16247  91741696.93145  22404245.7664                   22404254.2234
 116378848.35946  90684906.73842  22146163.8204                   22146172.3594
 117053775.97247  91210806.32245  22274564.6094                   22274571.4494
 114936813.62148  89561126.13145  21871722.0084                   21871729.5554
 112442014.626 8  87617221.986 7  21396967.078
 123478693.44546  96217224.01144  23497192.5394                   23497203.7504
 11  7 26  0 11 30.0000000  0  8G04G20G27G09G02G28G17G10
 104594874.80848  81502665.55846  19903726.9774                   19903734.7934
 127367007.25646  99247052.90243  24237135.2344                   24237143.5864
 117727261.61347  91735636.49445  22402765.5864                   22402774.4884
 116354589.18346  90666003.57842  22141548.3984                   22141556.0784
 116975046.67347  91149458.91145  22259582.2424                   22259589.2464
 114989635.23747  89602285.77745  21881773.7584                   21881781.2704
 112473686.490 8  87641901.344 7  21402994.320
 123384817.68846  96144074.24643  23479328.5234                   23479339.7934
 11  7 26  0 12  0.0000000  0  8G04G20G27G09G02G28G17G10
 104582890.96648  81493327.50846  19901446.6334                   19901454.2074
 127404024.90947  99275897.80843  24244179.4384                   24244187.3284
 117719976.33047  91729959.64745  22401379.2664                   22401388.7464
 116330968.52346  90647597.79642  22137052.6884                   22137061.9104
 116896612.98247  91088341.83745  22244657.0234                   22244664.0824
 115042827.89047  89643734.55045  21891895.7584                   21891903.2774
 112505453.516 8  87666654.841 7  21409039.008
 123290998.53146  96070968.61643  23461475.2034                   23461487.0784
 11  7 26  0 12 30.0000000  0  8G04G20G27G09G02G28G17G10
 104571478.47248  81484434.65446  19899274.5704                   19899282.3834
 127441535.25746  99305126.70443  24251317.2194                   24251326.3284
 117713183.33247  91724666.40345  22400087.1484                   22400095.9104
 116307986.76046  90629689.96643  22132680.1954                   22132688.9104
 116818476.20648  91027456.11345  22229787.8834                   22229795.2274
 115096391.79247  89685472.58245  21902088.3914                   21902096.6724
 112537315.813 8  87691482.577 7  21415101.953
 123197239.12647  95997909.50743  23443633.2194                   23443644.3634
 11  7 26  0 13  0.0000000  0  8G04G20G27G09G02G28G17G10
 104560637.21948  81475986.93646  19897211.5864                   19897219.4924
 127479537.29146  99334738.68143  24258548.4144                   24258557.6644
 117706882.42947  91719756.59745  22398887.5704                   22398896.6054
 116285644.72246  90612280.60042  22128428.6334                   22128437.1994
 116740637.75047  90966802.82945  22214976.0004                   22214983.3364
 115150326.96847  89727499.93345  21912352.4614                   21912360.5744
 112569272.983 8  87716384.222 7  21421183.922
 123103543.08246  95924899.75643  23425803.7344                   23425814.3484
 11  7 26  0 13 30.0000000  0  8G04G20G27G09G02G28G17G10
 104550366.79048  81467984.01046  19895256.8444                   19895264.9264
 127518030.23846  99364733.15443  24265873.6804                   24265882.1334
 117701073.44647  91715230.13745  22397781.9144                   22397791.0434
 116263942.96846  90595370.11843  22124299.1804                   22124307.6414
 116663098.70447  90906382.87445  22200220.8674                   22200227.3874
 115204633.47147  89769816.60545  21922686.5944                   21922694.4884
 112601324.817 8  87741359.650 7  21427283.289
 123009913.11046  95851941.50243  23407986.0314                   23407997.3714
 11  7 26  0 14  0.0000000  0  8G04G20G27G09G02G28G17G10
 104540666.26048  81460425.17946  19893411.0004                   19893419.0314
 127557013.49346  99395109.66143  24273292.4224                   24273300.5004
 117695755.81247  91711086.52845  22396770.5164                   22396779.2234
 116242881.12645  90578958.18842  22120291.1414                   22120301.4144
 116585860.14847  90846197.07945  22185522.1724                   22185528.9574
 115259310.64647  89812422.13345  21933091.1564                   21933099.3984
 112633470.728 8  87766408.403 7  21433400.313
 122916352.24946  95779037.05843  23390182.1174                   23390193.2464
 11  7 26  0 14 30.0000000  0  8G04G20G27G09G02G28G17G10
 104531535.30448  81453310.17646  19891673.8674                   19891681.3914
 127596485.68746  99425867.22343  24280802.9064                   24280812.3714
 117690929.40547  91707325.71645  22395852.2194                   22395861.0744
 116222460.068 5                  22116407.070
 116508923.60248  90786246.60745  22170881.3054                   22170888.3594
 115314358.61047  89855316.57445  21943566.9224                   21943574.8874
 112665710.447 8  87791530.235 7  21439535.563
 122822863.75746  95706189.06543  23372390.7114                   23372402.6484
 11  7 26  0 15  0.0000000  0  8G04G20G27G09G02G28G17G10
 104522973.57548  81446638.71046  19890044.4224                   19890051.9884
 127636446.64546  99457005.61443  24288406.8984                   24288417.2664
 117686594.34947  91703947.77845  22395026.7504                   22395035.4494
 116202680.08215                  22112642.586
 116432290.70948  90726532.70545  22156299.1174                   22156306.1604
 115369777.60447  89898500.13445  21954112.9454                   21954120.8914
 112698044.076 8  87816725.230 7  21445688.016
 122729451.13446  95633400.20443  23354615.0004                   23354626.3484
 11  7 26  0 15 30.0000000  0  7G04G20G27G02G28G17G10
 104514980.11248  81440410.05246  19888523.2424                   19888531.2154
 127676894.89746  99488523.70243  24296104.1414                   24296113.2114
 117682749.65347  91700951.91945  22394295.7194                   22394303.9804
 116355961.90648  90667055.79245  22141774.3054                   22141781.3634
 115425566.29447  89941971.77145  21964729.1024                   21964736.8204
 112730470.527 8  87841992.564 7  21451858.914
 122636116.76346  95560672.27443  23336853.9144                   23336865.3484
 11  7 26  0 16  0.0000000  0  7G04G20G27G02G28G17G10
 104507555.63148  81434624.76346  19887110.0234                   19887118.0164
 127717830.51846  99520421.55843  24303894.6724                   24303901.8404
 117679396.12847  91698338.80845  22393656.9304                   22393665.9264
 116279939.66847  90607817.74245  22127307.8674                   22127314.8054
 115481726.28847  89985732.75545  21975415.6644                   21975424.3954
 112762990.747 8  87867332.976 7  21458047.344
 122542865.16946  95488008.83044  23319108.3364                   23319121.1134
 11  7 26  0 16 30.0000000  0  8G04G20G27G09G02G28G17G10
 104500698.55948  81429281.60646  19885805.4774                   19885813.5434
 127759251.94746  99552698.00243  24311776.5944                   24311785.4104
 117676532.45247  91696107.36645  22393112.3674                   22393120.9574
                                  22102084.883
 116204224.21548  90548818.77045  22112899.3674                   22112905.9844
 115538256.63747  90029782.30445  21986173.8284                   21986181.1564
 112795603.772 8  87892745.709 7  21464253.031
 122449698.84046  95415411.86743  23301380.5084                   23301391.8794
 11  7 26  0 17  0.0000000  0  8G12G04G20G27G02G28G17G10
 130217540.43614                  24779610.055
 104494408.78748  81424380.50346  19884608.5784                   19884616.6024
 127801158.42246  99585352.42243  24319751.9694                   24319760.3754
 117674158.79547  91694257.76345  22392660.6254                   22392669.4694
 116128817.21447  90490060.15945  22098550.0314                   22098556.5594
 115595157.34747  90074120.48545  21997001.1644                   21997008.8714
 112828309.382 7  87918230.569 7  21470476.328
 122356621.23046  95342883.98543  23283667.7734                   23283678.7114
 11  7 26  0 17 30.0000000  0  9G12G04G20G27G09G02G28G17G10
 130120860.52515                  24761214.477
 104488685.62248  81419920.90646  19883519.4384                   19883527.1804
 127843549.48746  99618384.38243  24327818.5634                   24327827.7034
 117672275.02647  91692789.89945  22392302.6094                   22392310.7424
 116113365.00915                  22095653.281
 116053719.90948  90431542.85845  22084259.4924                   22084266.1294
 115652428.07847  90118747.00345  22007899.5474                   22007907.1414
 112861107.699 8  87943787.662 7  21476718.172
 122263635.59546  95270427.81444  23265973.0704                   23265983.9414
 11  7 26  0 18  0.0000000  0  8G04G20G27G09G02G28G17G10
 104483527.20748  81415901.37846  19882537.6724                   19882545.2464
 127886422.73946  99651792.10643  24335977.2034                   24335985.2814
 117670879.40147  91691702.39445  22392036.4304                   22392045.3524
 116097436.343 5                  22092620.852
 115978932.28448  90373266.83245  22070027.4384                   22070034.2624
 115710067.44447  90163660.73345  22018868.3284                   22018876.3324
 112893997.118 7  87969415.756 7  21482977.148
 122170743.87746  95198044.82944  23248295.7424                   23248307.5234
 11  7 26  0 18 30.0000000  0  8G04G20G27G09G02G28G17G10
 104478933.74148  81412322.05546  19881663.6414                   19881671.3914
 127929778.17046  99685575.51743  24344227.2894                   24344235.3754
 117669972.51947  91690995.75545  22391863.7814                   22391872.5744
 116082150.18315                  22089710.805
 115904456.33348  90315233.68545  22055855.2034                   22055862.0864
 115768076.26447  90208862.38045  22029906.8204                   22029914.4804
 112926978.493 8  87995115.538 7  21489252.742
 122077950.49846  95125738.43244  23230637.7664                   23230648.9384
 11  7 26  0 19  0.0000000  0  8G04G20G27G09G02G28G17G10
 104474904.63348  81409182.48946  19880897.0004                   19880905.0164
 127973614.65446  99719733.81143  24352568.8444                   24352577.8484
 117669553.98147  91690669.64245  22391784.1024                   22391793.1174
 116067506.649 4                  22086923.789
 115830293.63248  90257444.64545  22041742.1724                   22041749.3244
 115826454.62247  90254351.96845  22041015.9144                   22041024.7424
 112960051.737 8  88020886.854 7  21495546.984
 121985258.67846  95053511.17943  23212999.9454                   23213011.2194
 11  7 26  0 19 30.0000000  0  8G04G20G27G09G02G28G17G10
 104471439.25148  81406482.19646  19880237.8364                   19880245.6804
 128017931.10646  99754266.06643  24361001.7894                   24361011.3244
 117669623.17747  91690723.54645  22391797.0634                   22391806.2154
 116053505.93715                  22084262.211
 115756445.04547  90199900.38045  22027689.2114                   22027696.6054
 115885201.91247  90300129.02545  22052194.7504                   22052203.1294
 112993216.217 8  88046729.285 7  21501858.148
 121892671.51546  94981365.42543  23195380.6724                   23195391.6174
 11  7 26  0 20  0.0000000  0  9G12G04G20G27G09G02G28G17G10
 129636996.01215 101016062.98213  24669136.469
 104468537.31948  81404220.94746  19879685.2814                   19879693.1994
 128062727.54046  99789172.39943  24369526.1094                   24369535.2934
 117670180.28547  91691157.68445  22391903.4534                   22391912.3014
 116040148.466 6                  22081719.594
 115682912.29648  90142602.22245  22013696.7814                   22013703.7934
 115944318.38447  90346193.75745  22063445.1724                   22063452.8674
 113026472.377 7  88072643.151 7  21508186.344
 121800192.84247  94909304.26644  23177782.6024                   23177793.0204
 11  7 26  0 20 30.0000000  0  9G12G04G20G27G09G02G28G17G10
 129540143.913 5                  24650706.078
 104466197.71648  81402397.87946  19879240.3444                   19879248.2304
 128108002.06145  99824451.20343  24378140.6954                   24378150.8444
 117671224.32147  91691971.20245  22392102.4144                   22392111.0434
 116027433.86146  90411077.95552  22079300.6564                   22079309.3834
 115609696.16948  90085550.74145  21999764.3594                   21999771.1724
 116003803.36547  90392545.64945  22074764.0084                   22074772.4774
 113059819.542 7  88098627.919 7  21514531.758
 121707825.41347  94837329.75144  23160206.4064                   23160216.0204
 11  7 26  0 21  0.0000000  0  9G12G04G20G27G09G02G28G17G10
 129443268.619 6                  24632271.219
 104464419.23248  81401012.04446  19878901.7584                   19878909.5984
 128153753.40546  99860101.52743  24386848.2274                   24386857.6414
 117672754.39647  91693163.46445  22392393.0944                   22392401.6804
 116015361.53946  90401670.96343  22077003.0004                   22077012.6374
 115536797.38948  90028746.55945  21985892.1254                   21985898.7704
 116063656.28147  90439184.22445  22086153.8364                   22086162.2584
 113093257.597 7  88124683.553 7  21520894.891
 121615572.30746  94765444.34543  23142649.8984                   23142660.4654
 11  7 26  0 21 30.0000000  0  9G12G04G20G27G09G02G28G17G10
 129346371.960 5 100789578.96814  24613831.273
 104463201.12148  81400062.85746  19878670.1094                   19878677.5434
 128199980.18846  99896122.41242  24395645.3834                   24395654.1724
 117674769.92347  91694734.02345  22392777.1334                   22392785.0554
 116003931.61546  90392764.60143  22074828.1884                   22074836.8874
 115464217.33847  89972190.70345  21972080.2664                   21972087.8054
 116123876.85747  90486109.29045  22097613.5164                   22097621.9264
 113126785.949 7  88150809.530 7  21527275.469
 121523436.70946  94693650.46344  23125118.2194                   23125127.2734
 11  7 26  0 22  0.0000000  0  9G12G04G20G27G09G02G28G17G10
 129249455.499 5 100714059.733 4  24595390.531
 104462543.23648  81399550.20846  19878544.8364                   19878552.7074
 128246682.29646  99932513.65142  24404532.2664                   24404540.3284
 117677271.01147  91696682.88645  22393252.7504                   22393261.8244
 115993144.35546  90384359.00043  22072775.3984                   22072784.2344
 115391957.19548  89915884.17445  21958329.8204                   21958336.3634
 116184465.12547  90533320.85645  22109142.9924                   22109151.7934
 113160405.077 8  88177006.227 7  21533672.570
 121431422.16346  94621950.95143  23107607.3984                   23107617.4804
 11  7 26  0 22 30.0000000  0  9G12G04G20G27G09G02G28G17G10
 129152520.059 5 100638525.633 5  24576942.641
 104462443.38448  81399472.39646  19878526.1024                   19878533.7704
 128293857.35346  99969273.47243  24413507.7734                   24413517.8594
 117680255.87547  91699008.73245  22393820.8444                   22393829.8524
 115982998.94846  90376453.48743  22070845.1094                   22070854.6374
 115320017.18948  89859827.10645  21944639.9144                   21944646.7734
 116245419.50247  90580817.71545  22120742.5164                   22120750.5004
 113194113.608 7  88203272.602 7  21540086.922
 121339531.09746  94550347.66843  23090121.3914                   23090131.8524
 11  7 26  0 23  0.0000000  0  9G12G04G20G27G09G02G28G17G10
 129055569.005 5 100562979.248 5  24558493.805
 104462902.04548  81399829.79146  19878613.0634                   19878620.9614
 128341505.12446 100006401.60442  24422575.5234                   24422584.4924
 117683725.02847  91701711.94545  22394480.8134                   22394489.6024
 115973496.09346  90369048.73243  22069036.2894                   22069045.6954
 115248399.65748  89804021.30445  21931011.4224                   21931018.7814
 116306741.28547  90628600.84445  22132411.6174                   22132419.6684
 113227912.735 8  88229609.563 7  21546519.250
 121247768.08346  94478844.14143  23072657.8984                   23072669.0474
 11  7 26  0 23 30.0000000  0  9G12G04G20G27G09G02G28G17G10
 128958603.311 5 100487421.529 4  24540042.063
 104463918.46648  81400621.80146  19878806.4064                   19878813.8484
 128389624.53245 100043897.24842  24431733.3134                   24431742.0634
 117687677.84347  91704792.04045  22395233.3444                   22395242.6994
 115964635.78946  90362144.61343  22067351.7274                   22067359.5704
 115177105.59048  89748467.51845  21917444.5084                   21917451.5704
 116368429.76547  90676669.71845  22144150.6094                   22144158.9064
 113261802.190 7  88256016.937 7  21552968.258
 121156136.03046  94407442.64243  23055221.7814                   23055231.5744
 11  7 26  0 24  0.0000000  0  9G12G04G20G27G09G02G28G17G10
 128861624.220 5 100411853.527 5  24521587.133
 104465491.09948  81401847.23546  19879105.5234                   19879113.4224
 128438214.52846 100081759.49843  24440979.2814                   24440988.0164
 117692113.40248  91708248.27845  22396077.3054                   22396085.9924
 115956417.14146  90355740.46543  22065786.1174                   22065796.0434
 115106135.50148  89693166.18845  21903939.2274                   21903946.5234
 116430484.09447  90725023.65945  22155959.6724                   22155966.9304
 113295781.488 7  88282494.294 7  21559433.938
 121064637.88646  94336145.47443  23037810.1334                   23037820.4614
 11  7 26  0 24 30.0000000  0  9G12G04G20G27G09G02G28G17G10
 128764633.152 5 100336276.019 5  24503131.836
 104467618.67248  81403505.08146  19879510.5704                   19879518.2704
 128487272.87746 100119986.78442  24450313.4454                   24450324.0704
 117697030.35147  91712079.65645  22397012.9534                   22397021.7304
 115948839.34046  90349835.77043  22064344.6174                   22064354.1334
 115035490.28748  89638118.04045  21890496.2034                   21890502.7074
 116492903.55647  90773662.12044  22167837.3524                   22167846.0514
 113329850.062 7  88309041.215 7  21565917.258
 120973276.65846  94264955.00744  23020424.8204                   23020435.2894
 11  7 26  0 25  0.0000000  0  9G12G04G20G27G09G02G28G17G10
 128667631.778 5 100260690.585 5  24484672.984
 104470299.84648  81405594.30846  19880020.6884                   19880028.9844
                                  24459738.0704                   24459748.5124
 117702428.09947  91716285.65845  22398039.6414                   22398048.8484
 115941902.17046  90344430.20343  22063024.4614                   22063033.4144
 114965170.79047  89583323.69545  21877114.4614                   21877121.0474
 116555687.53347  90822584.65445  22179785.1414                   22179792.7034
 113364007.376 8  88335657.311 7  21572417.023
 120882055.81247  94193873.90644  23003066.1254                   23003076.5594
 11  7 26  0 25 30.0000000  0  9G12G04G20G27G09G02G28G17G10
 128570623.216 5 100185099.676 5  24466211.859
 104473535.31548  81408115.46146  19880636.5314                   19880644.8714
 128586791.01146 100197533.29843  24469252.9224                   24469261.5394
 117708306.98547  91720866.55845  22399158.8754                   22399168.0164
 115935606.49046  90339524.47643  22061826.2814                   22061836.1644
 114895179.03148  89528784.71445  21863795.5554                   21863802.2304
 116618836.62047  90871791.63845  22191801.8134                   22191810.0234
 113398254.836 7  88362343.625 7  21578934.203
 120790979.48747  94122905.44244  22985734.9384                   22985745.6374
 11  7 26  0 26  0.0000000  0  9G12G04G20G27G09G02G28G17G10
 128473607.947 5 100109503.436 5  24447749.203
 104477323.09948  81411067.00146  19881357.1884                   19881365.4454
 128637248.88846 100236851.09542  24478854.3054                   24478863.9454
 117714665.93947  91725821.56445  22400368.7194                   22400378.2304
 115929951.72446  90335118.13043  22060750.4694                   22060759.4384
 114825515.76548  89474501.69445  21850539.1094                   21850546.1094
 116682350.14247  90921282.61445  22203887.8364                   22203896.9414
 113432591.646 7  88389099.566 7  21585468.602
 120700050.41247  94052051.73844  22968431.8134                   22968442.4184
 11  7 26  0 26 30.0000000  0  9G12G04G20G27G09G02G28G17G10
 128376587.695 5 100033903.387 5  24429287.305
 104481662.46248  81414448.34046  19882183.3754                   19882191.1024
 128688170.94346 100276530.54142  24488544.5084                   24488553.7704
 117721503.91647  91731149.83945  22401670.1724                   22401679.2154
 115924937.16546  90331210.74343  22059794.7504                   22059803.7274
 114756181.54048  89420475.06645  21837345.2114                   21837351.9574
 116746227.41347  90971057.03645  22216042.8364                   22216052.6094
 113467017.631 7  88415925.005 7  21592018.977
 120609271.74347  93981315.21644  22951157.8134                   22951167.7274
 11  7 26  0 27  0.0000000  0  9G12G04G20G27G09G02G28G17G10
 128279564.885 6  99958301.321 5  24410824.266
 104486552.56248  81418258.81946  19883113.5314                   19883121.4924
 128739556.02046 100316570.93242  24498321.8364                   24498331.8524
 117728820.49047  91736851.05745  22403062.3674                   22403071.9494
 115920562.77146  90327802.04943  22058963.1564                   22058972.8134
 114687178.00748  89366706.12146  21824214.1644                   21824220.9104
 116810468.42947  91021114.86645  22228268.5084                   22228276.7304
 113501533.173 7  88442820.250 7  21598587.336
 120518647.53347  93910699.06244  22933911.7034                   22933921.9774
 11  7 26  0 27 30.0000000  0  9G12G04G20G27G09G02G28G17G10
 128182541.010 6  99882698.404 5  24392359.328
 104491992.17248  81422497.48746  19884148.3834                   19884156.5634
 128791402.49946 100356970.71542  24508188.6174                   24508197.5784
 117736614.79947  91742924.51045  22404545.5314                   22404554.7664
 115916827.67347  90324891.62243  22058252.6254                   22058261.5944
 114618506.13347  89313195.61145  21811146.1644                   21811152.9574
 116875072.37747  91071455.53145  22240562.4694                   22240570.6334
 113536137.767 7  88469784.858 7  21605172.727
 120428180.49546  93840205.39344  22916696.0704                   22916706.5434
 11  7 26  0 28  0.0000000  0  9G12G04G20G27G09G02G28G17G10
 128085517.677 5  99807095.871 5  24373897.336
 104497980.03947  81427163.36846  19885288.0864                   19885295.6214
 128843708.90646 100397728.97642  24518142.7894                   24518150.5514
 117744885.98247  91749369.56445  22406119.5084                   22406128.9614
 115913731.25146  90322478.79243  22057662.9454                   22057671.8834
 114550166.50347  89259944.02345  21798141.4844                   21798148.3634
 116940038.53047  91122078.43545  22252924.4924                   22252934.0004
 113570831.113 7  88496818.618 7  21611774.461
 120337874.00946  93769836.78644  22899511.2584                   22899521.8524
 11  7 26  0 28 30.0000000  0  9G12G04G20G27G09G02G28G17G10
 127988496.686 6  99731495.177 5  24355435.352
 104504515.26448  81432255.76946  19886531.6884                   19886539.6914
 128896474.11346 100438844.76342  24528183.3204                   24528192.3754
 117753633.15147  91756185.49345  22407784.4144                   22407793.8984
 115911273.36947  90320563.54144  22057194.9064                   22057205.0204
 114482160.02948  89206952.02145  21785200.8914                   21785207.1994
 117005366.59847  91172983.34645  22265356.1024                   22265364.9144
 113605613.436 7  88523921.718 7  21618393.031
 120247731.20247  93699595.76344  22882357.6334                   22882367.5864
 11  7 26  0 29  0.0000000  0  9G12G04G20G27G09G02G28G17G10
 127891479.638 6  99655897.542 6  24336974.133
 104511596.29248  81437773.46646  19887879.3834                   19887887.5434
 128949696.52646 100480316.77542  24538310.7274                   24538320.7464
 117762855.19147  91763371.46445  22409538.9694                   22409548.0824
 115909453.35746  90319145.35743  22056848.8674                   22056858.1804
 114414487.59048  89154220.30546  21772322.7814                   21772329.5044
 117071055.75547  91224169.61945  22277857.0004                   22277865.2934
 113640484.438 7  88551093.916 7  21625028.859
 120157755.39246  93629484.86943  22865235.3594                   22865245.5904
 11  7 26  0 29 30.0000000  0  9G12G04G20G27G09G02G28G17G10
 127794468.373 6  99580304.454 6  24318513.039
 104519222.29148  81443715.83146  19889329.9614                   19889338.3834
 129003374.88046 100522144.15842  24548525.0084                   24548534.8484
 117772551.40846  91770926.97045  22411384.5164                   22411393.2154
 115908270.74447  90318223.80944  22056624.3364                   22056633.2194
 114347150.35147  89101749.75845  21759508.4614                   21759515.1254
 117137105.54747  91275636.91745  22290425.5554                   22290434.5084
 113675444.051 7  88578335.160 7  21631681.688
 120067950.12446  93559506.87443  22848146.2734                   22848156.0594
 11  7 26  0 30  0.0000000  0  9G12G04G20G27G09G02G28G17G10
 127697464.581 6  99504717.196 6  24300053.766
 104527391.99848  81450081.85446  19890884.6254                   19890892.9884
 129057507.78946 100564325.57742  24558827.9844                   24558835.6254
 117782720.88747  91778851.23245  22413319.5554                   22413328.8594
 115907724.81647  90317798.41644  22056520.1174                   22056529.6414
 114280148.99447  89049540.96745  21746758.0394                   21746765.3674
 117203515.23447  91327384.67144  22303062.7584                   22303072.0164
 113710492.234 7  88605645.426 7  21638350.984
 119978318.53546  93489664.20344  22831088.9534                   22831099.3244
 11  7 26  0 30 30.0000000  0  9G12G04G20G27G09G02G28G17G10
 127600470.281 6  99429137.286 5  24281596.430
 104536104.57548  81456870.89446  19892542.9924                   19892550.6484
 129112093.70246 100606860.03943  24569214.2814                   24569222.5704
 117793362.83547  91787143.62745  22415344.4694                   22415354.0554
 115907815.44247  90317868.95044  22056538.3134                   22056546.2464
 114213484.64048  88997594.79445  21734073.3754                   21734080.1134
 117270284.82347  91379412.85344  22315768.8364                   22315777.4454
 113745629.116 7  88633024.777 7  21645037.266
 119888864.18447  93419959.61144  22814066.8284                   22814076.8554
 11  7 26  0 31  0.0000000  0  9G12G04G20G27G09G02G28G17G10
 127503487.115 6  99353566.021 5  24263140.734
 104545358.71648  81464081.92746  19894303.8134                   19894311.2584
 129167131.47346 100649746.62243  24579688.4304                   24579696.9844
 117804476.29047  91795803.45545  22417459.5314                   22417467.8284
 115908541.43747  90318434.66044  22056675.9144                   22056684.4264
 114147158.40647  88945912.08146  21721452.1334                   21721458.2894
 117337413.42247  91431720.81044  22328542.2814                   22328551.4734
 113780854.858 7  88660473.376 7  21651740.695
 119799590.17047  93350395.54144  22797078.8914                   22797088.3164
 11  7 26  0 31 30.0000000  0  9G12G04G20G27G09G02G28G17G10
 127406516.771 6  99278004.697 5  24244689.047
 104555152.76848  81471713.67346  19896167.6254                   19896175.5634
 129222619.61046 100692984.10443  24590246.7194                   24590256.1024
 117816060.02947  91804829.74645  22419663.7814                   22419672.7974
 115909902.07247  90319494.87644  22056935.1804                   22056943.2584
 114081170.69147  88894493.11646  21708894.2194                   21708901.0944
 117404900.11347  91484307.77344  22341385.0394                   22341393.3484
 113816168.852 7  88687990.769 7  21658460.273
 119710499.72847  93280974.53844  22780124.9774                   22780135.5594
 11  7 26  0 32  0.0000000  0  9G12G04G20G27G09G02G28G17G10
 127309561.419 6  99202455.071 6  24226238.430
 104565485.95848  81479765.52946  19898133.8524                   19898142.4344
 129278556.36546 100736571.21343  24600891.2114                   24600900.6294
 117828113.38546  91814221.95444  22421957.5394                   22421966.4184
 115911896.93047  90321049.30444  22057314.4384                   22057322.6054
 114015522.58547  88843338.80046  21696402.0004                   21696408.6254
 117472744.64447  91537173.58544  22354295.9694                   22354304.0984
 113851571.547 8  88715577.270 7  21665197.469
 119621596.46247  93211699.32544  22763207.6414                   22763217.6374
 11  7 26  0 32 30.0000000  0  9G12G04G20G27G09G02G28G17G10
 127212622.662 6  99126918.350 6  24207792.070
 104576356.76048  81488236.31046  19900202.6414                   19900211.2344
 129334940.45846 100780506.88243  24611620.7424                   24611629.6524
 117840635.33547  91823979.32445  22424340.0314                   22424349.2464
 115914525.06547  90323097.21744  22057814.8134                   22057823.1914
 113950214.96148  88792449.81646  21683973.8524                   21683981.5004
 117540946.26547  91590317.66544  22367274.1724                   22367282.2894
 113887062.558 8  88743232.568 7  21671951.039
 119532883.52747  93142572.42544  22746326.3364                   22746335.8794
 11  7 26  0 33  0.0000000  0  9G12G04G20G27G09G02G28G17G10
 127115702.343 6  99051396.080 5  24189347.375
 104587763.93648  81497125.02746  19902373.3134                   19902381.1094
 129391770.39246 100824789.91443  24622435.3674                   24622443.0664
 117853624.81847  91834101.01344  22426811.0864                   22426820.8714
 115917785.86947  90325638.09544  22058435.6414                   22058443.5704
 113885248.81548  88741826.90946  21671611.3984                   21671618.4694
 117609504.35747  91643739.51144  22380320.3754                   22380329.0084
 113922642.163 8  88770956.895 7  21678721.867
 119444364.05347  93073596.29644  22729480.5554                   22729491.0044
 11  7 26  0 33 30.0000000  0  9G12G04G20G27G09G02G28G17G10
 127018802.795 6  98975889.962 6  24170907.344
 104599706.36348  81506430.83246  19904645.9534                   19904653.6294
 129449044.80246 100869419.31943  24633333.7274                   24633342.9774
 117867080.80647  91844586.20045  22429372.4694                   22429381.6914
 115921678.53147  90328671.34144  22059176.0084                   22059184.4964
 113820624.85548  88691470.65546  21659313.8914                   21659320.9614
 117678418.16547  91697438.54144  22393433.7974                   22393442.6764
 113958310.182 7  88798750.139 7  21685509.156
 119356041.55647  93004773.62844  22712673.6564                   22712683.7274
 11  7 26  0 34  0.0000000  0  9G12G04G20G27G09G02G28G17G10
 126921925.435 6  98900401.099 6  24152473.859
 104612182.73648  81516152.70246  19907019.7504                   19907027.8284
 129506761.96746 100914393.77543  24644317.8674                   24644325.5354
 117881002.28147  91855434.08645  22432022.0554                   22432030.2854
 115926202.18847  90332196.24544  22060035.8204                   22060045.5234
 113756343.93347  88641381.69745  21647081.9144                   21647088.6564
 117747687.06147  91751414.28144  22406615.6024                   22406623.6024
 113994066.619 8  88826612.288 7  21692313.375
 119267919.73447  92936107.33944  22695904.9694                   22695914.1844
 11  7 26  0 34 30.0000000  0  9G12G04G20G27G09G02G28G17G10
 126825072.538 6  98824931.295 6  24134043.648
 104625191.93048  81526289.75646  19909495.2894                   19909503.2114
 129564920.43846 100959712.11943  24655384.4924                   24655392.6884
 117895388.36947  91866644.01245  22434759.5394                   22434768.2934
 115931356.21547  90336212.33844  22061017.6804                   22061026.2074
 113692407.30948  88591561.02346  21634915.0944                   21634921.2974
 117817310.37347  91805666.15544  22419864.2814                   22419873.2344
 114029912.181 7  88854543.839 7  21699134.727
 119180001.77347  92867599.93944  22679174.5474                   22679184.5394
 11  7 26  0 35  0.0000000  0  9G12G04G20G27G09G02G28G17G10
 126728245.444 6  98749481.648 6  24115617.836
 104638731.95148  81536840.44246  19912072.0944                   19912080.1884
 129623518.42946 101005372.81643  24666536.3674                   24666544.4964
 117910237.53047  91878214.78645  22437584.6724                   22437593.9264
 115937139.06747  90340718.47744  22062116.9614                   22062126.1334
 113628814.93047  88542008.59046  21622813.7274                   21622820.3244
 117887287.09047  91860193.42944  22433180.4694                   22433189.2194
 114065845.791 8  88882544.049 7  21705972.625
 119092290.84447  92799253.86244  22662483.1724                   22662493.8444
 11  7 26  0 35 30.0000000  0  9G12G04G20G27G09G02G28G17G10
 126631446.116 6  98674053.655 6  24097196.531
 104652801.34448  81547803.62546  19914749.1564                   19914757.1884
 129682554.18846 101051374.72443  24677769.6724                   24677778.5274
 117925548.71047  91890145.54445  22440499.2504                   22440507.3404
 115943549.90747  90345713.90544  22063338.6254                   22063346.3054
 113565567.82448  88492725.19546  21610777.7194                   21610784.2154
 117957616.56347  91914995.53944  22446563.8284                   22446572.4884
 114101867.533 7  88910612.922 7  21712827.383
 119004790.09747  92731071.56844  22645832.7734                   22645842.8094
 11  7 26  0 36  0.0000000  0  9G12G04G20G27G09G02G28G17G10
 126534676.579 6  98598648.891 6  24078782.602
 104667399.31148  81559178.69046  19917527.2664                   19917535.0944
 129742026.44946 101097716.75242  24689086.6484                   24689095.8164
 117941320.89747  91902435.54045  22443500.0314                   22443509.4144
 115950588.19146  90351198.36644  22064676.6644                   22064685.7584
 113502666.79448  88443711.47046  21598807.9774                   21598814.5594
 118028298.49147  91970072.35244  22460014.4694                   22460022.5824
 114137977.978 8  88938750.925 7  21719698.703
 118917503.17347  92663055.86644  22629222.2344                   22629232.9144
 11  7 26  0 36 30.0000000  0  9G12G04G20G27G09G02G28G17G10
 126437938.847 6  98523268.934 6  24060373.727
 104682524.21748  81570964.34246  19920405.2664                   19920413.1844
 129801933.56046 101144397.61243  24700486.6644                   24700495.6484
 117957552.95347  91915083.85345  22446588.7974                   22446597.4064
 115958253.14746  90357171.04944  22066135.8054                   22066144.8054
 113440112.81348  88394968.17046  21586905.1094                   21586910.3874
 118099331.70447  92025422.82944  22473531.1094                   22473540.6724
 114174177.016 7  88966957.934 7  21726587.484
 118830433.11847  92595209.16244  22612653.3054                   22612663.7504
 11  7 26  0 37  0.0000000  0  9G12G04G20G27G09G02G28G17G10
 126341235.076 6  98447915.471 6  24041972.266
 104698174.85348  81583159.65546  19923383.3444                   19923391.2734
 129862274.01045 101191416.12042  24711968.5554                   24711978.1174
 117974243.60647  91928089.54545  22449765.1334                   22449774.0124
 115966543.67847  90363631.23044  22067713.1024                   22067722.5784
 113377906.96247  88346496.13846  21575067.6954                   21575073.5084
 118170715.27847  92081046.32644  22487115.7664                   22487124.0864
 114210464.806 7  88995234.120 7  21733492.727
 118743583.66447  92527534.34544  22596126.2974                   22596136.3244
 11  7 26  0 37 30.0000000  0  9G12G04G20G27G09G02G28G17G10
 126244566.822 6  98372589.696 6  24023576.219
 104714349.40548  81595763.21246  19926461.4304                   19926469.4304
 129923045.95246 101238770.85242  24723533.2894                   24723542.3794
 117991391.66047  91941451.63945  22453028.5084                   22453036.9224
 115975458.33647  90370577.75044  22069409.2274                   22069419.1484
 113316049.50247  88298295.58746  21563295.8914                   21563302.3554
 118242448.74847  92136942.48944  22500765.6024                   22500774.5084
 114246841.359 7  89023579.459 7  21740414.648
 118656957.98447  92460033.91544  22579642.0474                   22579652.2234
 11  7 26  0 38  0.0000000  0  9G12G04G20G27G09G02G28G17G10
 126147936.035 6  98297293.069 6  24005188.180
 104731046.44248  81608773.90246  19929638.7344                   19929646.7854
 129984247.72346 101286460.57542  24735180.1414                   24735188.5594
 118008995.87447  91955169.18945  22456378.0164                   22456386.9574
 115984996.09947  90378009.73444  22071225.0704                   22071233.4774
 113254541.31548  88250367.21646  21551591.1174                   21551597.8524
 118314531.02147  92193110.41644  22514482.6094                   22514492.1684
 114283306.355 7  89051993.747 7  21747354.234
 118570559.60047  92392710.57844  22563201.0394                   22563210.3244
 11  7 26  0 38 30.0000000  0  9G12G04G20G27G09G02G28G17G10
 126051344.882 6  98222027.357 6  23986807.805
 104748264.89948  81622190.87746  19932915.4384                   19932923.7664
 130045878.00145 101334484.10342  24746907.8284                   24746916.5594
 118027055.31347  91969241.43945  22459815.0784                   22459823.8714
 115995156.29047  90385926.81044  22073158.3984                   22073166.6954
 113193382.94148  88202711.39546  21539953.2664                   21539959.8164
 118386961.77647  92249549.89744  22528265.5314                   22528275.0124
 114319860.422 7  89080477.410 7  21754309.656
 118484391.47747  92325566.65144  22546803.5474                   22546813.3714
 11  7 26  0 39  0.0000000  0  9G12G04G20G27G09G02G28G17G10
 125954795.644 7  98146794.257 6  23968433.406
 104766003.39748  81636013.09446  19936290.9224                   19936299.4064
 130107935.20045 101382840.27542  24758716.3594                   24758726.5744
 118045569.03847  91983667.70645  22463338.4774                   22463346.5904
 116005938.11347  90394328.24144  22075209.7734                   22075218.4534
 113132575.53548  88155329.08146  21528381.8204                   21528388.7274
 118459740.60647  92306260.61144  22542115.4614                   22542124.4104
 114356503.872 8  89109030.730 7  21761283.000
 118398457.66447  92258605.35144  22530450.8524                   22530460.6334
 11  7 26  0 39 30.0000000  0  9G12G04G20G27G09G02G28G17G10
 125858289.699 6  98071594.906 6  23950069.328
 104784259.91348  81650238.95846  19939764.9534                   19939773.3404
 130170416.89245 101431527.32642  24770606.7344                   24770616.3874
 118064534.99947  91998446.38045  22466946.9304                   22466955.5904
 116017339.44547  90403212.37444  22077379.7424                   22077388.4654
 113072119.54448  88108220.56846  21516877.6024                   21516884.1454
 118532865.51747  92363240.98944  22556030.2194                   22556039.7074
 114393236.009 8  89137653.192 7  21768273.008
 118312760.73947  92191828.59244  22514143.3134                   22514153.1334
 11  7 26  0 40  0.0000000  0  9G12G04G20G27G09G02G28G17G10
 125761829.411 6  97996431.125 6  23931713.617
 104803033.12548  81664867.43946  19943337.1564                   19943345.4614
 130233321.75545 101480544.03542  24782576.8054                   24782586.9144
 118083952.15947  92013576.59045  22470641.9774                   22470651.4494
 116029359.52047  90412578.65244  22079666.4384                   22079675.7704
 113012015.39948  88061386.22246  21505439.8834                   21505445.9574
 118606335.98947  92420490.64444  22570012.4454                   22570020.2464
 114430057.195 7  89166345.049 7  21775279.727
 118227304.04747  92125239.04744  22497881.8204                   22497890.3634
 11  7 26  0 40 30.0000000  0  9G12G04G20G27G09G02G28G17G10
 125665416.764 6  97921304.493 6  23913367.406
 104822321.73848  81679897.53546  19947007.5784                   19947016.1134
 130296647.91755 101529889.11752  24794627.2194                   24794637.3134
 118103819.59247  92029057.69245  22474423.4774                   22474431.5204
 116041997.33847  90422426.30744  22082071.5864                   22082080.0314
 112952264.38848  88014827.07246  21494069.7194                   21494076.0554
 118680151.59847  92478009.21244  22584058.0864                   22584067.0904
 114466967.874 8  89195106.628 7  21782303.930
 118142091.57047  92058839.79844  22481666.2584                   22481675.4224
 11  7 26  0 41  0.0000000  0  9G12G04G20G27G09G02G28G17G10
 125569052.979 6  97846215.879 6  23895028.883
 104842123.45048  81695327.43046  19950776.2894                   19950783.8094
 130360393.69645 101579561.07343  24806759.6564                   24806767.8164
 118124135.38447  92044888.14845  22478289.1804                   22478298.1844
 116055251.10746  90432753.94043  22084593.6564                   22084602.6174
 112892866.52148  87968543.05746  21482767.0864                   21482772.7854
 118754310.74347  92535795.48444  22598170.2344                   22598178.8054
 114503967.254 7  89223937.326 7  21789344.211
 118057125.76947  91992632.74345  22465498.1094                   22465507.2934
 11  7 26  0 41 30.0000000  0  9G12G04G20G27G09G02G28G17G10
 125472740.505 6  97771167.177 6  23876702.141
 104862436.94748  81711156.12346  19954641.4614                   19954649.2664
 130424556.92646 101629558.35543  24818967.6724                   24818977.6294
 118144898.09847  92061066.87345  22482239.4144                   22482248.6564
 116069119.68747  90443560.61444  22087233.5234                   22087242.2304
 112833822.28748  87922534.63246  21471530.9774                   21471537.1214
 118828812.67247  92593848.86444  22612348.2034                   22612355.8984
 114541055.816 7  89252837.539 7  21796401.633
 117972410.19447  91926620.68245  22449376.2504                   22449386.8094
 11  7 26  0 42  0.0000000  0  9G12G04G20G27G09G02G28G17G10
 125376481.399 7  97696160.144 6  23858384.594
 104883260.75748  81727382.46046  19958604.6174                   19958612.0084
 130489136.10846 101679879.74643  24831257.5234                   24831265.7814
 118166106.55247  92077592.93745  22486275.4454                   22486284.8674
 116083601.86646  90454845.52244  22089988.1334                   22089997.9494
 112775132.33648  87876802.25846  21460362.6564                   21460369.0554
 118903656.61247  92652168.75244  22626590.3834                   22626598.2934
 114578233.867 8  89281807.435 7  21803477.523
 117887948.30547  91860806.31344  22433303.2194                   22433313.4144
 11  7 26  0 42 30.0000000  0  9G12G04G20G27G09G02G28G17G10
 125280277.889 7  97621196.461 6  23840078.078
 104904593.30448  81744005.23446  19962663.8674                   19962671.6374
 130554129.76146 101730524.14643  24843624.1804                   24843634.0394
 118187759.30347  92094465.18045  22490395.9614                   22490405.1804
 116098696.61347  90466607.64644  22092860.6334                   22092870.6094
 112716798.11548  87831347.05846  21449261.8984                   21449268.3754
 118978841.57747  92710754.36444  22640897.0164                   22640905.8404
 114615501.697 7  89310847.320 7  21810568.664
 117803743.73447  91795192.46445  22417280.1094                   22417289.8054
 11  7 26  0 43  0.0000000  0  9G12G04G20G27G09G02G28G17G10
 125184131.803 7  97546277.499 6  23821782.188
 104926432.75548  81761022.98246  19966819.5004                   19966827.7234
 130619535.93646 101781489.99043  24856071.5474                   24856079.9384
 118209855.02947  92111682.59045  22494601.0784                   22494610.2774
 116114402.06147  90478845.67544  22095849.5474                   22095859.1644
 112658819.51948  87786168.96046  21438228.6094                   21438234.7934
 119054366.66847  92769605.02944  22655269.5944                   22655278.2234
 114652858.855 8  89339956.792 7  21817677.656
 117719799.42047  91729781.38844  22401306.3204                   22401316.2504
 11  7 26  0 43 30.0000000  0 10G12G05G04G20G27G09G02G28G17G10
 125088045.117 7  97471404.794 6  23803496.906
                                  25206436.664
 104948777.45648  81778434.43846  19971071.7814                   19971079.4734
 130685352.59446 101832775.66143  24868596.2974                   24868604.5824
 118232392.17947  92129244.01045  22498889.9924                   22498898.7854
 116130717.01647  90491558.60844  22098954.9454                   22098963.3444
 112601196.99048  87741268.33246  21427263.3204                   21427269.9304
 119130230.72047  92828719.77144  22669706.3834                   22669713.7384
 114690305.661 8  89369136.131 7  21824803.383
 117636118.70647  91664575.76144  22385381.4064                   22385391.7504
 11  7 26  0 44  0.0000000  0  9G12G04G20G27G09G02G28G17G10
 124992020.194 7  97396580.217 6  23785224.109
 104971625.89648  81796238.41046  19975419.5234                   19975427.3954
 130751577.94046 101884379.83143  24881197.4924                   24881207.4844
 118255369.51347  92147148.40544  22503262.3914                   22503270.8324
 116147640.23347  90504745.53744  22102175.0084                   22102183.2114
 112543931.58648  87696645.98346  21416365.9534                   21416372.5434
 119206433.09247  92888098.17444  22684206.6094                   22684215.1954
 114727842.326 7  89398385.498 7  21831946.563
 117552705.36847  91599578.45244  22369508.5634                   22369518.9694
 11  7 26  0 44 30.0000000  0 10G12G05G04G20G27G09G02G28G17G10
 124896058.806 7  97321805.158 6  23766963.516
 132257063.90615 103057510.04115  25167678.875
 104994976.26648  81814433.49646  19979862.7894                   19979870.7734
 130818209.87646 101936300.82643  24893877.3444                   24893887.5084
 118278785.37547  92165394.50645  22507718.1094                   22507727.1454
 116165170.06847  90518405.12944  22105510.8754                   22105519.5274
 112487023.49048  87652302.02546  21405537.0084                   21405543.9184
 119282972.74847  92947739.36544  22698772.4694                   22698781.1994
 114765468.926 8  89427704.924 7  21839106.750
 117469562.18247  91534791.65444  22353687.4384                   22353696.8594
 11  7 26  0 45  0.0000000  0 10G12G05G04G20G27G09G02G28G17G10
 124800163.331 7  97247081.518 6  23748714.641
 132155004.91515 102977984.00215  25148258.531
 105018827.39248  81833018.77846  19984401.3984                   19984409.6094
 130885247.08646 101988537.65043  24906633.6334                   24906643.0124
 118302638.85447  92183981.58245  22512256.8674                   22512266.4964
 116183305.32647  90532536.47044  22108961.3134                   22108970.0634
 112430473.93448  87608237.46846  21394775.9454                   21394782.5204
 119359848.85447  93007642.72544  22713401.1024                   22713410.2274
 114803186.081 7  89457094.907 7  21846283.898
 117386692.80647  91470218.22744  22337917.2974                   22337927.3244
 11  7 26  0 45 30.0000000  0 10G12G05G04G20G27G09G02G28G17G10
 124704335.771 7  97172410.726 6  23730479.398
 132052800.06714 102898344.20014  25128807.008
 105043177.03548  81851992.52046  19989035.3594                   19989043.4224
 130952687.58445 102041088.60643  24919467.7114                   24919475.9694
 118326928.02347  92202908.21245  22516879.2894                   22516888.6914
 116202044.23547  90547138.22244  22112527.6644                   22112536.0944
 112374283.06747  87564452.40146  21384083.0394                   21384089.1254
 119437059.94247  93067807.11944  22728094.0634                   22728102.6804
 114840993.661 7  89486555.371 7  21853478.313
 117304100.34047  91405860.56445  22322200.4924                   22322210.7194
 11  7 26  0 46  0.0000000  0 10G12G05G04G20G27G09G02G28G17G10
 124608578.472 7  97097794.678 6  23712256.492
 131950451.67114 102818592.56915  25109331.211
 105068024.19848  81871353.93146  19993763.9924                   19993771.7154
 131020529.76746 102093952.68743  24932378.1484                   24932387.5554
 118351651.90947  92222173.55945  22521584.0394                   22521593.5354
 116221385.83047  90562209.46444  22116207.9614                   22116217.3524
 112318451.86147  87520947.58746  21373459.0004                   21373464.8244
 119514605.61747  93128232.22444  22742850.6254                   22742859.3794
 114878892.300 7  89516086.766 7  21860690.375
 117221788.45247  91341721.52945  22306537.1804                   22306547.0514
 11  7 26  0 46 30.0000000  0  9G12G04G20G27G09G02G28G17G10
 124512893.271 7  97023234.881 6  23694048.734
 105093366.54948  81891101.21646  19998586.2734                   19998594.0824
 131088771.46646 102147128.03943  24945364.5864                   24945373.9384
 118376808.50547  92241776.06644  22526370.3134                   22526379.7074
 116241328.24747  90577748.98144  22120003.5314                   22120012.0314
 112262980.47047  87477723.14546  21362903.2664                   21362908.8794
 119592484.63447  93188917.09244  22757670.0864                   22757679.4304
 114916881.624 7  89545688.832 7  21867919.570
 117139760.19247  91277803.49545  22290927.5084                   22290936.9804
 11  7 26  0 47  0.0000000  0  9G12G04G20G27G09G02G28G17G10
 124417282.282 7  96948732.831 6  23675855.141
 105119202.29648  81911232.96946  20003502.8284                   20003510.4774
 131157410.38346 102200612.95643  24958425.2274                   24958434.4534
 118402396.14547  92261714.50544  22531239.9224                   22531249.2584
 116261869.73947  90593755.33244  22123911.0084                   22123920.7304
 112207869.13847  87434779.25546  21352415.6334                   21352421.6994
 119670695.89747  93249860.85444  22772553.1954                   22772562.6294
 114954961.638 7  89575361.531 7  21875165.945
 117058018.84847  91214109.02745  22275372.5314                   22275382.0744
 11  7 26  0 47 30.0000000  0 10G12G05G04G20G27G09G02G28G17G10
 124321747.165 6  96874289.946 6  23657674.547
 131642568.22315 102578682.38115  25050745.063
 105145529.25448  81931747.47246  20008512.5394                   20008520.2734
 131226444.88046 102254406.05943  24971562.8674                   24971571.9104
 118428413.04647  92281987.40245  22536190.0944                   22536200.7894
 116283008.32247  90610226.91044  22127934.8444                   22127943.7274
 112153118.23348  87392116.26446  21341996.7814                   21342003.0944
 119749237.86747  93311062.29344  22787499.7734                   22787508.8484
 114993132.325 7  89605104.903 7  21882429.281
 116976567.58347  91150640.56345  22259873.1724                   22259882.2384
 11  7 26  0 48  0.0000000  0 10G12G05G04G20G27G09G02G28G17G10
 124226290.443 7  96799908.091 6  23639510.328
 131539668.691 5 102498501.341 5  25031163.000
 105172346.20948  81952643.80546  20013615.4384                   20013623.1484
 131295873.00046 102308505.90342  24984773.3204                   24984783.5514
 118454858.20547  92302593.98844  22541223.5004                   22541232.1174
 116304742.73747  90627162.83844  22132070.4534                   22132079.5124
 112098728.65748  87349734.79646  21331647.0474                   21331653.1374
 119828109.48547  93372520.62144  22802508.4774                   22802517.7464
 115031394.348 7  89634919.452 7  21889710.438
 116895410.05947  91087401.02445  22244429.3594                   22244438.0594
 11  7 26  0 48 30.0000000  0 10G12G05G04G20G27G09G02G28G17G10
 124130914.105 7  96725588.912 6  23621360.344
 131436637.337 6 102418217.534 5  25011557.039
 105199651.32848  81973920.54046  20018811.2584                   20018819.6134
 131365692.87746 102362911.01242  24998059.5314                   24998069.3324
 118481729.54547  92323532.68044  22546337.1094                   22546346.1954
 116327071.56447  90644561.90444  22136319.4144                   22136328.6804
 112044700.60248  87307635.04246  21321365.7814                   21321371.9104
 119907309.83247  93434235.10244  22817579.7114                   22817588.8014
 115069747.761 7  89664805.193 7  21897008.680
 116814549.34247  91024392.74744  22229041.7504                   22229051.1094
 11  7 26  0 49  0.0000000  0 10G12G05G04G20G27G09G02G28G17G10
 124035620.432 7  96651334.102 6  23603226.516
 131333476.551 6 102337832.822 4  24991925.102
 105227442.60848  81995576.10046  20024099.6094                   20024107.3914
 131435902.25745 102417619.77242  25011420.7114                   25011429.8594
 118509025.49347  92344802.21244  22551530.5784                   22551539.7774
 116349992.89047  90662422.67144  22140681.3524                   22140690.3204
 111991034.51548  87265817.35446  21311153.1254                   21311159.2774
 119986837.91747  93496204.95444  22832713.6024                   22832722.3984
 115108192.626 7  89694762.222 7  21904324.969
 116733988.73847  90961618.29544  22213711.3364                   22213720.8244
 11  7 26  0 49 30.0000000  0 10G12G05G04G20G27G09G02G28G17G10
 123940411.839 7  96577145.612 6  23585109.133
 131230188.891 5 102257349.194 5  24972269.531
 105255718.54048  82017609.30946  20029480.6254                   20029487.9024
 131506499.58845 102472630.60742  25024855.9534                   25024865.5594
 118536744.69547  92366401.54244  22556805.3444                   22556815.1334
 116373505.20447  90680743.94744  22145155.6564                   22145164.0164
 111937731.20148  87224282.34846  21301009.8364                   21301016.4224
 120066692.78647  93558429.44944  22847909.6254                   22847918.4494
 115146729.672 7  89724791.066 7  21911658.320
 116653731.52547  90899080.29345  22198439.0864                   22198448.6174
 11  7 26  0 50  0.0000000  0 10G12G05G04G20G27G09G02G28G17G10
 123845290.383 7  96503025.042 6  23567008.719
 131126776.899 6 102176768.802 5  24952590.141
 105284477.14748  82040018.62946  20034952.9924                   20034960.9614
 131577482.852 5                  25038362.070
 118564885.29247  92388329.29044  22562161.0704                   22562170.0044
 116397606.61947  90699524.24845  22149742.1804                   22149751.1414
 111884791.10448  87183030.39846  21290935.6254                   21290942.0554
 120146873.29047  93620907.65644  22863167.3444                   22863176.3554
 115185358.963 7  89754891.754 7  21919008.797
 116573781.13247  90836781.31844  22183224.9924                   22183234.2584
 11  7 26  0 50 30.0000000  0 10G12G05G04G20G27G09G02G28G17G10
 123750258.193 7  96428974.026 6  23548923.695
 131023242.927 6 102096093.326 6  24932888.938
 105313716.62848  82062802.66046  20040517.1644                   20040525.2974
 131648849.861 5                  25051943.227
 118593445.60147  92410584.03545  22567595.2424                   22567605.6524
 116422295.44947  90718762.26844  22154440.6334                   22154449.0234
 111832214.51748  87142061.65546  21280930.9454                   21280936.6174
 120227377.92747  93683638.45644  22878487.3984                   22878496.4964
 115224080.139 7  89785064.063 7  21926377.273
 116494140.61047  90774723.84644  22168069.6564                   22168079.1524
 11  7 26  0 51  0.0000000  0 10G12G05G04G20G27G09G02G28G17G10
 123655317.437 7  96354994.306 6  23530857.539
 130919589.477 6 102015324.780 5  24913163.766
 105343435.18548  82085960.00046  20046172.5394                   20046180.1294
 131720598.685 4                  25065593.555
 118622424.32447  92433164.83344  22573110.4304                   22573120.1024
 116447570.13447  90738456.82144  22159249.9774                   22159258.5354
 111780001.81648  87101376.50746  21270994.3134                   21271001.0664
 120308206.00947  93746621.24444  22893868.0864                   22893877.5784
 115262894.283 7  89815308.809 7  21933763.188
 116414813.49347  90712910.56944  22152974.2034                   22152983.6564
 11  7 26  0 51 30.0000000  0 10G12G05G04G20G27G09G02G28G17G10
 123560469.842 7  96281087.152 6  23512808.859
 130815818.618 6 101934464.748 6  24893416.031
 105373630.20048  82109488.61646  20051918.5634                   20051925.7304
 131792727.04415                  25079322.086
 118651819.08847  92456069.79644  22578703.4454                   22578713.4414
 116473428.11647  90758605.90644  22164170.2424                   22164179.0554
 111728152.87548  87060974.79046  21261127.9694                   21261134.3954
 120389355.82347  93809854.77743  22909311.1644                   22909319.5554
 115301800.805 7  89845625.553 7  21941167.289
 116335802.80946  90651343.86244  22137939.2194                   22137947.9494
 11  7 26  0 52  0.0000000  0 10G12G05G04G20G27G09G02G28G17G10
 123465718.279 7  96207254.826 6  23494777.391
 130711933.043 6 101853515.266 5  24873647.273
 105404300.70148  82133387.73746  20057755.2114                   20057762.8954
 131865233.135 4                  25093119.078
 118681628.82047  92479298.12845  22584376.3674                   22584385.9414
 116499868.11746  90779208.52344  22169201.2584                   22169210.1564
 111676668.68148  87020857.29946  21251330.9844                   21251337.2114
 120470826.39047  93873338.24444  22924814.1644                   22924823.2774
 115340800.458 7  89876014.846 7  21948589.164
 116257111.99947  90590026.42844  22122964.0474                   22122973.9964
 11  7 26  0 52 30.0000000  0 10G12G05G04G20G27G09G02G28G17G10
 123371065.036 7  96133499.106 6  23476766.047
 130607935.557 6 101772478.589 5  24853856.758
 105435444.77648  82157655.88446  20063680.8054                   20063689.0004
 131938114.63114                  25106987.578
 118711851.61347  92502848.32245  22590128.1254                   22590137.4104
 116526888.33546  90800263.24244  22174343.3674                   22174352.5044
 111625549.97148  86981024.57346  21241604.0864                   21241609.9064
 120552616.87847  93937071.00643  22940377.6804                   22940387.2704
 115379893.395 7  89906476.849 7  21956027.891
 116178744.42847  90528960.84745  22108051.3204                   22108061.0704
 11  7 26  0 53  0.0000000  0 10G12G05G04G20G27G09G02G28G17G10
 123276511.671 7  96059821.186 6  23458772.961
 130503827.816 6 101691355.936 5  24834045.406
 105467059.74148  82182290.95446  20069697.4534                   20069705.4774
 132011369.83015                  25120928.898
 118742485.30547  92526718.68845  22595957.8984                   22595966.7114
 116554486.48547  90821768.29845  22179595.5944                   22179603.7664
 111574795.86548  86941475.99446  21231945.9454                   21231951.0354
 120634725.35947  94001051.54143  22956002.5784                   22956012.8754
 115419079.469 8  89937011.426 7  21963484.805
 116100702.82747  90468149.28944  22093201.0474                   22093210.2034
 11  7 26  0 53 30.0000000  0  9G12G05G04G27G09G02G28G17G10
 123182060.553 7  95986222.991 6  23440799.641
 130399612.788 6 101610149.746 5  24814214.867
 105499143.93948  82207291.64946  20075802.4224                   20075810.9454
 118773528.43547  92550908.12445  22601864.5394                   22601873.7384
 116582660.90147  90843722.37045  22184956.7584                   22184965.3324
 111524407.54348  86902212.41746  21222356.7734                   21222362.6644
 120717151.00447  94065279.22443  22971688.3984                   22971698.1414
 115458359.309 7  89967619.066 7  21970959.500
 116022991.02647  90407594.71845  22078413.1254                   22078422.4654
 11  7 26  0 54  0.0000000  0  9G12G05G04G27G09G02G28G17G10
 123087714.612 7  95912706.752 6  23422845.930
 130295293.398 6 101528862.191 5  24794363.055
 105531696.06648  82232656.95746  20081997.1414                   20082005.5234
 118804979.63947  92575415.50544  22607849.9924                   22607858.9534
 116611410.02247  90866124.25245  22190427.4774                   22190436.2854
 111474385.63348  86863234.36546  21212837.7734                   21212843.4654
 120799892.94946  94129753.38343  22987433.5084                   22987442.8754
 115497733.652 7  89998300.380 7  21978452.516
 115945612.18247  90347299.59745  22063688.3444                   22063697.6684
 11  7 26  0 54 30.0000000  0  9G12G05G04G27G09G02G28G17G10
 122993475.145 7  95839273.503 6  23404912.359
 130190871.437 6 101447494.777 6  24774491.156
 105564713.51748  82258384.84846  20088280.4224                   20088288.7384
 118836836.50347  92600239.03945  22613911.7734                   22613920.2664
 116640731.28147  90888971.94245  22196007.1644                   22196015.7934
 111424729.84148  86824541.60446  21203388.2974                   21203394.5274
 120882949.22146  94194472.47343  23003238.7034                   23003248.1254
 115537202.010 7  90029054.952 7  21985962.773
 115868569.28047  90287266.25845  22049027.2814                   22049036.4964
 11  7 26  0 55  0.0000000  0  9G12G05G04G27G09G02G28G17G10
 122899344.784 7  95765925.227 6  23387000.695
 130086349.752 6 101366049.623 6  24754601.125
 105598194.72848  82284474.11746  20094651.2424                   20094659.6294
 118869097.49147  92625377.42645  22620050.8204                   22620059.7504
 116670622.88247  90912264.07445  22201695.3754                   22201703.9694
 111375440.67048  86786134.49646  21194009.2344                   21194015.1254
 120966319.22446  94259436.03843  23019103.4384                   23019112.6484
 115576764.990 7  90059883.233 7  21993491.945
 115791865.74747  90227497.36145  22034430.9694                   22034440.2234
 11  7 26  0 55 30.0000000  0 10G12G05G04G20G27G09G02G28G17G10
 122805325.293 7  95692663.333 6  23369108.922
 129981730.069 6 101284528.143 6  24734692.367
 105632136.65748  82310922.37346  20101110.3674                   20101118.4224
 132383175.99415                  25191681.688
 118901759.93347  92650828.65044  22626266.0554                   22626275.2034
 116701082.20947  90935998.60145  22207491.5314                   22207500.5204
 111326517.23148  86748012.36746  21184699.8754                   21184705.7274
 121050000.49246  94324642.10543  23035027.2734                   23035036.6884
 115616422.055 7  90090784.826 7  22001038.023
 115715504.12447  90167994.90645  22019899.3674                   22019908.6374
 11  7 26  0 56  0.0000000  0 10G12G05G04G20G27G09G02G28G17G10
 122711419.427 7  95619489.949 6  23351239.383
 129877015.452 6 101202932.637 6  24714765.375
 105666538.17148  82337728.75046  20107656.8204                   20107664.9384
 132458628.606 5                  25206040.078
 118934822.66347  92676591.79245  22632558.0314                   22632566.7274
 116732107.76847  90960174.32445  22213395.8674                   22213404.4574
 111277961.16348  86710176.49946  21175459.3834                   21175465.5394
 121133992.33146  94390090.19743  23051010.6954                   23051019.4534
 115656173.896 7  90121760.279 7  22008602.227
 115639487.99147  90108761.62945  22005434.3134                   22005443.1484
 11  7 26  0 56 30.0000000  0  9G12G05G04G27G09G02G28G17G10
 122617629.818 7  95546407.217 6  23333391.141
 129772209.054 6 101121265.659 5  24694820.438
 105701397.51348  82364891.88246  20114289.8594                   20114298.1174
 118968284.30147  92702665.77745  22638925.7344                   22638934.6884
 116763697.90247  90984790.01544  22219406.5704                   22219415.7424
 111229773.11948  86672627.40346  21166289.4924                   21166295.8594
 121218294.28647  94455779.97244  23067053.4224                   23067062.0314
 115696021.553 7  90152810.405 7  22016184.500
 115563821.22447  90049800.60045  21991035.0394                   21991043.7154
 11  7 26  0 57  0.0000000  0  9G12G05G04G27G09G02G28G17G10
 122523958.622 7  95473416.757 6  23315565.570
 129667312.999 6 101039528.776 6  24674860.219
 105736712.61148  82392410.12946  20121010.4384                   20121018.5944
 119002142.79947  92729048.97045  22645368.6564                   22645378.1604
 116795850.28847  91009843.79745  22225525.4614                   22225534.3484
 111181952.76848  86635364.82046  21157189.4924                   21157195.8164
 121302904.48247  94521709.89244  23083154.3914                   23083163.4184
 115735965.158 7  90183935.291 7  22023786.383
 115488506.95047  89991114.23845  21976703.3444                   21976713.0704
 11  7 26  0 57 30.0000000  0 10G12G05G04G20G27G09G02G28G17G10
 122430407.620 7  95400520.017 6  23297764.125
 129562329.799 5 100957723.980 5  24654882.367
 105772481.15148  82420281.69846  20127817.2894                   20127824.9144
 132687080.86415                  25249526.859
 119036395.97047  92755739.72445  22651886.6954                   22651896.5394
 116828562.61147  91035333.91045  22231749.9304                   22231759.0004
 111134500.35748  86598388.93646  21148159.7734                   21148165.3404
 121387821.38947  94587878.87744  23099312.8364                   23099323.4694
 115776004.517 7  90215134.833 7  22031405.406
 115413547.94447  89932704.68045  21962439.2274                   21962448.2774
 11  7 26  0 58  0.0000000  0  9G12G05G04G27G09G02G28G17G10
 122336979.300 7  95327718.885 6  23279985.320
 129457261.601 5 100875852.968 6  24634889.141
 105808700.97648  82448504.92046  20134709.2344                   20134717.2734
 119071041.71546  92782736.37244  22658479.7734                   22658489.0234
 116861832.56747  91061258.52145  22238081.5394                   22238090.1024
 111087415.80148  86561699.69246  21139199.9534                   21139205.9104
 121473043.62647  94654285.73444  23115530.3984                   23115539.5474
 115816139.820 7  90246409.080 7  22039042.555
 115338947.12447  89874574.22445  21948243.1884                   21948252.2774
 11  7 26  0 58 30.0000000  0  9G12G05G04G27G09G02G28G17G10
 122243676.053 7  95255015.220 6  23262230.352
 129352111.406 5 100793918.127 5  24614878.617
 105845370.18148  82477078.30746  20141687.5084                   20141695.6294
 119106078.23147  92810037.55244  22665146.8674                   22665156.3324
 116895657.99347  91087615.95145  22244518.1804                   22244526.5944
 111040699.43548  86525297.37146  21130309.9144                   21130316.0904
 121558569.96947  94720929.54344  23131805.9304                   23131814.7624
 115856371.739 7  90277758.625 7  22046698.891
 115264708.02947  89816725.63045  21934115.7274                   21934124.8834
 11  7 26  0 59  0.0000000  0  9G12G05G04G27G09G02G28G17G10
 122150500.178 7  95182410.732 6  23244499.648
 129246881.862 6 100711921.317 5  24594853.438
 105882487.10048  82506000.57146  20148750.3284                   20148758.4534
 119141503.75947  92837641.78444  22671888.1564                   22671896.6914
 116930037.37947  91114405.03945  22251060.0394                   22251069.3554
 110994351.75748  86489182.30646  21121490.4614                   21121495.6054
 121644399.19946  94787809.43244  23148138.2584                   23148148.1644
 115896700.691 7  90309183.786 7  22054372.820
 115190833.66047  89759161.24545  21920057.8284                   21920066.6604
 11  7 26  0 59 30.0000000  0  9G12G05G04G27G09G02G28G17G10
 122057453.947 7  95109907.312 6  23226792.922
 129141575.487 6 100629864.665 6  24574814.055
 105920049.36148  82535269.86746  20155898.0784                   20155906.5234
 119177316.01247  92865547.39545  22678703.6334                   22678711.9304
 116964967.86447  91141623.57545  22257707.0084                   22257716.0944
 110948372.71748  86453354.50346  21112740.5394                   21112747.0204
 121730529.73247  94854924.06743  23164529.3754                   23164538.5514
 115937126.675 7  90340684.533 7  22062066.172
 115117327.50647  89701883.77245  21906070.1644                   21906078.5824
 11  7 26  1  0  0.0000000  0  9G12G05G04G27G09G02G28G17G10
 121964539.458 7  95037506.520 6  23209111.883
 129036194.611 6 100547749.926 6  24554761.133
 105958054.51848  82564884.26546  20163130.4774                   20163138.4844
 119213513.08847  92893752.83444  22685591.4534                   22685601.0274
 117000447.27547  91169269.80445  22264459.4144                   22264467.6054
 110902762.32848  86417813.98146  21104061.1334                   21104067.3164
 121816960.34246  94922272.50343  23180976.0004                   23180985.5274
 115977649.909 7  90372261.102 7  22069777.531
 115044192.27447  89644895.33045  21892152.6954                   21892161.7894
 11  7 26  1  0 30.0000000  0  9G12G05G04G27G09G02G28G17G10
 121871759.091 7  94965210.257 6  23191456.367
 128930742.222 6 100465579.537 6  24534693.672
 105996500.80048  82594842.41446  20170446.2504                   20170454.8444
 119250092.97147  92922256.60844  22692551.7034                   22692561.3714
 117036473.33447  91197342.02145  22271315.0164                   22271323.6994
 110857520.86448  86382560.92846  21095452.5004                   21095458.2504
 121903689.32046  94989853.38343  23197480.1334                   23197488.9264
 116018270.825 7  90403913.790 7  22077507.523
 114971431.46447  89588198.66245  21878307.0864                   21878316.2194
 11  7 26  1  1  0.0000000  0  9G12G05G04G27G09G02G28G17G10
 121779115.879 7  94893020.855 6  23173826.914
 128825220.290 6 100383354.969 6  24514612.805
 106035386.43248  82625142.90346  20177846.3054                   20177854.7544
 119287053.84147  92951057.27644  22699585.5314                   22699594.7304
 117073044.23947  91225838.77944  22278273.3674                   22278282.5664
 110812648.77948  86347595.69146  21086912.9844                   21086919.3324
 121990715.34046  95057665.77243  23214040.1174                   23214049.7544
 116058989.882 7  90435642.919 7  22085255.734
 114899048.41547  89531796.33345  21864532.8524                   21864542.2664
 11  7 26  1  1 30.0000000  0  9G12G05G04G27G09G02G28G17G10
 121686611.137 7  94820939.352 6  23156223.523
 128719631.620 6 100301078.328 6  24494520.641
 106074708.62648  82655783.56746  20185328.7584                   20185336.7974
 119324393.49947  92980153.04444  22706691.0234                   22706700.3874
 117110157.36547  91254758.05644  22285336.0704                   22285345.2344
 110768145.69648  86312918.00046  21078444.7114                   21078450.5704
 122078037.03746  95125708.50043  23230656.7034                   23230665.3484
 116099807.356 7  90467448.747 7  22093023.164
 114827045.75647  89475690.43345  21850831.1564                   21850840.5314
 11  7 26  1  2  0.0000000  0  9G12G05G04G27G09G02G28G17G10
 121594247.735 7  94748967.904 6  23138646.891
 128613979.047 6 100218751.955 6  24474415.227
 106114465.78348  82686763.16846  20192894.7814                   20192902.7544
 119362110.12146  93009542.60444  22713868.4924                   22713876.8674
 117147810.39947  91284098.03045  22292502.2814                   22292510.5354
 110724012.16948  86278528.24846  21070046.6564                   21070052.1484
 122165653.11546  95193980.67843  23247330.1174                   23247338.7544
 116140723.753 7  90499331.664 7  22100809.445
 114755426.90047  89419883.59145  21837202.2274                   21837211.7544
 11  7 26  1  2 30.0000000  0  9G12G05G04G27G09G02G28G17G10
 121502027.787 7  94677108.266 6  23121098.047
 128508265.140 6 100136377.774 6  24454298.250
 106154655.58148  82718079.88646  20200542.3754                   20200550.2034
 119400201.71146  93039224.29444  22721116.1094                   22721126.3634
 117186000.95047  91313856.83845  22299769.1174                   22299778.0274
 110680247.92547  86244426.28246  21061718.8204                   21061724.3484
 122253561.87647  95262480.84043  23264058.4924                   23264067.7704
 116181739.079 8  90531291.653 7  22108614.086
 114684194.72147  89364378.07545  21823647.4924                   21823656.6994
 11  7 26  1  3  0.0000000  0  9G12G05G04G27G09G02G28G17G10
 121409954.058 7  94605362.535 6  23103577.719
 128402492.407 6 100053957.722 6  24434170.328
 106195275.92848  82749732.10646  20208272.2114                   20208280.6804
 119438665.85647  93069196.29444  22728435.8674                   22728445.5984
 117224726.42746  91344032.52645  22307137.9144                   22307147.0634
 110636853.27048  86210612.32346  21053460.1644                   21053466.2894
 122341762.03946  95331208.13243  23280842.8054                   23280852.8754
 116222853.532 7  90563328.875 7  22116438.281
 114613352.57147  89309176.47445  21810166.5004                   21810175.8244
 11  7 26  1  3 30.0000000  0  9G12G05G04G27G09G02G28G17G10
 121318028.610 7  94533732.397 6  23086084.227
 128296663.550 6  99971493.940 6  24414031.719
 106236324.73348  82781718.17946  20216083.5474                   20216091.2734
 119477500.91347  93099457.34744  22735826.0234                   22735836.2424
 117263984.82447  91374623.45745  22314608.7734                   22314618.2544
 110593828.35448  86177086.44746  21045272.9454                   21045278.5634
 122430252.09247  95400161.31243  23297681.7424                   23297691.6024
 116264067.955 7  90595443.979 7  22124281.352
 114542903.56047  89254281.22545  21796760.6644                   21796769.6294
 11  7 26  1  4  0.0000000  0  9G12G05G04G27G09G02G28G17G10
 121226253.793 7  94462219.555 6  23068620.414
 128190781.272 6  99888988.485 6  24393883.102
 106277799.81348  82814036.42546  20223975.8594                   20223983.8524
 119516704.51746  93130005.57744  22743286.6174                   22743296.6254
 117303773.55247  91405627.63045  22322180.0864                   22322189.3164
 110551173.21248  86143848.71346  21037155.8444                   21037161.4184
 122519030.46647  95469339.16344  23314576.1724                   23314584.9184
 116305382.500 7  90627637.161 7  22132142.305
 114472850.59747  89199694.59745  21783429.5784                   21783438.5004
 11  7 26  1  4 30.0000000  0  9G12G05G04G27G09G02G28G17G10
 121134631.799 7  94390825.798 6  23051184.594
 128084847.990 6  99806443.324 6  24373724.719
 106319698.96848  82846685.11346  20231949.5084                   20231957.1454
 119556274.19447  93160839.05244  22750816.9064                   22750826.6724
 117344090.19647  91437043.18345  22329852.1024                   22329861.5044
 110508887.76048  86110899.07346  21029108.9064                   21029114.8404
 122608095.61747  95538740.48844  23331525.0864                   23331534.1334
 116346797.905 7  90659908.897 7  22140024.000
 114403196.60547  89145418.85045  21770175.0394                   21770184.1484
 11  7 26  1  5  0.0000000  0  9G12G05G04G27G09G02G28G17G10
 121043165.288 7  94319553.198 6  23033779.438
 127978866.610 6  99723860.716 6  24353555.703
 106362019.85148  82879662.41546  20240002.8054                   20240010.2114
 119596208.21347  93191956.42744  22758416.1884                   22758425.9144
 117384932.17646  91468868.09045  22337624.4224                   22337633.8634
 110466971.80348  86078237.34246  21021132.5084                   21021138.6994
 122697446.00747  95608364.06144  23348527.7664                   23348537.5904
 116388313.684 7  90692258.829 7  22147923.953
 114333944.76747  89091456.44645  21756996.8754                   21757005.8484
 11  7 26  1  5 30.0000000  0  9G12G05G04G27G09G02G28G17G10
 120951856.777 7  94248403.706 7  23016404.305
 127872839.781 6  99641242.671 6  24333379.242
 106404760.69848  82912966.96346  20248136.0634                   20248143.7664
 119636504.64447  93223356.21645  22766084.5554                   22766094.0394
 117426297.39547  91501100.70845  22345495.5864                   22345504.6374
 110425425.99648  86045864.04346  21013226.7814                   21013232.8054
 122787080.64047  95678209.16143  23365584.3054                   23365594.9844
 116429930.547 7  90724687.526 7  22155843.531
 114265098.44547  89037810.03145  21743895.7814                   21743904.7074
 11  7 26  1  6  0.0000000  0  9G12G05G04G27G09G02G28G17G10
 120860708.632 7  94177379.176 7  22999059.195
 127766770.550 6  99558591.583 6  24313194.953
 106447919.44748  82946597.16746  20256348.6334                   20256356.8054
 119677161.30247  93255036.70245  22773821.2504                   22773830.9144
 117468183.34647  91533739.08544  22353466.4454                   22353475.9384
 110384250.36248  86013779.16146  21005391.3054                   21005397.0594
 122876997.71246  95748274.33143  23382694.8674                   23382705.5514
 116471649.161 7  90757195.535 7  22163782.078
 114196660.49347  88984481.85745  21730872.3524                   21730880.7424
 11  7 26  1  6 30.0000000  0  9G12G05G04G27G09G02G28G17G10
 120769722.879 7  94106481.187 7  22981745.469
 127660660.727 6  99475908.832 6  24293003.203
 106491493.06848  82980550.63646  20264640.5554                   20264648.5354
 119718175.52147  93286995.81845  22781626.4304                   22781635.4184
 117510587.05147  91566780.92244  22361535.5084                   22361544.3634
 110343443.97648  85981982.02146  20997626.1564                   20997632.2464
 122967194.84946  95818557.73543  23399859.9064                   23399869.2624
 116513469.699 8  90789782.962 7  22171740.523
 114128633.55947  88931473.94145  21717926.8524                   21717935.1214
 11  7 26  1  7  0.0000000  0  9G12G05G04G27G09G02G28G17G10
 120678902.277 7  94035711.945 7  22964462.531
 127554513.377 6  99393196.831 6  24272803.320
 106535480.05448  83014826.20946  20273010.9774                   20273019.1524
 119759545.61247  93319232.24245  22789498.0784                   22789507.6994
 117553506.46447  91600224.61044  22369702.4454                   22369711.2424
 110303007.59248  85950473.19046  20989931.4454                   20989937.6334
 123057671.22546  95889058.75643  23417075.6414                   23417086.7624
 116555392.552 7  90822450.103 7  22179718.414
 114061020.71347  88878788.68345  21705060.6724                   21705069.3404
 11  7 26  1  7 30.0000000  0  9G12G05G04G27G09G02G28G17G10
 120588249.263 7  93965073.269 7  22947211.352
 127448331.210 6  99310457.757 6  24252597.641
 106579877.86948  83049421.91346  20281459.6024                   20281467.7624
 119801269.10847  93351744.05644  22797437.9694                   22797446.9844
 117596938.62647  91634067.84545  22377968.1174                   22377976.6884
 110262940.99948  85919252.52046  20982306.4304                   20982312.8484
 123148425.16246  95959776.05643  23434346.3914                   23434356.8634
 116597418.083 7  90855197.283 7  22187714.695
 113993825.18347  88826428.59045  21692273.9304                   21692281.7154
 11  7 26  1  8  0.0000000  0  9G12G05G04G27G09G02G28G17G10
 120497765.999 7  93894566.902 7  22929993.461
 127342116.814 6  99227693.532 6  24232385.734
 106624684.44548  83084336.12546  20289985.9384                   20289993.8244
 119843343.86447  93384529.53545  22805444.6724                   22805454.1174
 117640881.11547  91668308.71845  22386330.2584                   22386338.6454
 110223244.12048  85888319.92346  20974752.6094                   20974758.3364
 123239455.13446  96030708.41143  23451668.4614                   23451678.5474
 116639547.019 7  90888025.023 7  22195732.648
 113927049.92647  88774395.99045  21679566.4384                   21679575.5044
 11  7 26  1  8 30.0000000  0  9G12G05G04G27G09G02G28G17G10
 120407455.022 7  93824194.767 7  22912808.180
 127235873.057 6  99144906.478 6  24212167.445
 106669897.39348  83119567.00846  20298589.8674                   20298597.5944
 119885767.84947  93417587.14245  22813517.6334                   22813527.4414
 117685331.56047  91702945.43045  22394788.4454                   22394796.6564
 110183916.74848  85857675.26146  20967268.6334                   20967274.6374
 123330759.41946  96101854.51843  23469043.4844                   23469053.0234
 116681779.055 7  90920933.086 7  22203768.031
 113860698.00947  88722693.25045  21666940.3984                   21666949.0314
 11  7 26  1  9  0.0000000  0  9G12G05G04G27G09G02G28G17G10
 120317318.939 7  93753958.902 7  22895655.164
 127129602.736 6  99062098.723 6  24191944.609
 106715514.87248  83155113.12546  20307270.4614                   20307278.1134
 119928539.02747  93450915.28545  22821657.2734                   22821666.1054
 117730287.14447  91737975.77245  22403342.4454                   22403351.9574
 110144959.26548  85827318.80946  20959855.6094                   20959861.7114
 123422336.77946  96173213.38343  23486470.4844                   23486479.7934
 116724114.952 7  90953922.077 7  22211824.758
 113794772.45447  88671322.75545  21654395.5164                   21654403.3874
 11  7 26  1  9 30.0000000  0  9G12G05G04G27G09G02G28G17G10
 120227360.116 7  93683861.198 6  22878536.289
 127023308.223 6  98979272.113 6  24171717.836
 106761534.35148  83190972.47046  20316027.6094                   20316035.8014
 119971654.90746  93484512.05644  22829861.2034                   22829870.8914
 117775745.26647  91773397.66845  22411993.3364                   22412002.7344
 110106371.30348  85797250.29346  20952512.5474                   20952518.5864
 123514185.12546  96244783.40543  23503948.6884                   23503958.4224
 116766555.153 7  90986992.371 7  22219901.164
 113729276.08647  88620286.70045  21641931.7584                   21641940.4224
 11  7 26  1 10  0.0000000  0  9G12G05G04G27G09G02G28G17G10
 120137580.913 7  93613903.494 6  22861452.164
 126916992.675 6  98896429.105 6  24151485.922
 106807953.74248  83227143.43346  20324860.9064                   20324869.0204
 120015113.14547  93518375.60844  22838131.4694                   22838140.8244
 117821703.14147  91809209.01745  22420739.0554                   22420747.7624
 110068152.92448  85767469.78346  20945239.8594                   20945245.9184
 123606303.27846  96316563.69343  23521477.8524                   23521487.9804
 116809099.988 7  91020144.201 7  22227997.164
 113664211.76547  88569587.29045  21629550.3204                   21629559.2304
 11  7 26  1 10 30.0000000  0  9G12G05G04G27G09G02G28G17G10
 120047983.856 7  93544087.646 6  22844402.305
 126810658.783 6  98813571.785 6  24131251.141
 106854770.56648  83263624.07946  20333769.8674                   20333778.1564
 120058911.44147  93552504.12944  22846466.2664                   22846475.2194
 117868157.94247  91845407.55245  22429578.5314                   22429589.0594
 110030303.93348  85737977.08346  20938037.6564                   20938043.0274
 123698689.15947  96388552.52743  23539058.8204                   23539068.1214
 116851749.811 7  91053377.843 7  22236113.250
 113599582.35447  88519226.77745  21617251.7274                   21617260.5944
 11  7 26  1 11  0.0000000  0  9G12G05G04G27G09G02G28G17G10
 119958571.333 7  93474415.638 6  22827387.922
 126704309.186 6  98730702.241 6  24111013.445
 106901982.83048  83300412.85346  20342754.0234                   20342762.6884
 120103047.71247  93586896.00544  22854864.2114                   22854873.9304
 117915107.36547  91881991.51145  22438513.3834                   22438522.3874
 109992824.31447  85708772.23046  20930905.1254                   20930911.1454
 123791341.06247  96460748.71343  23556689.9224                   23556699.6094
 116894505.508 7  91086693.959 7  22244249.086
 113535390.93547  88469207.55745  21605036.3914                   21605045.1644
 11  7 26  1 11 30.0000000  0  9G12G05G04G27G09G02G28G17G10
 119869345.806 7  93404889.331 6  22810407.766
 126597946.286 6  98647822.290 6  24090772.953
 106949588.34648  83337508.05246  20351813.0004                   20351821.1884
 120147519.73347  93621549.52044  22863326.9384                   22863337.2194
 117962548.87947  91918958.95244  22447541.2504                   22447550.4654
 109955713.80848  85679854.97646  20923843.4694                   20923849.0664
 123884257.83347  96533151.25943  23574371.5164                   23574381.3444
 116937367.059 7  91120092.565 7  22252405.727
 113471640.58647  88419532.00945  21592904.7814                   21592914.3634
 11  7 26  1 12  0.0000000  0  9G12G05G04G27G09G02G28G17G10
 119780309.791 7  93335510.738 7  22793465.602
 126491573.180 6  98564934.470 6  24070530.680
 106997584.85848  83374907.93446  20360946.6724                   20360955.0434
 120192325.01646  93656462.69944  22871853.1174                   22871863.5044
 118010479.71847  91956307.64444  22456662.1174                   22456671.2464
 109918972.45448  85651225.40246  20916851.5864                   20916857.6804
 123977438.03846  96605759.11443  23592103.1804                   23592112.3954
 116980334.858 7  91153573.930 7  22260582.000
 113408334.10347  88370202.32745  21580857.9844                   21580866.8244
 11  7 26  1 12 30.0000000  0  9G12G05G04G27G09G02G28G17G10
 119691465.643 7  93266281.650 7  22776559.375
 126385192.279 7  98482040.517 6  24050287.117
 107045969.65748  83412610.37546  20370153.7894                   20370161.8714
 120237461.11746  93691633.65844  22880442.8364                   22880452.2934
 118058896.56047  91994035.05244  22465875.3914                   22465884.8014
 109882599.87448  85622883.14546  20909930.3134                   20909935.6724
 124070879.46146  96678570.51243  23609883.6174                   23609894.5904
 117023409.523 7  91187138.631 7  22268778.906
 113345474.25947  88321220.69145  21568896.4924                   21568904.4734
 11  7 26  1 13  0.0000000  0  9G12G05G04G27G09G02G28G17G10
 119602815.830 7  93197203.970 7  22759689.789
 126278806.704 7  98399142.928 6  24030042.008
 107094740.69548  83450613.77846  20379434.7274                   20379442.2734
 120282925.77047  93727060.61544  22889093.9924                   22889104.0704
 118107797.06147  92032139.33144  22475181.0784                   22475190.4024
 109846595.88648  85594828.11946  20903079.1174                   20903084.3094
 124164580.28146  96751584.01243  23627714.4384                   23627725.3524
 117066591.382 7  91220786.803 7  22276996.500
 113283063.89247  88272589.30045  21557019.5394                   21557029.0864
 11  7 26  1 13 30.0000000  0  9G12G05G04G27G09G02G28G17G10
 119514363.173 7  93128279.934 7  22742857.438
 126172419.396 7  98316243.983 6  24009797.797
 107143896.17748  83488916.72946  20388789.0704                   20388796.7274
 120328716.98446  93762742.03844  22897808.2734                   22897817.8484
 118157178.88547  92070618.66244  22484577.9064                   22484586.8444
 109810960.92547  85567060.63846  20896297.6174                   20896303.5904
 124258539.21046  96824798.71343  23645593.8984                   23645604.8554
 117109880.957 7  91254518.928 7  22285233.750
 113221106.51947  88224310.87345  21545230.1414                   21545238.4384
 11  7 26  1 14  0.0000000  0  9G12G05G04G27G09G02G28G17G10
 119426109.817 7  93059511.179 6  22726062.805
 126066032.729 7  98233345.526 6  23989553.094
 107193433.25748  83527517.04946  20398215.2664                   20398223.1994
 120374832.27747  93798675.97244  22906583.6724                   22906593.6914
 118207038.55747  92109470.33244  22494065.4844                   22494074.7074
 109775694.22048  85539580.11946  20889586.8524                   20889592.1954
 124352754.41146  96898212.99543  23663524.0634                   23663533.4774
 117153278.618 7  91288335.282 7  22293491.781
 113159604.24847  88176387.06245  21533526.6414                   21533534.1764
 11  7 26  1 14 30.0000000  0  9G12G05G04G27G09G02G28G17G10
 119338058.320 7  92990899.691 7  22709307.766
 125959649.648 7  98150449.816 6  23969308.781
 107243349.80248  83566413.05146  20407714.1414                   20407722.5594
 120421269.34247  93834860.68644  22915419.8284                   22915429.9734
 118257373.37847  92148692.24544  22503644.3364                   22503653.4884
 109740795.66348  85512386.46746  20882945.7894                   20882951.2504
 124447224.15246  96971825.68343  23681501.1724                   23681510.6094
 117196784.654 7  91322236.070 7  22301770.641
 113098559.83547  88128820.02845  21521909.6724                   21521917.7934
 11  7 26  1 15  0.0000000  0  9G12G05G04G27G09G02G28G17G10
 119250210.956 7  92922447.295 7  22692590.859
 125853272.727 7  98067558.899 6  23949065.891
 107293643.30648  83605602.78346  20417285.1414                   20417292.2854
 120468025.91247  93871294.36144  22924317.6954                   22924327.5634
 118308180.52247  92188282.23545  22513312.5314                   22513320.8164
 109706264.94548  85485479.44046  20876375.4694                   20876379.8674
 124541946.54346  97045635.25543  23699525.5944                   23699536.0634
 117240399.560 7  91356221.726 7  22310070.727
 113037976.03047  88081611.90745  21510381.2194                   21510389.9144
 11  7 26  1 15 30.0000000  0  9G12G05G04G27G09G02G28G17G10
 119162570.594 7  92854156.195 7  22675913.266
 125746905.162 7  97984675.291 6  23928823.570
 107344311.91248  83645084.78946  20426926.5864                   20426934.2464
 120515099.64646  93907975.12044  22933276.4064                   22933284.5474
 118359457.49647  92228238.29844  22523070.6414                   22523079.5984
 109672102.43848  85458859.35146  20869874.0554                   20869879.0274
 124636920.09646  97119640.54543  23717598.6954                   23717609.1764
 117284124.125 7  91390292.835 7  22318391.438
 112977856.05847  88034765.22845  21498940.8204                   21498949.0274
 11  7 26  1 16  0.0000000  0  9G12G05G04G27G09G02G28G17G10
 119075139.875 7  92786028.437 7  22659275.930
 125640549.669 7  97901801.148 6  23908585.039
 107395353.71348  83684857.60946  20436639.4534                   20436647.2344
 120562488.15547  93944901.22344  22942293.0314                   22942302.0044
 118411201.79047  92268558.47045  22532917.5554                   22532925.6094
 109638307.86848  85432525.95046  20863443.0234                   20863448.9494
 124732143.41346  97193840.39943  23735719.5394                   23735729.8794
 117327958.671 7  91424449.612 7  22326733.102
 112918202.97847  87988282.36245  21487588.9534                   21487597.1294
 11  7 26  1 16 30.0000000  0  9G12G05G04G27G09G02G28G17G10
 118987920.965 7  92718065.723 7  22642678.586
 125534208.862 7  97818938.400 6  23888349.133
 107446765.57848  83724918.78346  20446423.1414                   20446430.6094
 120610188.93247  93982070.60244  22951370.2974                   22951378.8524
 118463409.98947  92309240.16744  22542851.6644                   22542860.5944
 109604880.45647  85406478.67046  20857081.5004                   20857087.4414
 124827614.19246  97268233.15443  23753886.9144                   23753896.8984
 117371903.284 7  91458692.167 7  22335095.188
 112859019.08847  87942165.11545  21476327.0554                   21476335.2274
 11  7 26  1 17  0.0000000  0  9G12G05G04G27G09G02G28G17G10
 118900916.272 7  92650269.934 7  22626121.664
 125427885.475 6  97736089.244 6  23868116.141
 107498545.17648  83765266.51746  20456276.2734                   20456284.0634
 120658199.17447  94019481.12944  22960506.4694                   22960516.4884
 118516078.87447  92350280.83544  22552874.1334                   22552883.6174
 109571819.76648  85380717.10646  20850790.0314                   20850795.8404
 124923330.58546  97342817.23643  23772101.1094                   23772111.1414
 117415958.481 7  91493020.862 7  22343478.633
 112800306.74047  87896415.30445  21465153.8524                   21465162.1954
 11  7 26  1 17 30.0000000  0  9G12G05G04G27G09G02G28G17G10
 118814128.687 7  92582643.325 7  22609607.023
 125321582.609 6  97653256.066 6  23847886.945
 107550690.82848  83805899.47846  20466199.3054                   20466207.0664
 120706517.02847  94057131.33544  22969701.3524                   22969710.6764
 118569205.98347  92391678.58944  22562983.2894                   22562993.2704
 109539126.24747  85355241.64146  20844568.8054                   20844574.9064
 125019291.09246  97417591.54143  23790361.8054                   23790372.0864
 117460125.129 7  91527436.416 7  22351883.242
 112742069.13547  87851035.42445  21454071.9224                   21454080.4924
 11  7 26  1 18  0.0000000  0  9G12G05G04G27G09G02G28G17G10
 118727560.347 7  92515187.502 6  22593132.938
 125215302.963 6  97570440.978 6  23827663.430
 107603199.61948  83846815.40646  20476191.3674                   20476199.2424
 120755139.68047  94095019.11044  22978953.7974                   22978963.2504
 118622788.15647  92433430.92145  22573180.6024                   22573189.9574
 109506799.07947  85330051.66446  20838417.5784                   20838423.2504
 125115493.86046  97492554.65443  23808669.1254                   23808678.8674
 117504403.281 8  91561938.887 7  22360309.438
 112684308.83647  87806027.47645  21443080.1644                   21443088.5354
 11  7 26  1 18 30.0000000  0  9G12G05G04G27G09G02G28G17G10
 118641213.690 7  92447904.443 7  22576702.117
 125109049.150 6  97487646.038 6  23807442.711
 107656069.28548  83888012.53646  20486252.2424                   20486259.5634
 120804064.62647  94133142.42144  22988264.8134                   22988273.1174
 118676822.61347  92475535.64945  22583463.4304                   22583472.1414
 109474838.04647  85305146.99446  20832335.5634                   20832340.6254
 125211937.07046  97567705.15543  23827021.5234                   23827031.2344
 117548793.748 7  91596528.887 7  22368756.680
 112627028.50147  87761393.52645  21432180.2274                   21432188.4694
 11  7 26  1 19  0.0000000  0  9G12G05G04G27G09G02G28G17G10
 118555091.688 7  92380796.424 7  22560313.898
 125002824.154 6  97404873.618 6  23787228.258
 107709297.87948  83929489.34346  20496380.9144                   20496389.0984
 120853289.98246  94171499.80844  22997631.2894                   22997640.8834
 118731306.49847  92517990.57845  22593831.3204                   22593840.5204
 109443243.02147  85280527.53746  20826322.9144                   20826328.4844
 125308618.96646  97643041.57543  23845419.9064                   23845428.9734
 117593296.587 7  91631206.417 7  22377224.914
 112570230.99347  87717135.79745  21421371.5634                   21421380.3134
 11  7 26  1 19 30.0000000  0  9G12G05G04G27G09G02G28G17G10
 118469196.650 7  92313865.310 7  22543968.375
 124896631.027 6  97322126.034 6  23767020.406
 107762883.12048  83971244.06346  20506578.4064                   20506586.3164
 120902813.12747  94210089.23244  23007055.8054                   23007065.0354
 118786236.89847  92560793.44144  22604283.9774                   22604293.0234
 109412013.80048  85256193.12446  20820379.9614                   20820385.3134
 125405537.68046  97718562.61143  23863861.4774                   23863872.1914
 117637912.650 7  91665972.174 7  22385714.891
 112513918.74347  87673256.18445  21410655.9384                   21410664.0004
 11  7 26  1 20  0.0000000  0  9G12G05G04G27G09G02G28G17G10
 118383531.287 7  92247113.103 7  22527666.180
 124790472.372 6  97239405.274 6  23746818.914
 107816822.48048  84013274.72746  20516842.5314                   20516850.2974
 120952631.54546  94248908.74744  23016535.2814                   23016544.9804
 118841610.88446  92603941.97544  22614821.4454                   22614829.8714
 109381150.05448  85232143.48446  20814507.3204                   20814512.3714
 125502691.62046  97794266.83343  23882350.7664                   23882360.7974
 117682642.107 8  91700826.308 7  22394226.516
 112458094.81547  87629757.06545  21400033.2504                   21400041.4734
 11  7 26  1 20 30.0000000  0  9G12G05G04G27G09G02G28G17G10
 118298098.101 7  92180541.824 7  22511408.930
 124684351.312 6  97156713.836 6  23726624.125
 107871113.97248  84055579.77746  20527173.6094                   20527181.5274
 121002742.75047  94287956.41344  23026070.7664                   23026081.2814
 118897425.63747  92647433.95044  22625442.4534                   22625451.7464
 109350651.64348  85208378.50646  20808703.8134                   20808708.7034
 125600079.09046  97870153.10843  23900881.8204                   23900892.9144
 117727485.761 7  91735769.405 7  22402759.852
 112402761.82947  87586640.52945  21389503.4694                   21389511.5744
 11  7 26  1 21  0.0000000  0  9G12G05G04G27G09G02G28G17G10
 118212899.091 7  92114153.016 7  22495196.156
 124578270.131 7  97074053.420 6  23706437.711
 107925754.55348  84098156.84746  20537571.5394                   20537579.7734
 121053143.80747  94327229.93544  23035662.5394                   23035671.9614
 118953677.58647  92691266.61345  22636147.1644                   22636156.0044
 109320517.20847  85184897.16246  20802969.2274                   20802974.9924
 125697697.67946  97946219.48543  23919459.2814                   23919470.0314
 117772443.726 7  91770801.561 7  22411315.125
 112347921.69447  87543908.00845  21379067.8444                   21379075.8244
 11  7 26  1 21 30.0000000  0  9G12G05G04G27G09G02G28G17G10
 118127937.381 7  92047949.111 7  22479028.203
 124472232.080 7  96991426.594 6  23686259.672
 107980742.16348  84141004.32846  20548035.7034                   20548043.3284
 121103832.70347  94366727.75344  23045308.2194                   23045317.9384
 119010363.81346  92735437.68045  22646934.0314                   22646943.1054
 109290747.23648  85161699.81546  20797303.5314                   20797309.3954
 125795546.06645  98022464.90542  23938079.2274                   23938089.0004
 117817516.763 7  91805923.400 7  22419892.133
 112293577.70347  87501562.10845  21368726.5084                   21368734.8794
 11  7 26  1 22  0.0000000  0  9G12G05G04G27G09G02G28G17G10
 118043215.386 7  91981931.977 7  22462906.773
 124366240.045 7  96908835.612 6  23666089.820
 108036074.80848  84184120.67646  20558564.7894                   20558572.7774
 121154806.92547  94406447.91244  23055007.9694                   23055018.3634
 119067481.38047  92779944.84945  22657803.5004                   22657812.1454
 109261341.17348  85138786.01046  20791707.9144                   20791713.6644
 125893622.13646  98098887.72242  23956741.9064                   23956752.2814
 117862705.087 7  91841135.088 7  22428491.695
 112239732.08847  87459604.52845  21358479.5314                   21358487.6214
 11  7 26  1 22 30.0000000  0  9G12G05G04G27G09G02G28G17G10
 117958735.587 7  91916103.588 7  22446830.461
 124260296.794 7  96826282.623 6  23645929.539
 108091749.72748  84227503.73746  20569159.4924                   20569167.5044
 121206064.00947  94446388.45044  23064761.7274                   23064772.1294
 119125027.25347  92824785.75045  22668754.4534                   22668762.9024
 109232298.73848  85116155.55846  20786181.1024                   20786187.2584
 125991923.93846  98175486.44642  23975448.6254                   23975458.3364
 117908009.260 7  91876437.037 7  22437112.500
 112186387.15547  87418037.11445  21348328.8444                   21348336.9264
 11  7 26  1 23  0.0000000  0  9G12G05G04G27G09G02G28G17G10
 117874500.597 7  91850465.939 7  22430801.063
 124154405.101 6  96743769.871 6  23625777.227
 108147764.95048  84271151.94846  20579818.5634                   20579826.4104
 121257601.53647  94486547.52444  23074569.8054                   23074579.3364
 119182998.54147  92869958.13244  22679785.4614                   22679794.5044
 109203619.65948  85093808.26346  20780724.2664                   20780729.8754
 126090449.71746  98252259.79243  23994196.3524                   23994207.5234
 117953429.920 7  91911829.744 7  22445755.828
 112133545.65047  87376861.98045  21338272.7194                   21338281.3134
 11  7 26  1 23 30.0000000  0  9G12G05G04G27G09G02G28G17G10
 117790512.719 7  91785020.854 7  22414818.344
 124048567.761 7  96661299.431 6  23605637.945
 108204117.78348  84315063.23946  20590542.0474                   20590550.3594
 121309416.64247  94526922.89844  23084429.2344                   23084438.8554
 119241391.74547  92915459.24844  22690897.8364                   22690906.2344
 109175302.94247  85071743.31646  20775335.5394                   20775341.3834
 126189197.61546  98329206.12142  24012987.5864                   24012998.5394
 117998967.486 7  91947313.556 7  22454421.539
 112081210.30247  87336081.22445  21328313.6484                   21328322.3714
 11  7 26  1 24  0.0000000  0  9G12G05G04G27G09G02G28G17G10
 117706774.929 7  91719770.651 7  22398883.938
 123942787.941 7  96578873.790 6  23585508.914
 108260806.28348  84359236.10446  20601329.6804                   20601337.7974
 121361507.13647  94567512.85644  23094341.7664                   23094351.7664
 119300204.52147  92961287.34445  22702089.2344                   22702098.1994
 109147348.78148  85049960.87346  20770015.9774                   20770021.6564
 126288165.93346  98406324.22243  24031821.3054                   24031832.1374
 118044622.294 7  91982888.740 7  22463109.188
 112029383.92447  87295697.10245  21318451.4144                   21318460.3524
 11  7 26  1 24 30.0000000  0  9G12G05G04G27G09G02G28G17G10
 117623289.642 7  91654717.179 7  22382997.164
 123837068.673 6  96496495.309 6  23565390.984
 108317828.09348  84403668.67146  20612180.9224                   20612188.4144
 121413870.31047  94608315.30344  23104305.9144                   23104316.7734
 119359433.76047  93007439.96645  22713360.5164                   22713369.3794
 109119756.79548  85028460.64746  20764765.4614                   20764771.0314
 126387352.53146  98483612.42243  24050696.0784                   24050706.7704
 118090395.104 7  92018555.857 6  22471819.461
 111978068.66447  87255711.24845  21308686.2974                   21308695.1484
 11  7 26  1 25  0.0000000  0  9G12G05G04G27G09G02G28G17G10
 117540059.412 7  91589862.444 7  22367159.141
 123731412.553 7  96414166.076 6  23545284.883
 108375180.61548  84448358.93946  20623094.8364                   20623102.4144
 121466503.34047  94649328.02844  23114322.6254                   23114332.2464
 119419075.94947  93053914.31244  22724709.2344                   22724718.8164
 109092526.41248  85007242.18146  20759583.4844                   20759589.7344
                                  24069612.805
 118136286.300 7  92054315.195 7  22480552.367
 111927266.88047  87216125.49945  21299019.4924                   21299027.6334
 11  7 26  1 25 30.0000000  0  9G12G05G04G27G09G02G28G17G10
 117457086.498 7  91525208.226 6  22351369.883
 123625822.421 7  96331888.234 6  23525191.594
 108432861.58648  84493305.15546  20634071.3054                   20634078.4414
 121519403.82947  94690549.18244  23124389.3284                   23124399.0164
 119479127.94047  93100708.05944  22736137.3754                   22736145.9924
 109065657.02948  84986305.01846  20754470.5164                   20754476.1954
 126586372.32215                  24088568.211
 118182296.562 7  92090167.361 7  22489308.117
 111876980.87547  87176941.65445  21289450.0784                   21289458.4184
 11  7 26  1 26  0.0000000  0  8G12G05G04G27G09G02G17G10
 117374374.425 7  91460757.250 6  22335630.766
 123520301.801 6  96249664.566 6  23505111.453
 108490869.21548  84538505.91346  20645109.4774                   20645117.3524
 121572570.01147  94731977.34744  23134506.0864                   23134516.1334
 119539587.36046  93147819.24044  22747642.2034                   22747651.0004
 109039148.75048  84965649.23546  20749426.1954                   20749431.5944
 118228426.328 7  92126112.623 7  22498086.141
 111827214.03647  87138162.34145  21279979.8984                   21279988.3794
 11  7 26  1 26 30.0000000  0  8G12G05G04G27G09G02G17G10
 117291924.756 7  91396510.752 7  22319940.430
 123414852.614 6  96167496.584 6  23485044.305
 108549200.21048  84583958.63546  20656209.0084                   20656217.1334
 121625998.06147  94773609.58044  23144672.5004                   23144683.1764
 119600449.83147  93195244.45144  22759224.2664                   22759233.0744
 109013000.15148  84945273.72046  20744450.3524                   20744456.1374
 118274675.382 7  92162150.812 7  22506886.422
 111777967.49148  87099788.46045  21270608.7274                   21270616.4844
 11  7 26  1 27  0.0000000  0  8G12G05G04G27G09G02G17G10
 117209740.670 7  91332471.247 7  22304301.164
 123309478.995 6  96085387.449 6  23464993.359
 108607853.31848  84629662.35446  20667370.6804                   20667378.6054
 121679686.82147  94815444.91444  23154889.6094                   23154899.9964
 119661713.49946  93242982.33544  22770882.5864                   22770890.6414
 108987211.88747  84925178.98346  20739543.1804                   20739548.4654
 118321045.465 7  92198283.313 7  22515711.133
 111729244.66648  87061822.67845  21261336.7114                   21261345.1804
 11  7 26  1 27 30.0000000  0  8G12G05G04G27G09G02G17G10
 117127824.192 7  91268640.282 7  22288713.563
 123204182.928 6  96003338.789 6  23444956.164
 108666825.44148  84675614.65246  20678592.8674                   20678600.6724
 121733632.80247  94857480.70044  23165155.3674                   23165165.3204
 119723374.63747  93291029.95244  22782616.5394                   22782624.8404
 108961782.73848  84905364.08146  20734704.0704                   20734709.6414
 118367536.458 7  92234510.052 7  22524557.664
 111681047.09547  87024266.17045  21252165.0004                   21252173.4654
 11  7 26  1 28  0.0000000  0  8G12G05G04G27G09G02G17G10
 117046178.184 7  91205019.999 6  22273176.500
 123098967.470 6  95921352.912 6  23424935.016
 108726114.46848  84721813.89446  20689874.6564                   20689883.2734
 121787833.55147  94899715.00144  23175469.7504                   23175478.4924
 119785429.88347  93339384.65044  22794424.3984                   22794433.6334
 108936712.41148  84885828.78646  20729933.1644                   20729939.3754
 118414148.917 7  92270831.424 7  22533428.078
 111633377.83347  86987121.35445  21243094.2584                   21243102.4454
 11  7 26  1 28 30.0000000  0  9G12G05G04G27G09G02G28G17G10
 116964803.941 7  91141611.499 7  22257691.930
 122993834.198 7  95839431.079 6  23404927.219
 108785716.40548  84768256.96046  20701216.9064                   20701224.8834
 121842284.89747  94942144.60743  23185832.0704                   23185840.5204
 119847874.55647  93388042.80844  22806307.5314                   22806317.0004
 108911998.67747  84866571.34346  20725230.4774                   20725236.2504
 127188470.95055  99107875.20552  24203146.1884                   24203156.1604
 118460882.101 7  92307246.908 7  22542320.445
 111586237.30148  86950388.52345  21234123.0634                   21234131.1524
 11  7 26  1 29  0.0000000  0  9G12G05G04G27G09G02G28G17G10
 116883705.243 7  91078417.720 7  22242259.375
 122888787.168 7  95757576.478 6  23384937.039
 108845630.20148  84814943.02346  20712618.4144                   20712625.6914
 121896985.55247  94984768.45143  23196239.9064                   23196249.7734
 119910706.86247  93437003.02144  22818264.0944                   22818273.6764
 108887642.57148  84847592.57146  20720595.3444                   20720601.6334
 127289535.52845  99186626.76742  24222378.2734                   24222388.3484
 118507737.130 7  92343757.301 6  22551236.813
 111539629.22747  86914070.59045  21225254.0474                   21225261.7584
 11  7 26  1 29 30.0000000  0  9G12G05G04G27G09G02G28G17G10
 116802884.887 7  91015440.826 7  22226879.414
 122783829.928 7  95675791.813 6  23364964.094
 108905854.23048  84861870.84246  20724078.2664                   20724086.1764
 121951933.46747  95027584.96143  23206696.9454                   23206706.7544
 119973924.17146  93486263.23544  22830293.5234                   22830303.7304
 108863644.06248  84828892.44346  20716028.2274                   20716034.4384
 127390799.50545  99265533.71042  24241647.5634                   24241658.4184
 118554715.078 7  92380363.465 7  22560176.813
 111493556.35548  86878169.71645  21216486.5314                   21216494.4924
 11  7 26  1 30  0.0000000  0  9G12G05G04G27G09G02G28G17G10
 116722345.313 7  90952682.736 7  22211553.250
 122678965.304 7  95594079.268 6  23345009.125
 108966385.89448  84909038.37746  20735597.3834                   20735604.9734
 122007125.95146  95070592.03043  23217199.3444                   23217209.3364
 120037523.13746  93535820.81944  22842396.4614                   22842406.3204
 108840002.44548  84810470.40146  20711530.0084                   20711535.6254
 127492260.99745  99344594.57142  24260955.8054                   24260966.0394
 118601816.758 7  92417066.032 7  22569139.805
 111448020.78448  86842687.50745  21207821.2114                   21207829.2934
 11  7 26  1 30 30.0000000  0  9G12G05G04G27G09G02G28G17G10
 116642088.642 8  90890145.108 7  22196281.000
 122574195.022 7  95512440.341 6  23325072.078
 109027222.02148  84956443.15446  20747173.8524                   20747181.8284
 122062559.62946  95113787.05144  23227748.3444                   23227758.0514
 120101499.98747  93585672.85944  22854570.1804                   22854580.1604
 108816716.26848  84792325.33646  20707098.5704                   20707104.4304
 127593917.33545  99423807.22743  24280300.5784                   24280310.0664
 118649041.966 7  92453864.866 7  22578126.148
 111403024.17748  86807625.25945  21199258.7894                   21199266.7894
 11  7 26  1 31  0.0000000  0  9G12G05G04G27G09G02G28G17G10
 116562118.179 7  90827830.525 7  22181062.977
 122469523.342 7  95430878.195 6  23305153.359
 109088361.34248  85004084.17046  20758808.4534                   20758816.3554
 122118232.60246  95157168.51843  23238342.4454                   23238352.7584
 120165852.13447  93635817.36144  22866817.0554                   22866826.2584
 108793785.90947  84774457.53446  20702735.1804                   20702740.7894
 127695766.80945  99503170.39742  24299681.2814                   24299691.8444
 118696391.963 7  92490760.925 7  22587137.375
 111358569.43648  86772985.24045  21190799.4304                   21190806.8404
 11  7 26  1 31 30.0000000  0  9G12G05G04G27G09G02G28G17G10
 116482435.505 7  90765740.197 7  22165900.000
 122364952.452 7  95349394.598 6  23285254.344
 109149800.52848  85051958.86546  20770500.0474                   20770507.8244
 122174141.59247  95200733.89244  23248982.0084                   23248991.3244
 120230575.65347  93686251.21244  22879133.8134                   22879142.7114
 108771210.07348  84756865.99146  20698438.8054                   20698444.6254
 127797806.83245  99582682.04542  24319100.2034                   24319109.6914
 118743866.617 7  92527754.171 7  22596171.438
 111314657.72648  86738768.37645  21182442.9384                   21182451.3164
 11  7 26  1 32  0.0000000  0  9G12G05G04G27G09G02G28G17G10
 116403043.735 7  90703876.527 7  22150792.344
 122260485.451 7  95267991.945 6  23265374.484
 109211537.65248  85100065.72646  20782247.8204                   20782255.8554
 122230284.13347  95244481.24344  23259665.5234                   23259674.5824
 120295667.38847  93736972.03844  22891519.4144                   22891529.2114
 108748988.51647  84739550.52046  20694210.5554                   20694216.0124
 127900036.07946  99662341.21643  24338552.1954                   24338563.0554
 118791466.706 7  92564845.163 7  22605229.727
 111271291.79048  86704976.77745  21174190.6644                   21174199.0594
 11  7 26  1 32 30.0000000  0  9G12G05G04G27G09G02G28G17G10
 116323945.872 7  90642241.893 7  22135739.938
 122156125.861 7  95186672.947 6  23245515.258
 109273570.81748  85148403.26346  20794052.4694                   20794060.3094
 122286658.15047  95288408.97143  23270392.8524                   23270402.9454
 120361124.56847  93787977.65144  22903975.8134                   22903985.5164
 108727121.10947  84722511.00446  20690049.2814                   20690055.0594
 128002452.48646  99742146.23842  24358041.1094                   24358052.2234
 118839192.626 7  92602034.179 7  22614310.984
 111228474.18848  86671612.47345  21166042.9304                   21166051.0594
 11  7 26  1 33  0.0000000  0  9G12G05G04G27G09G02G28G17G10
 116245144.177 7  90580838.076 7  22120743.734
 122051876.536 6  95105439.913 6  23225677.648
 109335897.67148  85196969.63346  20805912.9064                   20805921.0474
 122343260.74947  95332514.83144  23281164.2664                   23281174.7384
 120426944.16247  93839265.62445  22916501.2344                   22916511.1094
 108705606.94348  84705746.72946  20685955.3674                   20685961.0434
 128105054.08246  99822095.47042  24377566.2894                   24377576.7344
 118887045.239 7  92639321.897 7  22623417.578
 111186206.95548  86638677.01345  21157999.5004                   21158007.0314
 11  7 26  1 33 30.0000000  0  9G12G05G04G27G09G02G28G17G10
 116166641.171 7  90519666.956 7  22105805.539
 121947739.847 7  95024294.604 6  23205861.125
 109398515.35548  85245762.64946  20817828.6644                   20817837.0784
 122400088.95147  95376796.46144  23291978.6254                   23291988.7774
 120493122.26847  93890832.97644  22929094.5704                   22929103.9064
 108684445.42548  84689257.25546  20681928.2194                   20681933.7894
 128207838.80846  99902187.38742  24397126.3834                   24397135.9104
 118935024.948 7  92676708.675 7  22632547.992
 111144491.88348  86606171.81745  21150061.1484                   21150069.1644
 11  7 26  1 34  0.0000000  0  9G12G05G04G27G09G02G28G17G10
 116088439.616 7  90458730.761 7  22090924.078
 121843718.941 6  94943239.509 6  23186066.102
 109461421.83448  85294780.69046  20829799.5084                   20829807.5634
 122457140.44846  95421252.06843  23302834.9384                   23302844.5554
 120559655.89046  93942677.33444  22941755.1804                   22941764.5554
 108663635.91247  84673042.04846  20677968.5164                   20677973.7384
 128310804.63456  99982420.36253  24416720.1414                   24416730.4494
 118983132.138 7  92714194.788 7  22641701.969
 111103331.40348  86574098.76045  21142228.8284                   21142236.7974
 11  7 26  1 34 30.0000000  0  9G12G05G04G27G09G02G28G17G10
 116010541.860 7  90398031.320 7  22076100.953
 121739816.907 6  94862277.040 6  23166293.664
 109524614.68048  85344021.88046  20841824.7584                   20841832.5124
 122514412.50747  95465879.59344  23313733.1564                   23313743.5904
 120626541.67046  93994796.09744  22954483.3594                   22954491.9804
 108643177.64247  84657100.55646  20674075.3674                   20674080.9924
 128413949.51746 100062792.87943  24436347.1174                   24436358.5004
 119031367.432 7  92751780.704 7  22650880.961
 111062727.56348  86542459.45545  21134502.5164                   21134510.3554
 11  7 26  1 35  0.0000000  0  9G12G05G04G27G09G02G28G17G10
 115932950.467 7  90337570.538 7  22061336.516
 121636036.589 7  94781409.431 6  23146545.148
 109588091.66748  85393484.46446  20853903.9144                   20853911.8244
 122571902.39347  95510676.83944  23324673.8204                   23324683.8244
 120693776.31647  94047186.66244  22967277.0084                   22967286.8754
 108623069.85847  84641432.16546  20670248.6724                   20670254.1604
 128517271.13846 100143303.15243  24456009.1564                   24456020.2734
 119079731.001 7  92789466.575 7  22660083.977
 111022681.93448  86511255.11645  21126881.3054                   21126889.8054
 11  7 26  1 35 30.0000000  0  9G12G05G04G27G09G02G28G17G10
 115855668.058 7  90277350.552 7  22046629.023
 121532380.624 7  94700638.681 7  23126820.313
 109651850.25548  85443166.46146  20866036.5634                   20866044.9024
 122629607.23546  95555641.61444  23335654.3284                   23335664.1484
 120761356.48647  94099846.50844  22980137.8524                   22980147.4344
 108603312.11148  84626036.55146  20666489.2424                   20666494.6804
 128620768.03046 100223950.03243  24475703.1254                   24475714.8594
 119128223.764 7  92827253.131 6  22669311.820
 110983196.90247  86480487.61645  21119367.7814                   21119376.2424
 11  7 26  1 36  0.0000000  0  9G12G05G04G27G09G02G28G17G10
 115778697.207 7  90217373.335 7  22031982.109
 121428852.749 7  94619967.764 7  23107119.539
 109715888.49048  85493066.38146  20878222.8284                   20878231.0354
 122687524.56546  95600771.93643  23346675.8444                   23346686.0204
 120829279.16447  94152773.23944  22993063.0394                   22993072.7774
 108583904.02447  84610913.41146  20662795.8284                   20662801.0314
 128724437.95346 100304731.73742  24495431.2664                   24495441.9384
 119176846.318 7  92865140.831 7  22678564.820
 110944274.62448  86450158.61945  21111961.5004                   21111969.3524
 11  7 26  1 36 30.0000000  0  9G12G05G04G27G09G02G28G17G10
 115702040.554 7  90157640.948 7  22017394.945
 121325455.438 6  94539398.595 6  23087443.242
 109780203.91448  85543182.29546  20890461.4844                   20890469.9414
 122745651.70646  95646065.72844  23357736.6484                   23357747.6684
 120897540.85946  94205964.10944  23006052.8594                   23006062.3594
 108564844.85347  84596062.11546  20659168.7734                   20659174.3594
 128828278.64245 100385646.49042  24515191.2814                   24515202.4774
 119225599.279 7  92903130.128 6  22687841.789
 110905916.88247  86420269.51345  21104662.1884                   21104670.3754
 11  7 26  1 37  0.0000000  0  9G12G05G04G27G09G02G28G17G10
 115625700.590 7  90098155.322 7  22002868.258
 121222191.790 7  94458933.556 6  23067793.367
 109844794.13448  85593512.33646  20902752.5084                   20902760.6374
 122803986.05647  95691520.95544  23368838.5164                   23368847.7464
 120966138.06547  94259416.42544  23019106.3834                   23019115.6134
 108546133.65848  84581481.97446  20655607.9844                   20655613.6294
 128932288.06845 100466692.71242  24534983.8524                   24534995.4304
 119274482.695 7  92941221.099 7  22697144.313
 110868125.39648  86390821.64545  21097470.5784                   21097478.1604
 11  7 26  1 37 30.0000000  0  9G12G05G04G27G09G02G28G17G10
 115549679.783 7  90038918.367 7  21988401.750
 121119064.963 7  94378575.148 6  23048168.656
 109909657.03248  85644054.83646  20915095.7814                   20915103.7624
 122862524.85347  95737135.57144  23379977.9534                   23379987.2464
 121035067.58247  94313127.70344  23032222.3914                   23032232.3484
 108527770.02747  84567172.66846  20652113.9534                   20652119.6254
 129036464.38745 100547868.95742  24554808.7894                   24554820.2934
 119323497.419 7  92979414.351 7  22706471.344
 110830902.31648  86361816.67645  21090387.1094                   21090395.3754
 11  7 26  1 38  0.0000000  0  9G12G05G04G27G09G02G28G17G10
 115473980.797 7  89979932.183 7  21973996.602
 121016077.455 7  94298325.346 7  23028570.695
 109974789.88148  85694807.71246  20927490.1484                   20927498.0904
 122921265.09546  95782907.13843  23391155.4224                   23391165.2774
 121104325.96147  94367095.20244  23045403.2504                   23045412.0354
 108509752.63448  84553133.14946  20648684.8524                   20648690.9694
 129140805.24456 100629173.43952  24574665.5234                   24574675.7234
 119372643.338 7  93017709.865 7  22715823.445
 110794249.07548  86333255.74845  21083411.8444                   21083420.2154
 11  7 26  1 38 30.0000000  0  9G12G05G04G27G09G02G28G17G10
 115398606.113 7  89921198.736 7  21959653.008
 120913232.631 7  94218186.675 6  23008999.094
 110040190.66148  85745769.36046  20939935.1414                   20939943.4344
 122980204.27246  95828833.73643  23402369.9454                   23402381.1684
 121173910.01947  94421316.50644  23058643.8984                   23058653.5904
 108492081.50848  84539363.47446  20645322.2424                   20645328.4694
 129245308.80645 100710604.77942  24594549.8134                   24594560.5474
 119421921.688 7  93056108.587 6  22725200.977
 110758168.09248  86305140.71445  21076546.4774                   21076554.5984
 11  7 26  1 39  0.0000000  0  9G12G05G04G27G09G02G28G17G10
 115323558.732 7  89862720.318 7  21945371.602
 120810533.567 7  94138161.572 7  22989455.977
 110105857.62548  85796938.40146  20952431.0784                   20952439.4614
 123039340.20546  95874913.57943  23413623.5084                   23413634.1094
 121243816.69747  94475789.23144  23071947.0704                   23071956.2304
 108474756.22048  84525863.26546  20642025.3674                   20642030.8754
 129349973.15945 100792161.42342  24614466.5394                   24614477.6724
 119471333.225 7  93094611.082 7  22734603.438
 110722661.59848  86277473.34845  21069789.7814                   21069797.4694
 11  7 26  1 39 30.0000000  0  9G12G05G04G27G09G02G28G17G10
 115248840.817 7  89804498.591 7  21931153.867
 120707983.010 7  94058252.210 7  22969941.609
 110171787.65448  85848312.43546  20964977.8054                   20964985.3364
 123098669.56446  95921144.22743  23424914.0944                   23424924.9024
 121314042.26747  94530510.41444  23085309.7194                   23085320.2194
 108457775.23348  84512631.36246  20638794.3594                   20638799.3554
 129454796.08355 100873841.64952  24634413.1254                   24634425.2624
 119520878.113 7  93133217.483 7  22744031.344
 110687730.76748  86250254.54945  21063142.8914                   21063150.2974
 11  7 26  1 40  0.0000000  0  9G12G05G04G27G09G02G28G17G10
 115174455.201 7  89746535.802 7  21916998.789
 120605583.813 7  93978460.789 7  22950456.031
 110237978.67748  85899889.84246  20977572.9844                   20977580.9024
 123158189.76746  95967523.55143  23436239.5554                   23436250.6804
 121384583.46647  94585477.51244  23098734.0164                   23098743.8204
 108441138.15548  84499667.44446  20635628.2894                   20635633.4844
 129559775.30355 100955643.64552  24654391.5004                   24654402.8054
 119570556.725 7  93171928.073 7  22753484.555
 110653377.72048  86223485.96145  21056604.8594                   21056612.6414
 11  7 26  1 40 30.0000000  0  9G12G05G04G27G09G02G28G17G10
 115100403.874 7  89688833.495 7  21902907.000
 120503338.891 7  93898789.605 7  22930998.938
 110304428.29448  85951668.75346  20990218.5864                   20990226.3134
 123217897.95846  96014049.35043  23447602.8754                   23447612.6914
 121455436.80347  94640687.85444  23112216.7734                   23112227.0044
 108424844.12047  84486970.82646  20632527.5554                   20632532.9774
 129664908.64545 101037565.84942  24674397.2584                   24674409.5824
 119620369.629 7  93210743.284 7  22762964.000
 110619604.01148  86197168.81546  21050178.0864                   21050185.7154
 11  7 26  1 41  0.0000000  0  9G12G05G04G27G09G02G28G17G10
 115026689.681 7  89631393.863 7  21888879.914
 120401251.296 7  93819241.017 7  22911572.531
 110371134.10948  86003647.26646  21002911.8754                   21002919.7194
 123277791.37046  96060719.45043  23459000.9694                   23459009.8054
 121526598.79647  94696138.67644  23125759.5944                   23125768.6294
 108408892.16348  84474540.74846  20629492.1804                   20629497.5824
 129770194.09954 101119606.45152  24694430.2894                   24694444.6214
 119670317.197 7  93249663.453 7  22772468.289
 110586411.23948  86171304.35345  21043861.6644                   21043870.0164
 11  7 26  1 41 30.0000000  0  9G12G05G04G27G09G02G28G17G10
 114953315.089 7  89574218.854 7  21874916.789
 120299324.079 7  93739817.354 6  22892176.070
 110438094.11948  86055823.87546  21015654.2504                   21015661.6884
 123337867.41246  96107531.91043  23470431.8524                   23470442.8754
 121598066.19647  94751827.50944  23139359.0084                   23139367.9614
 108393281.76847  84462376.82846  20626521.1024                   20626526.2274
 129875629.69914                  24714493.891
 119720400.025 7  93288689.024 7  22782000.023
 110553801.13048  86145893.91545  21037656.2734                   21037664.1094
 11  7 26  1 42  0.0000000  0  9G12G05G04G27G09G02G28G17G10
 114880282.695 7  89517310.513 7  21861018.969
 120197560.206 6  93660520.994 7  22872810.594
 110505306.03348  86108196.77646  21028444.1094                   21028452.3874
 123398123.55846  96154484.74243  23481898.4304                   23481909.4694
 121669835.79047  94807751.84944  23153015.9304                   23153025.1484
 108378012.52748  84450478.74146  20623615.8284                   20623620.5204
 129981213.53614                  24734588.586
 119770618.733 7  93327820.522 7  22791555.844
 110521775.57047  86120938.97546  21031561.8134                   21031569.8054
 11  7 26  1 42 30.0000000  0 10G12G05G25G04G27G09G02G28G17G10
 114807594.531 7  89460670.394 7  21847187.227
 120095961.961 7  93581353.707 7  22853476.344
 130587935.85215 101756902.74315  24850063.352
 110572766.73548  86160763.53346  21041281.1414                   21041289.2894
 123458556.14246  96201575.01543  23493398.6414                   23493408.6884
 121741903.60246  94863908.60444  23166728.7734                   23166739.2934
 108363082.66048  84438845.08546  20620774.8284                   20620779.8754
 130086942.72214                  24754709.539
 119820973.158 7  93367057.730 6  22801137.742
 110490335.76047  86096440.46646  21025579.2344                   21025587.7384
 11  7 26  1 43  0.0000000  0 10G12G05G25G04G27G09G02G28G17G10
 114735253.120 7  89404300.454 7  21833421.242
 119994532.513 7  93502317.916 7  22834175.711
 130483665.37314 101675653.02614  24830220.133
 110640474.27748  86213522.61846  21054165.3984                   21054173.2114
 123519162.57947  96248800.75943  23504931.7814                   23504941.4694
 121814266.41647  94920295.17644  23180500.5314                   23180509.8284
 108348491.49848  84427475.37946  20617998.0314                   20618003.8914
 130192814.828 4                  24774854.195
 119871464.070 7  93406401.283 6  22810746.313
 110459483.40148  86072399.71146  21019708.2894                   21019716.0004
 11  7 26  1 43 30.0000000  0 10G12G05G25G04G27G09G02G28G17G10
 114663262.103 7  89348203.559 7  21819722.000
 119893275.943 7  93423416.826 6  22814906.969
 130379479.91915 101594469.65414  24810391.469
 110708427.38248  86266473.03546  21067096.2814                   21067104.4304
 123579941.35147  96296160.77744  23516497.4454                   23516508.2464
 121886921.85347  94976909.77144  23194327.0474                   23194335.7154
 108334239.63648  84416370.07246  20615286.2894                   20615291.8834
                                  24795029.188
 119922093.087 6  93445852.445 7  22820380.211
 110429220.94948  86048818.62146  21013949.7344                   21013957.2854
 11  7 26  1 44  0.0000000  0 10G12G05G25G04G27G09G02G28G17G10
 114591623.257 7  89292381.083 7  21806089.563
 119792194.581 7  93344652.251 6  22795671.742
 130275381.42915 101513353.95214  24790582.047
 110776622.96448  86319612.40946  21080074.1644                   21080081.8444
 123640888.81847  96343652.24644  23528096.4144                   23528105.5514
 121959865.69547  95033749.07644  23208206.9614                   23208216.6094
 108320325.17148  84405527.67046  20612638.1254                   20612643.2234
 130404982.29815                  24815229.852
 119972859.822 7  93485410.894 7  22830041.180
 110399549.60248  86025698.13046  21008303.3674                   21008311.0744
 11  7 26  1 44 30.0000000  0 10G12G05G25G04G27G09G02G28G17G10
 114520339.529 7  89236835.317 7  21792524.438
 119691291.112 7  93266026.323 7  22776470.219
 130171372.13015 101432307.87615  24770788.836
 110845059.10148  86372939.25345  21093096.7664                   21093105.1884
 123702002.41247  96391273.20144  23539724.7504                   23539735.1094
 122033094.72346  95090810.66844  23222142.2424                   23222151.7934
 108306747.70948  84394947.85546  20610054.4534                   20610059.6024
 130511273.508 5                  24835454.430
 120023765.109 7  93525077.320 6  22839727.039
 110370470.89448  86003039.43946  21002769.8674                   21002777.5904
 11  7 26  1 45  0.0000000  0 10G12G05G25G04G27G09G02G28G17G10
 114449413.110 7  89181567.990 7  21779027.328
 119590568.989 7  93187541.663 7  22757302.938
 130067454.668 5 101351333.250 5  24751017.172
 110913733.37148  86426451.63846  21106165.2504                   21106173.1994
 123763279.33847  96439021.39844  23551386.6334                   23551396.2504
 122106605.20247  95148091.56244  23236130.5004                   23236140.4844
 108293506.16248  84384629.77946  20607534.7114                   20607539.5664
 130617699.71914                  24855706.164
 120074809.783 7  93564852.379 6  22849441.320
 110341986.33248  85980843.71146  20997349.1414                   20997356.5634
 11  7 26  1 45 30.0000000  0  9G12G05G25G04G27G09G02G17G10
 114378847.183 7  89126581.568 7  21765599.367
 119490031.713 6  93109201.030 6  22738171.859
 129963631.80714 101270432.40414  24731260.070
 110982644.15248  86480148.32346  21119278.7194                   21119286.8594
 123824717.53647  96486895.27544  23563076.9924                   23563087.0594
 122180394.68647  95205589.82444  23250172.0394                   23250181.6134
 108280600.50348  84374573.43746  20605079.1254                   20605084.1844
 120125994.270 7  93604736.364 6  22859180.898
 110314097.99648  85959112.57646  20992042.1954                   20992050.0944
 11  7 26  1 46  0.0000000  0  9G12G05G25G04G27G09G02G17G10
 114308643.991 7  89071877.785 7  21752240.422
 119389681.871 7  93031006.449 6  22719076.102
 129859905.90014 101189606.97214  24711520.961
 111051788.97748  86534027.40546  21132436.0864                   21132443.9454
 123886314.04147  96534892.49544  23574799.2194                   23574808.5634
 122254459.47547  95263302.55344  23264266.7114                   23264275.3834
 108268029.54348  84364777.91746  20602686.5394                   20602691.9734
 120177318.779 7  93644729.503 6  22868948.094
 110286806.93348  85937846.86446  20986849.2114                   20986857.0084
 11  7 26  1 46 30.0000000  0  9G12G05G25G04G27G09G02G17G10
 114238805.293 7  89017458.012 7  21738950.492
 119289521.815 7  92952959.723 6  22700016.172
                                  24691802.180
 111121164.95748  86588086.58546  21145637.9534                   21145646.1844
 123948065.44846  96583010.41544  23586549.9224                   23586560.0784
 122328795.42747  95321226.60544  23278412.0164                   23278420.8834
 108255791.80048  84355242.02846  20600357.8444                   20600363.3014
 120228783.458 7  93684831.832 6  22878741.508
 110260114.26048  85917047.43146  20981769.0394                   20981777.1414
 11  7 26  1 47  0.0000000  0  9G12G05G25G04G27G09G02G17G10
 114169333.985 7  88963324.542 7  21725730.344
 119189554.845 7  92875063.448 7  22680992.766
 129652752.127 5 101028188.400 5  24672102.305
 111190769.90748  86642324.19346  21158883.4304                   21158891.4534
 124009969.00046  96631246.90544  23598329.0394                   23598340.5004
 122403399.22047  95379359.40944  23292608.3054                   23292618.2544
 108243886.78148  84345965.43146  20598092.2034                   20598097.2854
 120280389.261 7  93725044.119 6  22888561.820
 110234021.41648  85896715.39346  20976804.1334                   20976811.6134
 11  7 26  1 47 30.0000000  0  9G12G05G25G04G27G09G02G17G10
 114100232.404 7  88909479.155 7  21712580.930
 119089783.869 6  92797319.970 6  22662006.773
 129549329.501 4 100947599.282 4  24652421.055
 111260601.55348  86696738.45946  21172172.4774                   21172180.3244
 124072022.11846  96679599.95444  23610137.0704                   23610148.7934
 122478267.45447  95437698.27844  23306856.0164                   23306865.5984
 108232313.46148  84336947.30646  20595890.3204                   20595895.3244
 120332136.517 7  93765366.608 6  22898409.148
 110208529.99548  85876851.99346  20971953.3834                   20971960.7154
 11  7 26  1 48  0.0000000  0  9G12G05G25G04G27G09G02G17G10
 114031502.932 7  88855923.736 7  21699501.664
 118990211.551 7  92719731.238 6  22643058.609
 129446012.778 4 100867092.701 5  24632760.102
 111330657.80348  86751327.74846  21185503.3594                   21185511.2664
 124134221.81346  96728067.20244  23621974.0784                   23621984.7074
 122553396.68547  95496240.53044  23321152.8204                   23321162.0354
 108221070.82648  84328186.81746  20593750.5314                   20593755.6644
 120384025.693 7  93805799.691 7  22908283.430
 110183641.11848  85857458.11746  20967216.7974                   20967224.3554
 11  7 26  1 48 30.0000000  0 10G12G05G25G04G27G09G02G28G17G10
 113963148.355 7  88802660.450 7  21686493.563
 118890841.167 7  92642299.831 7  22624148.891
 129342804.81714 100786670.85314  24613118.781
 111400936.62648  86806090.45745  21198876.9304                   21198884.9304
 124196565.66646  96776646.72244  23633837.8444                   23633848.4144
 122628783.74547  95554983.63744  23335497.9614                   23335507.8754
 108210158.37348  84319683.61146  20591674.0944                   20591679.3714
 131366278.29615                  24998161.938
 120436057.146 7  93846343.651 7  22918184.633
 110159356.37248  85838534.96046  20962595.4064                   20962603.1254
 11  7 26  1 49  0.0000000  0 10G12G05G25G04G27G09G02G28G17G10
 113895170.949 7  88749691.056 7  21673558.711
 118791675.343 7  92565027.849 7  22605278.555
 129239707.418 5 100706335.071 4  24593499.703
 111471435.09648  86861024.34246  21212292.6884                   21212300.8134
 124259050.30546  96825336.01544  23645728.0864                   23645738.9534
 122704424.74547  95613924.60544  23349892.1174                   23349902.0634
 108199574.71948  84311436.63846  20589659.5164                   20589665.2544
 131473709.105 5                  25018603.508
 120488231.148 7  93886998.701 6  22928113.805
 110135676.55148  85820083.19546  20958089.2034                   20958097.4414
 11  7 26  1 49 30.0000000  0 10G12G05G25G04G27G09G02G28G17G10
 113827573.118 7  88697017.430 7  21660695.211
 118692718.038 7  92487918.355 7  22586447.000
 129136723.876 5 100626088.197 5  24573902.547
 111542151.75448  86916128.23046  21225749.6254                   21225757.6764
 124321673.40846  96874133.19943  23657644.3054                   23657656.0274
 122780316.86947  95673061.25544  23364333.9064                   23364343.2114
 108189319.52848  84303445.61846  20587708.2814                   20587713.8834
 131581256.218 5                  25039073.281
 120540549.059 7  93927765.883 6  22938069.148
 110112603.63148  85802104.33546  20953698.6024                   20953706.7344
 11  7 26  1 50  0.0000000  0 10G12G05G25G04G27G09G02G28G17G10
 113760357.561 7  88644641.706 7  21647904.391
 118593971.571 7  92410973.148 7  22567656.031
 129033856.378 6 100545931.803 5  24554328.656
 111613084.32848  86971400.37446  21239247.4534                   21239255.7974
 124384432.13246  96923036.07543  23669587.2894                   23669598.1764
 122856456.58446  95732390.86643  23378822.2814                   23378832.2814
 108179391.75348  84295709.73346  20585819.3204                   20585824.7814
 131688917.34914                  25059563.047
 120593011.174 7  93968645.427 6  22948052.500
 110090138.59448  85784599.15246  20949423.7034                   20949431.0394
 11  7 26  1 50 30.0000000  0  9G12G05G25G04G27G09G02G17G10
 113693527.708 7  88592566.532 7  21635187.547
 118495439.359 7  92334194.906 7  22548906.344
 128931108.159 6 100465868.314 5  24534775.805
 111684231.00648  87026839.35146  21252786.2584                   21252794.6454
 124447324.40846  96972042.97043  23681556.0864                   23681565.7854
 122932840.81447  95791911.03143  23393358.2194                   23393367.2814
 108169791.15148  84288228.76546  20583992.0234                   20583997.0664
 120645618.184 7  94009637.929 7  22958063.086
 110068283.54148  85767569.27446  20945264.6564                   20945272.5984
 11  7 26  1 51  0.0000000  0  9G12G05G25G04G27G09G02G17G10
 113627085.093 7  88540793.095 7  21622543.773
 118397124.482 7  92257586.018 7  22530197.180
 128828481.214 6 100385899.332 5  24515246.336
 111755589.54147  87082443.42346  21266365.1724                   21266374.1134
 124510347.28846  97021151.69943  23693548.2344                   23693559.0704
 123009465.98347  95851618.90444  23407939.5004                   23407949.4694
 108160516.56548  84281001.81246  20582227.4694                   20582232.0394
 120698370.600 7  94050743.690 6  22968101.094
 110047039.31647  85751015.37846  20941222.0944                   20941229.7504
 11  7 26  1 51 30.0000000  0  9G12G05G25G04G27G09G02G17G10
 113561032.107 7  88489323.266 7  21609974.055
 118299029.595 7  92181148.528 7  22511530.406
 128725977.838 6 100306026.724 5  24495740.492
 111827157.31048  87138210.53745  21279984.1414                   21279992.3324
 124573497.71146  97070359.84643  23705566.7584                   23705576.1254
 123086328.35546  95911511.60643  23422565.9774                   23422576.0204
 108151567.00948  84274028.14446  20580524.5164                   20580529.5044
 120751268.731 7  94091963.023 7  22978167.602
 110026407.06848  85734938.32946  20937295.8364                   20937303.7544
 11  7 26  1 52  0.0000000  0  9G12G05G25G04G27G09G02G17G10
 113495371.134 7  88438158.900 7  21597479.328
 118201157.197 7  92104884.427 7  22492906.055
 128623600.301 6 100226252.055 5  24476258.188
 111898931.96848  87194138.86246  21293642.6094                   21293650.4494
 124636772.63146  97119664.94443  23717606.6094                   23717616.6414
 123163424.42747  95971586.40343  23437236.4774                   23437246.5234
 108142941.06448  84267306.65246  20578882.8054                   20578888.2114
 120804312.880 7  94133296.101 7  22988261.438
 110006387.34048  85719338.56245  20933486.1644                   20933493.4264
 11  7 26  1 52 30.0000000  0  9G12G05G25G04G27G09G02G17G10
 113430104.788 7  88387302.057 7  21585059.305
 118103510.822 7  92028796.439 7  22474324.695
 128521351.218 6 100146577.560 5  24456800.961
 111970911.45148  87250226.78346  21307339.4144                   21307347.5944
 124700169.62446  97169065.14143  23729671.0234                   23729681.3484
 123240751.00946  96031840.81343  23451951.2424                   23451960.6684
 108134638.03448  84260836.77846  20577303.0234                   20577308.1454
 120857503.447 6  94174743.252 7  22998383.070
 109986981.58548  85704217.22246  20929793.3914                   20929801.1094
 11  7 26  1 53  0.0000000  0  9G12G05G25G04G27G09G02G17G10
 113365235.406 7  88336754.529 7  21572715.281
 118006093.074 7  91952886.623 7  22455786.602
 128419233.048 6 100067005.049 5  24437368.898
 112043093.62348  87306472.65045  21321075.6884                   21321083.5984
 124763685.49646  97218558.05143  23741756.6564                   23741767.4574
 123318304.41546  96092271.99943  23466709.3204                   23466718.4264
 108126656.97148  84254617.79546  20575784.3834                   20575789.0594
 120910841.206 7  94216305.122 7  23008533.172
 109968190.74648  85689575.03845  20926217.7424                   20926225.5274
 11  7 26  1 53 30.0000000  0  9G12G05G25G04G27G09G02G17G10
 113300765.190 7  88286518.054 7  21560446.688
 117908906.900 7  91877157.243 7  22437292.094
 128317248.138 6  99987536.344 5  24417961.773
 112115476.05948  87362874.58145  21334849.5784                   21334857.0394
 124827317.49546  97268141.36843  23753865.7274                   23753876.7584
 123396081.19047  96152877.21644  23481511.0394                   23481520.2274
 108118996.53548  84248648.65246  20574326.2034                   20574331.1914
 120964326.555 6  94257982.002 7  23018711.016
 109950016.14448  85675413.05846  20922759.0944                   20922766.6684
 11  7 26  1 54  0.0000000  0  9G12G05G25G04G27G09G02G17G10
 113236696.922 7  88236594.781 7  21548254.711
 117811955.842 7  91801611.063 7  22418843.242
 128215399.578 6  99908173.838 5  24398580.516
 112188057.13848  87419431.30845  21348660.6954                   21348668.2154
 124891063.17046  97317813.24943  23765996.8204                   23766007.2624
 123474078.31247  96213654.17844  23496352.6644                   23496363.1054
 108111656.67348  84242929.29146  20572929.3754                   20572934.3164
 121017959.988 6  94299774.325 6  23028917.109
 109932459.17148  85661732.32046  20919418.0704                   20919426.0554
 11  7 26  1 54 30.0000000  0  9G12G05G25G04G27G09G02G17G10
 113173033.091 7  88186986.648 7  21536139.891
 117715242.575 7  91726250.183 7  22400439.508
 128113689.654 6  99828919.400 5  24379226.547
 112260834.73148  87476141.12545  21362509.8674                   21362518.6684
 124954919.79747  97367571.59843  23778148.4774                   23778158.7194
 123552292.13747  96274599.94344  23511236.6414                   23511246.4064
 108104636.24348  84237458.84046  20571593.3444                   20571598.6134
 121071742.132 7  94341682.501 6  23039151.305
 109915520.70248  85648533.53946  20916194.6254                   20916202.3094
 11  7 26  1 55  0.0000000  0  9G12G05G25G04G27G09G02G17G10
 113109775.832 7  88137695.342 7  21524102.445
 117618769.647 7  91651076.549 7  22382080.781
 128012120.617 6  99749774.713 5  24359898.297
 112333806.15848  87533001.98745  21376395.9144                   21376403.7704
 125018884.31147  97417414.03643  23790320.3054                   23790330.3874
 123630719.03247  96335711.75544  23526160.5164                   23526170.1254
 108097933.88848  84232236.24246  20570318.0554                   20570323.4924
 121125673.312 6  94383706.796 6  23049414.352
 109899200.94848  85635816.87245  20913089.7194                   20913097.1844
 11  7 26  1 55 30.0000000  0  9G12G05G25G04G27G09G02G17G10
 113046927.624 7  88088722.741 7  21512143.133
 117522540.660 7  91576093.022 7  22363769.336
 127910695.333 6  99670742.122 5  24340596.180
 112406969.68348  87590012.54245  21390318.6024                   21390326.4304
 125082954.14047  97467338.51343  23802512.5944                   23802523.0394
 123709355.70347  96396987.02244  23541125.4694                   23541133.9734
 108091549.07548  84227261.09046  20569102.9694                   20569108.4184
 121179754.220 7  94425847.769 6  23059705.305
 109883501.55048  85623583.61146  20910101.9454                   20910109.6024
 11  7 26  1 56  0.0000000  0  9G12G05G25G04G27G09G02G17G10
 112984491.007 7  88040070.891 7  21500261.891
 117426558.202 7  91501301.565 7  22345504.250
 127809416.340 6  99591823.465 6  24321324.063
 112480323.09148  87647171.04045  21404276.9844                   21404285.3914
 125147126.56346  97517342.93543  23814724.0944                   23814734.4804
 123788198.98447  96458423.29443  23556127.5314                   23556137.3594
 108085480.96948  84222532.72446  20567948.2664                   20567953.3524
 121233985.395 7  94468105.829 7  23070025.227
 109868423.32748  85611834.37746  20907232.4304                   20907240.0204
 11  7 26  1 56 30.0000000  0  9G12G05G25G04G27G09G02G17G10
 112922468.073 7  87991741.396 7  21488459.047
 117330825.116 7  91426704.447 7  22327286.352
 127708285.998 6  99513020.639 6  24302079.648
 112553863.98448  87704475.60845  21418271.6414                   21418280.0434
 125211398.59646  97567424.94843  23826954.6804                   23826965.5554
 123867245.19647  96520017.70544  23571170.1174                   23571180.0394
 108079727.90848  84218049.84246  20566853.2894                   20566858.7974
 121288366.916 7  94510481.044 6  23080373.148
 109853966.91148  85600569.65746  20904481.3204                   20904489.3014
 11  7 26  1 57  0.0000000  0  9G12G05G25G04G27G09G02G17G10
 112860861.025 7  87943735.946 7  21476735.758
 117235344.062 7  91352303.724 7  22309117.008
 127607306.784 6  99434335.508 6  24282864.891
 112627590.28448  87761924.68645  21432301.5234                   21432309.3164
 125275767.45146  97617582.41143  23839203.7584                   23839214.5234
 123946490.69847  96581767.39144  23586250.3674                   23586260.7974
 108074288.81648  84213811.60846  20565818.9064                   20565823.5004
 121342899.449 7  94552973.898 6  23090751.906
 109840133.40548  85589790.33646  20901849.2814                   20901857.0394
 11  7 26  1 57 30.0000000  0  9G12G05G25G04G27G09G02G17G10
 112799672.693 8  87896056.746 7  21465092.078
 117140118.612 7  91278102.172 7  22290996.453
 127506481.420 6  99355770.337 6  24263677.758
 112701500.10147  87819516.74045  21446366.0704                   21446373.9884
 125340230.63246  97667813.40043  23851470.2274                   23851481.5234
 124025932.23146  96643669.85844  23601367.4064                   23601376.9064
 108069163.26948  84209817.70146  20564843.4454                   20564848.2234
 121397583.615 7  94595584.957 6  23101157.086
 109826923.75948  85579497.12746  20899335.6644                   20899342.9224
 11  7 26  1 58  0.0000000  0  9G12G05G25G04G27G09G02G17G10
 112738905.174 7  87848705.469 7  21453528.617
 117045151.541 7  91204101.934 7  22272924.438
 127405812.423 6  99277327.031 6  24244520.766
 112775591.35748  87877250.17545  21460465.1884                   21460473.2734
 125404785.27346  97718115.63543  23863754.9144                   23863765.3794
 124105566.27346  96705722.26643  23616520.7344                   23616531.2974
 108064350.20848  84206067.29946  20563927.0314                   20563932.1994
 121452419.733 7  94638314.404 6  23111591.664
 109814338.59948  85569690.53646  20896940.5004                   20896948.0744
 11  7 26  1 58 30.0000000  0  9G12G05G25G04G27G09G02G17G10
 112678560.986 8  87801684.049 7  21442044.938
 116950445.864 7  91130305.371 7  22254902.781
 127305302.432 6  99199007.610 6  24225393.594
 112849861.88748  87935123.33045  21474597.9924                   21474606.0594
 125469428.46346  97768486.86943  23876055.7734                   23876066.3754
 124185389.73146  96767922.27444  23631710.5084                   23631721.6604
 108059848.51348  84202559.49946  20563070.5394                   20563075.8204
 121507408.275 7  94681162.633 6  23122056.148
 109802378.78148  85560371.21246  20894664.7344                   20894672.3954
 11  7 26  1 59  0.0000000  0  9G12G05G25G04G27G09G02G17G10
 112618642.335 8  87754994.226 7  21430643.000
 116856004.360 7  91056714.670 7  22236931.078
 127204954.074 7  99120814.112 6  24206298.914
 112924309.58548  87993134.51245  21488765.3284                   21488772.7584
 125534157.55346  97818925.05943  23888372.8444                   23888383.9614
 124265399.05046  96830267.15443  23646936.4924                   23646946.8834
 108055657.32948  84199293.65146  20562273.0164                   20562278.2274
 121562549.728 7  94724130.055 6  23132549.563
 109791045.30348  85551539.95945  20892507.5784                   20892515.4144
 11  7 26  1 59 30.0000000  0  9G12G05G25G04G27G09G02G17G10
 112559151.602 8  87708637.824 7  21419321.945
 116761830.096 7  90983332.214 7  22219010.398
 127104769.899 7  99042748.546 6  24187234.859
 112998932.47948  88051282.21145  21502965.3674                   21502972.9454
 125598969.75746  97869428.00443  23900707.0474                   23900718.6914
 124345590.73747  96892754.15643  23662196.7894                   23662206.1724
 108051775.75848  84196269.06746  20561534.2664                   20561540.1024
 121617844.603 7  94767216.968 6  23143071.477
 109780338.66348  85543197.15346  20890470.7034                   20890477.7464
 11  7 26  2  0  0.0000000  0  9G12G05G25G04G27G09G02G17G10
 112500091.096 8  87662616.663 7  21408083.219
 116667925.739 7  90910160.070 7  22201140.703
 127004752.163 6  98964812.719 6  24168201.039
 113073728.12648  88109564.53645  21517198.2504                   21517206.2114
 125663862.10846  97919993.37644  23913057.0554                   23913066.7774
 124425961.02446  96955380.26343  23677490.7894                   23677500.6134
 108048202.29148  84193484.59146  20560854.4064                   20560859.3754
 121673293.459 7  94810423.828 6  23153622.586
 109770259.29448  85535343.13146  20888552.4924                   20888559.3634
 11  7 26  2  0 30.0000000  0  9G12G05G25G04G27G09G02G17G10
 112441462.997 8  87616932.438 7  21396927.227
 116574294.574 7  90837200.798 7  22183323.547
 126904903.906 6  98887008.914 6  24149200.625
 113148694.85448  88167980.19445  21531463.7114                   21531472.4414
 125728832.10146  97970619.25144  23925420.0704                   23925430.1994
 124506507.01546  97018143.33643  23692817.7814                   23692828.2934
 108044936.51448  84190939.86246  20560232.7424                   20560238.1414
 121728896.668 7  94853750.976 7  23164203.891
 109760808.38648  85527978.80246  20886754.2664                   20886761.7274
 11  7 26  2  1  0.0000000  0  9G12G05G25G04G27G09G02G17G10
 112383269.585 8  87571586.930 7  21385852.578
 116480939.266 7  90764456.491 7  22165557.883
 126805227.638 7  98809339.060 5  24130233.242
 113223830.53648  88226527.47745  21545762.0634                   21545770.3834
 125793876.82546  98021303.41343  23937797.5864                   23937807.4264
 124587225.05446  97081040.46443  23708178.6174                   23708187.2624
 108041977.24348  84188633.94546  20559669.5164                   20559674.6524
 121784654.627 7  94897198.708 6  23174814.609
 109751986.48248  85521104.60046  20885075.6254                   20885083.1724
 11  7 26  2  1 30.0000000  0  9G12G05G25G04G27G09G02G17G10
 112325513.173 8  87526581.953 7  21374862.352
 116387862.946 7  90691929.562 7  22147846.516
 126705725.750 6  98731805.106 5  24111298.828
 113299132.97948  88285204.69145  21560092.0944                   21560099.5984
 125858993.58045  98072043.62543  23950187.9844                   23950199.3364
 124668111.79646  97144069.05243  23723571.0864                   23723578.7304
 108039323.42048  84186566.01846  20559164.6724                   20559169.7154
 121840568.025 6  94940767.573 6  23185453.898
 109743793.82048  85514720.72546  20883516.2894                   20883523.7624
 11  7 26  2  2  0.0000000  0  9G12G05G25G04G27G09G02G17G10
 112268196.107 8  87481919.315 7  21363954.922
 116295068.383 7  90619622.187 7  22130187.859
 126606400.904 6  98654409.215 5  24092397.141
 113374600.22748  88344010.33645  21574452.7274                   21574460.3874
 125924179.76846  98122837.94443  23962593.4844                   23962603.1914
 124749163.73246  97207226.39243  23738993.5164                   23739003.2034
 108036973.78848  84184735.12946  20558717.8984                   20558723.1174
 121896637.055 7  94984457.698 6  23196124.094
 109736231.24647  85508827.82645  20882077.0784                   20882084.5594
 11  7 26  2  2 30.0000000  0  9G12G05G25G04G27G09G02G17G10
 112211320.499 8  87437600.677 7  21353132.094
 116202557.942 7  90547536.213 7  22112583.938
 126507255.601 6  98577153.092 6  24073530.250
 113450229.98548  88402942.60545  21588844.4844                   21588852.7774
 125989432.27845  98173683.99743  23975009.7664                   23975021.3674
 124830377.27247  97270509.70944  23754448.7584                   23754458.6484
 108034927.11448  84183140.34146  20558328.2424                   20558333.1024
 121952862.248 7  95028269.522 6  23206823.266
 109729298.87448  85503425.99545  20880757.9224                   20880765.1884
 11  7 26  2  3  0.0000000  0  9G12G05G25G04G27G09G02G17G10
 112154889.132 8  87393628.213 7  21342393.609
 116110335.292 7  90475674.500 7  22095034.445
 126408292.673 6  98500039.159 6  24054697.648
 113526020.72548  88462000.30245  21603267.0314                   21603275.4264
 126054748.71445  98224579.76343  23987439.5554                   23987450.9654
 124911749.44046  97333916.52143  23769933.6724                   23769943.4844
 108033182.97948  84181781.31146  20557996.5554                   20558001.7304
 122009244.204 6  95072203.469 6  23217552.727
 109722997.78248  85498516.04146  20879558.9144                   20879565.9804
 11  7 26  2  3 30.0000000  0  9G12G05G25G04G27G09G02G17G10
 112098903.946 8  87350003.428 7  21331740.117
 116018403.118 7  90404039.123 7  22077540.086
 126309514.639 7  98423069.238 6  24035901.367
 113601969.96648  88521181.52545  21617719.8594                   21617728.0864
 126120126.02846  98275523.05543  23999880.9694                   23999891.7974
 124993276.48946  97397444.05543  23785447.4774                   23785457.1994
 108031740.08848  84180657.00146  20557721.3134                   20557726.6844
 122065783.382 6  95116259.979 6  23228311.703
 109717328.21247  85494098.21746  20878480.0474                   20878487.1524
 11  7 26  2  4  0.0000000  0  9G12G05G25G04G27G09G02G17G10
 112043367.052 8  87306727.939 7  21321171.625
 115926764.381 7  90332632.396 7  22060101.859
 126210924.148 7  98346245.510 6  24017141.055
 113678076.10648  88580485.01145  21632202.5944                   21632210.1294
 126185561.60646  98326511.70443  24012333.1254                   24012343.0004
 125074955.40746  97461089.89943  23800989.9924                   23800998.7934
 108030597.55048  84179766.71746  20557504.3674                   20557509.0784
 122122479.976 6  95160439.096 6  23239100.148
 109712290.81347  85490172.99346  20877521.1174                   20877529.0634
 11  7 26  2  4 30.0000000  0  9G12G05G25G04G27G09G02G17G10
 111988280.758 8  87263803.579 7  21310689.180
 115835421.785 7  90261456.424 7  22042719.914
 126112523.690 7  98269569.852 6  23998415.711
 113754336.74148  88639908.85645  21646713.5004                   21646722.1334
 126251052.51246  98377543.55443  24024794.5394                   24024805.8364
 125156782.21346  97524851.03443  23816561.7584                   23816571.3914
 108029753.83347  84179109.26746  20557343.6094                   20557348.6254
 122179334.541 6  95204741.319 6  23249920.180
 109707885.69447  85486740.44246  20876683.2734                   20876690.4574
 11  7 26  2  5  0.0000000  0  9G12G05G25G04G27G09G02G17G10
 111933647.056 8  87221231.894 7  21300292.828
 115744378.379 7  90190513.602 7  22025395.070
 126014316.092 7  98193044.462 6  23979728.141
 113830750.08648  88699451.69945  21661254.6334                   21661263.0164
 126316596.05946  98428616.36343  24037268.3054                   24037278.3874
 125238753.73446  97588724.91043  23832161.6484                   23832170.1684
 108029208.27647  84178684.16046  20557239.8834                   20557244.7074
 122236347.648 6  95249167.095 6  23260769.586
 109704113.52747  85483801.11846  20875965.3284                   20875972.6454
 11  7 26  2  5 30.0000000  0  9G12G05G25G04G27G09G02G17G10
 111879468.362 8  87179014.776 7  21289982.461
 115653636.892 7  90119806.024 7  22008127.469
 125916303.849 7  98116671.305 6  23961076.328
 113907314.29148  88759112.08245  21675824.4304                   21675832.1134
 126382189.41146  98479727.99343  24049749.7504                   24049760.0474
 125320866.70046  97652708.97943  23847786.8914                   23847796.0234
 108028959.90748  84178490.63346  20557192.3364                   20557197.8834
 122293519.661 6  95293716.677 6  23271648.797
 109700974.71847  85481355.31146  20875367.8754                   20875375.3674
 11  7 26  2  6  0.0000000  0  9G12G05G25G04G27G09G02G17G10
 111825747.110 7  87137154.088 7  21279759.555
 115563200.212 7  90049335.955 7  21990918.008
 125818489.698 6  98040452.478 6  23942462.211
 113984027.10948  88818888.28045  21690422.9064                   21690430.4104
 126447830.03946  98530876.35343  24062241.2894                   24062251.9184
 125403117.54046  97716800.54543  23863437.3444                   23863447.5864
 108029007.41348  84178527.66746  20557201.4694                   20557206.6254
 122350850.956 6  95338390.411 6  23282558.617
 109698469.69948  85479403.37646  20874891.0944                   20874898.6564
 11  7 26  2  6 30.0000000  0  9G12G05G25G04G27G09G02G17G10
 111772484.933 7  87095651.121 7  21269624.117
 115473071.284 7  89979105.686 7  21973766.641
 125720876.120 6  97964390.016 6  23923886.898
 114060886.59948  88878778.78345  21705049.0084                   21705057.0474
 126513515.12546  98582059.53242  24074739.3524                   24074751.0044
 125485503.04146  97780996.97243  23879114.7424                   23879125.4024
 108029349.75347  84178794.45346  20557266.6884                   20557272.1214
 122408342.072 6  95383188.651 6  23293498.133
 109696598.39547  85477945.24446  20874534.8594                   20874542.7234
 11  7 26  2  7  0.0000000  0  9G12G05G25G04G27G09G02G17G10
 111719684.278 7  87054507.814 7  21259576.398
 115383252.744 7  89909117.284 7  21956674.883
 125623465.997 6  97888486.036 6  23905351.586
 114137891.02348  88938782.19845  21719702.1094                   21719710.9144
 126579241.97156  98633275.11753  24087247.4534                   24087258.3674
 125568020.04346  97845295.87143  23894818.8754                   23894827.2304
 108029986.20348  84179290.38646  20557387.4844                   20557393.4804
 122465993.295 6  95428111.688 6  23304469.000
 109695361.31947  85476981.31946  20874299.6174                   20874307.0204
 11  7 26  2  7 30.0000000  0  9G12G05G25G04G27G09G02G17G10
 111667347.375 7  87013725.852 7  21249617.133
 115293747.668 7  89839373.131 7  21939642.156
 125526261.823 7  97812742.632 6  23886853.945
 114215038.11248  88998896.81145  21734382.4774                   21734390.7504
 126645007.86346  98684521.20843  24099763.4614                   24099773.1374
 125650664.69747  97909694.23343  23910544.9384                   23910553.8404
 108030915.40348  84180014.44246  20557564.2974                   20557569.9494
 122523805.240 6  95473159.930 6  23315470.023
 109694758.82747  85476511.87446  20874184.6174                   20874192.2154
 11  7 26  2  8  0.0000000  0  9G12G05G25G04G27G09G02G17G10
 111615476.217 8  86973306.807 7  21239746.641
 115204559.026 7  89769875.544 7  21922670.328
 125429266.163 7  97737161.689 6  23868395.922
 114292326.07548  89059121.16245  21749090.2584                   21749098.5474
 126710809.76146  98735795.36143  24112284.6954                   24112295.6994
 125733433.64246  97974189.49243  23926294.8364                   23926304.7154
 108032135.81348  84180965.41646  20557796.8204                   20557802.1254
 122581778.025 6  95518333.547 6  23326502.453
 109694790.78547  85476536.79545  20874190.8524                   20874198.5704
 11  7 26  2  8 30.0000000  0  9G12G05G25G04G27G09G02G17G10
 111564073.193 8  86933252.545 7  21229964.953
 115115689.321 7  89700626.508 7  21905759.211
 125332481.799 7  97661745.452 6  23849978.938
 114369753.01548  89119453.82945  21763823.9534                   21763832.5664
 126776645.27246  98787095.72143  24124813.4694                   24124824.4304
 125816323.74146  98038779.09943  23942068.0164                   23942079.1454
 108033647.01548  84182142.97746  20558084.0784                   20558089.4804
 122639912.207 6  95563632.913 6  23337564.688
 109695457.79747  85477056.56146  20874317.9304                   20874325.0204
 11  7 26  2  9  0.0000000  0  9G12G05G25G04G27G09G02G17G10
 111513140.206 7  86893564.559 7  21220272.469
 115027141.653 7  89631628.423 7  21888908.305
 125235911.456 7  97586495.951 6  23831601.914
 114447316.89848  89179893.20945  21778584.2194                   21778592.3204
 126842511.63846  98838420.11643  24137347.4224                   24137357.3404
 125899331.35546  98103460.30042  23957863.0474                   23957874.4924
 108035447.80448  84183546.19946  20558427.3444                   20558432.7424
 122698208.397 6  95609058.533 6  23348658.313
 109696759.93148  85478071.22246  20874565.7584                   20874573.0594
 11  7 26  2  9 30.0000000  0  9G12G05G25G04G27G09G02G17G10
 111462679.151 7  86854244.284 7  21210670.172
 114938918.668 7  89562883.301 7  21872120.523
 125139557.604 7  97511415.188 6  23813265.648
 114525015.86548  89240437.85945  21793369.9534                   21793377.9774
 126908406.04946  98889766.38343  24149885.8594                   24149896.6414
 125982453.48546  98168230.73343  23973680.6564                   23973691.5394
 108037537.35048  84185174.42346  20558824.5004                   20558829.6334
 122756666.950 7  95654610.689 6  23359782.844
 109698697.23748  85479580.82746  20874934.3594                   20874941.5394
 11  7 26  2 10  0.0000000  0  9G12G05G25G04G27G09G02G17G10
 111412692.407 8  86815293.605 7  21201158.047
 114851023.165 7  89494393.386 7  21855394.461
 125043422.891 7  97436505.106 6  23794971.648
 114602848.01348  89301086.29945  21808180.5084                   21808188.6334
 126974325.98346  98941132.52943  24162430.5704                   24162441.3444
 126065686.58046  98233087.67543  23989520.2734                   23989530.7934
 108039914.01748  84187026.39046  20559277.3984                   20559282.0514
 122815287.974 7  95700289.406 6  23370937.359
 109701269.69648  85481585.34746  20875423.8284                   20875431.4024
 11  7 26  2 10 30.0000000  0  9G12G05G25G04G27G09G02G17G10
 111363181.440 8  86776713.672 7  21191736.141
 114763458.022 7  89426160.873 7  21838731.352
 124947509.906 7  97361767.839 6  23776719.633
 114680811.47748  89361837.05745  21823016.3204                   21823024.7234
 127040268.36146  98992516.17443  24174979.0864                   24174990.0204
 126149027.09246  98298028.26643  24005380.5004                   24005389.9734
 108042576.69648  84189101.23346  20559783.4844                   20559788.7734
 122874071.892 6  95746095.065 6  23382123.914
 109704477.40548  85484084.88145  20876034.4224                   20876041.7194
 11  7 26  2 11  0.0000000  0  9G12G05G25G04G27G09G02G17G10
 111314148.746 8  86738506.406 7  21182405.750
 114676226.266 7  89358188.121 7  21822131.688
 124851821.368 7  97287205.480 6  23758510.648
 114758904.22547  89422688.53945  21837876.9144                   21837885.1374
 127106230.62746  99043915.31243  24187530.9224                   24187541.1914
 126232471.93747  98363050.17443  24021259.0634                   24021268.2194
 108045524.49848  84191398.25446  20560344.3284                   20560349.9454
 122933019.492 7  95792028.252 6  23393340.938
 109708320.52647  85487079.53846  20876765.3834                   20876772.8134
 11  7 26  2 11 30.0000000  0  9G12G05G25G04G27G09G02G17G10
 111265596.729 8  86700673.685 7  21173166.273
 114589330.502 7  89290477.176 7  21805596.117
 124756360.053 7  97212820.135 6  23740345.867
 114837124.46647  89483639.36845  21852761.8054                   21852770.6094
 127172210.03445  99095327.77043  24200086.2344                   24200098.1484
 126316017.84247  98428150.83343  24037157.1884                   24037167.0744
 108048756.61048  84193916.80746  20560959.0784                   20560964.9064
 122992131.060 6  95838089.196 6  23404589.789
 109712799.00647  85490569.28446  20877618.0784                   20877624.8444
 11  7 26  2 12  0.0000000  0  9G12G05G25G04G27G09G02G17G10
 111217527.019 8  86663216.783 7  21164019.117
 114502773.282 7  89223030.071 7  21789124.484
 124661128.623 7  97138613.937 6  23722223.125
 114915470.34448  89544688.10545  21867670.2814                   21867679.0164
 127238204.05446  99146751.64543  24212643.8834                   24212655.5204
 126399661.34947  98493327.64143  24053073.4924                   24053084.3164
 108052271.81348  84196655.95346  20561627.9774                   20561634.0394
 123051406.868 7  95884278.119 6  23415869.648
 109717913.08048  85494554.28746  20878591.0474                   20878597.9774
 11  7 26  2 12 30.0000000  0  9G12G05G25G04G27G09G02G17G10
 111169941.518 8  86626137.198 7  21154963.477
 114416557.216 7  89155848.789 7  21772718.180
 124566129.547 7  97064588.766 6  23704145.844
 114993939.98148  89605833.28445  21882602.8444                   21882610.7274
 127304209.77446  99198184.61443  24225206.1564                   24225216.1174
 126483398.94847  98558577.63143  24069009.2194                   24069019.0784
 108056068.72747  84199614.60046  20562350.6954                   20562356.5124
 123110847.140 7  95930595.220 6  23427181.000
 109723662.58047  85499034.44246  20879685.3444                   20879692.0514
 11  7 26  2 13  0.0000000  0  9G12G05G25G04G27G09G02G17G10
 111122842.732 8  86589436.860 7  21146001.148
 114330685.822 7  89088936.064 7  21756377.289
 124471365.612 7  96990746.856 6  23686112.313
 115072531.40848  89667073.36945  21897558.4304                   21897566.3594
 127370224.50445  99249624.66542  24237766.9534                   24237778.7624
 126567227.45546  98623898.53144  24084960.6644                   24084970.3634
 108060146.10848  84202791.78946  20563126.8674                   20563132.5084
 123170452.369 6  95977040.857 6  23438523.828
 109730047.30547  85504009.59046  20880899.9534                   20880907.3714
 11  7 26  2 13 30.0000000  0  9G12G05G25G04G27G09G02G17G10
 111076232.470 8  86553117.191 7  21137131.391
 114245161.695 7  89022293.968 7  21740102.977
 124376839.566 7  96917090.318 6  23668124.375
 115151242.89947  89728407.02445  21912537.0004                   21912544.4574
 127436245.76555  99301069.83852  24250330.5004                   24250342.2074
 126651143.79446  98689287.86443  24100929.2664                   24100940.3834
 108064503.09248  84206186.86246  20563955.7034                   20563960.8954
 123230222.969 7  96023615.321 6  23449897.305
 109737067.28148  85509479.72646  20882235.5784                   20882243.1024
 11  7 26  2 14  0.0000000  0  9G12G05G25G04G27G09G02G17G10
 111030112.766 8  86517179.756 7  21128355.484
 114159987.751 7  88955924.703 7  21723894.641
 124282554.226 7  96843621.264 6  23650182.961
 115230072.74248  89789832.89245  21927537.0164                   21927545.1724
 127502270.97055  99352517.97952  24262894.4144                   24262907.2854
 126735144.25546  98754742.77043  24116913.8834                   24116925.0554
 108069139.04647  84209799.30846  20564838.2894                   20564843.2034
 123290159.684 7  96070319.310 6  23461302.492
 109744722.56447  85515444.89546  20883692.3754                   20883699.5664
 11  7 26  2 14 30.0000000  0  9G12G05G25G04G27G09G02G17G10
 110984485.134 8  86481625.761 7  21119672.711
 114075166.366 7  88889830.167 7  21707753.367
 124188511.910 7  96770341.666 6  23632287.172
 115309018.97947  89851349.44245  21942560.3834                   21942568.9844
 127568296.73755  99403966.57952  24275458.4224                   24275470.7664
 126819225.54547  98820260.69743  24132914.9144                   24132924.0784
 108074052.45548  84213627.97346  20565773.2974                   20565778.0634
 123350262.472 7  96117152.635 6  23472739.688
 109753012.50647  85521904.62246  20885270.1334                   20885277.5864
 11  7 26  2 15  0.0000000  0  9G12G05G25G04G27G09G02G17G10
 110939351.558 8  86446456.746 7  21111083.672
 113990700.062 7  88824012.338 7  21691680.148
 124094715.299 7  96697253.486 6  23614437.758
 115388079.63547  89912955.16945  21957604.9384                   21957613.3284
 127634320.71745  99455413.83142  24288023.1644                   24288034.4104
 126903384.60146  98885839.10343  24148928.6564                   24148938.3834
 108079241.89248  84217671.72246  20566760.3984                   20566765.8794
 123410531.527 7  96164115.566 6  23484208.516
 109761936.96148  85528858.76246  20886968.1024                   20886975.8404
 11  7 26  2 15 30.0000000  0  9G12G05G25G04G27G09G02G17G10
 110894714.277 8  86411674.463 7  21102589.953
 113906591.567 7  88758473.289 7  21675674.633
 124001167.065 7  96624358.832 6  23596636.844
 115467252.93647  89974648.66745  21972671.6804                   21972679.3054
 127700340.06646  99506857.46543  24300586.3444                   24300597.8054
 126987617.70946  98951475.27643  24164957.9064                   24164967.6254
 108084706.37448  84221929.78846  20567800.3134                   20567806.0744
 123470967.532 6  96211208.508 6  23495709.133
 109771496.00248  85536307.38346  20888786.9534                   20888794.2854
 11  7 26  2 16  0.0000000  0  9G12G05G25G04G27G09G02G17G10
 110850575.315 8  86377280.480 7  21094190.422
 113822843.990 8  88693215.506 7  21659737.898
 123907870.046 6  96551659.953 6  23578881.773
 115546537.11847  90036428.55345  21987758.9694                   21987767.0044
 127766352.49246  99558295.69743  24313148.5864                   24313158.9344
 127071921.61847  99017166.60744  24181001.4144                   24181011.5474
 108090444.74048  84226401.24646  20568892.4534                   20568897.6334
 123531570.715 6  96258431.787 6  23507241.438
 109781689.29848  85544250.22345  20890727.1804                   20890734.7854
 11  7 26  2 16 30.0000000  0  9G12G05G25G04G27G09G02G17G10
 110806936.090 8  86343275.902 7  21085885.797
 113739459.885 7  88628240.921 7  21643870.461
 123814826.973 7  96479158.935 6  23561176.578
 115625930.51447  90098293.57645  22002866.7814                   22002874.2774
 127832355.04746  99609726.25143  24325708.1484                   24325719.2544
 127156293.27547  99082910.72344  24197056.2424                   24197066.4454
 108096456.10648  84231085.44646  20570036.4144                   20570041.8324
 123592341.382 6  96305785.557 6  23518805.375
 109792516.35848  85552686.90946  20892787.5944                   20892794.8914
 11  7 26  2 17  0.0000000  0  9G12G05G25G04G27G09G02G17G10
 110763798.536 8  86309662.240 7  21077676.828
 113656441.754 7  88563551.519 7  21628072.852
 123722040.231 7  96406857.630 6  23543520.000
 115705431.09547  90160242.12845  22017995.4064                   22018002.8984
 127898345.16246  99661147.07043  24338265.4844                   24338276.9104
 127240729.15046  99148704.89344  24213123.9064                   24213133.7774
 108102739.09248  84235981.29646  20571232.2274                   20571237.3054
 123653279.806 6  96353270.032 6  23530402.711
 109803976.80148  85561617.13746  20894967.9534                   20894975.7774
 11  7 26  2 17 30.0000000  0  9G12G05G25G04G27G09G02G17G10
 110721164.488 8  86276440.932 7  21069564.250
 113573792.541 7  88499149.606 7  21612344.836
 123629512.724 7  96334758.306 6  23525912.883
 115785037.19247  90222272.89445  22033143.1804                   22033151.4064
 127964320.01046  99712556.06843  24350819.3984                   24350831.5984
 127325226.20746  99214546.71844  24229202.7274                   24229213.2504
 108109292.77548  84241088.07646  20572478.8444                   20572484.1414
 123714386.554 6  96400885.685 6  23542030.633
 109816070.59648  85571040.88746  20897269.3364                   20897276.7544
 11  7 26  2 18  0.0000000  0  9G12G05G25G04G27G09G02G17G10
 110679036.247 8  86243613.743 7  21061547.500
 113491514.904 7  88435037.200 7  21596687.398
 123537247.141 7  96262863.083 6  23508355.102
 115864747.13847  90284384.55545  22048311.2114                   22048319.7664
 128030277.14846  99763951.17443  24363371.0864                   24363382.5664
 127409781.25846  99280433.76143  24245293.3754                   24245304.1214
 108116116.14748  84246405.01146  20573777.3204                   20573782.6414
 123775661.880 7  96448632.683 6  23553691.547
 109828797.50848  85580957.96945  20899691.5784                   20899698.9384
 11  7 26  2 18 30.0000000  0  9G12G05G25G04G27G09G02G17G10
 110637415.267 8  86211181.846 7  21053627.297
 113409611.278 7  88371216.254 7  21581101.516
 123445245.986 7  96191173.912 6  23490848.383
 115944559.08647  90346575.68045  22063499.2424                   22063507.4494
 128096213.74945  99815330.27643  24375917.4534                   24375930.8554
 127494390.86546  99346363.33543  24261394.0784                   24261404.0824
 108123207.94548  84251931.11646  20575126.7664                   20575131.7544
 123837106.057 6  96496511.298 6  23565383.203
 109842156.65548  85591367.69845  20902233.4924                   20902241.1254
 11  7 26  2 19  0.0000000  0  9G12G05G25G04G27G09G02G17G10
 110596303.469 8  86179146.703 7  21045803.742
 113328084.665 7  88307689.078 7  21565588.516
 123353512.000 7  96119692.904 6  23473391.914
 116024471.04947  90408844.76145  22078706.5314                   22078714.2774
 128162127.20946  99866691.34843  24388461.5784                   24388473.0744
 127579051.71446  99412332.81243  24277504.2734                   24277514.5204
 108130566.66148  84257665.20846  20576527.5944                   20576532.3794
 123898719.475 6  96544521.777 6  23577108.625
 109856147.78448  85602269.90046  20904895.5944                   20904903.1484
 11  7 26  2 19 30.0000000  0  9G12G05G25G04G27G09G02G17G10
 110555702.620 8  86147509.701 7  21038077.813
 113246937.358 7  88244457.470 7  21550146.109
 123262047.707 7  96048422.076 6  23455987.047
 116104481.59547  90471190.69145  22093932.0944                   22093940.1684
 128228014.82446  99918032.33243  24401000.2664                   24401011.3794
 127663760.38246  99478339.55143  24293624.5004                   24293634.5634
 108138191.17348  84263606.38646  20577978.4064                   20577983.2894
 123960502.238 7  96592664.205 6  23588864.891
 109870770.37648  85613664.13445  20907678.3984                   20907685.9144
 11  7 26  2 20  0.0000000  0  9G12G05G25G04G27G09G02G17G10
 110515614.569 8  86116272.297 7  21030449.172
 113166172.248 7  88181523.672 7  21534777.133
 123170856.015 7  95977363.621 6  23438633.422
 116184588.88747  90533611.97445  22109175.7814                   22109183.5904
 128293874.16745  99969351.23343  24413531.8364                   24413543.7464
 127748513.81146  99544381.23743  24309753.3204                   24309761.9264
 108146080.63748  84269754.04046  20579479.3364                   20579484.5044
 124022454.659 6  96640938.859 6  23600654.250
 109886024.07948  85625550.15946  20910580.8754                   20910588.7234
 11  7 26  2 20 30.0000000  0  9G12G05G25G04G27G09G02G17G10
 110476041.224 8  86085435.960 7  21022918.563
 113085792.151 7  88118889.886 7  21519481.219
 123079939.799 6  95906519.816 6  23421332.711
 116264791.50147  90596107.54345  22124437.7664                   22124444.6604
 128359702.66646 100020646.10343  24426059.6174                   24426070.6764
 127833309.09346  99610455.44843  24325888.2424                   24325898.5124
 108154234.51348  84276107.72846  20581031.1414                   20581036.0354
 124084577.466 6  96689346.224 6  23612476.008
 109901908.85948  85637927.93246  20913603.8984                   20913611.6024
 11  7 26  2 21  0.0000000  0  9G12G05G25G04G27G09G02G17G10
 110436983.938 8  86055001.735 7  21015486.258
 113005799.415 7  88056557.924 7  21504258.906
 122989301.352 6  95835892.459 6  23404084.203
 116345087.42547  90658675.80645  22139717.1414                   22139725.1134
 128425497.27545 100071914.56442  24438578.7664                   24438590.6684
 127918142.53246  99676559.42343  24342031.8524                   24342042.1604
 108162650.74948  84282665.88046  20582632.7274                   20582637.5314
 124146870.567 6  96737886.323 6  23624329.500
 109918423.60247  85650796.59046  20916746.1804                   20916754.0274
 11  7 26  2 21 30.0000000  0  9G12G05G25G04G27G09G02G17G10
 110398444.709 8  86024971.203 7  21008152.828
 112926196.738 7  87994529.923 7  21489111.305
 122898943.481 6  95765483.760 6  23386889.227
 116425474.83547  90721315.37145  22155014.6484                   22155022.7734
 128491255.38645 100123154.58343  24451093.0554                   24451104.4344
 128003010.86946  99742690.58543  24358180.4774                   24358191.6374
 108171328.53848  84289427.80946  20584283.9144                   20584288.9024
 124209334.785 6  96786559.732 6  23636215.781
 109935567.79447  85664155.72546  20920009.0704                   20920016.5394
 11  7 26  2 22  0.0000000  0  9G12G05G25G04G27G09G02G17G10
 110360425.240 8  85995345.676 7  21000917.406
 112846986.634 7  87932807.795 7  21474038.211
 122808869.000 7  95695295.853 6  23369749.328
 116505952.30847  90784025.10345  22170328.9844                   22170337.0124
 128556974.62045 100174364.32342  24463598.3984                   24463610.8984
 128087911.05246  99808846.56443  24374337.3754                   24374347.6484
 108180266.70348  84296392.63046  20585985.0314                   20585989.8554
 124271969.878 6  96835366.251 6  23648134.641
 109953340.97848  85678004.98646  20923390.7194                   20923398.2704
 11  7 26  2 22 30.0000000  0  9G12G05G25G04G27G09G02G17G10
 110322927.404 8  85966126.601 7  20993782.367
 112768172.145 7  87871393.978 7  21459039.844
 122719080.763 7  95625331.032 6  23352663.680
 116586518.22147  90846803.74645  22185660.5234                   22185668.5044
 128622652.35845 100225541.70442  24476096.4924                   24476109.0044
 128172839.91046  99875024.93643  24390498.9064                   24390509.3284
 108189464.44948  84303559.72946  20587735.1094                   20587740.0984
 124334776.639 6  96884306.612 6  23660087.359
 109971742.59347  85692343.94546  20926892.6414                   20926899.8054
 11  7 26  2 23  0.0000000  0  9G12G05G25G04G27G09G02G17G10
 110285952.368 8  85937314.916 7  20986746.039
 112689755.100 7  87810289.852 7  21444117.922
 122629580.888 7  95555590.897 6  23335632.555
 116667170.55947  90909649.72245  22201008.2344                   22201016.4734
 128688285.77545 100276684.42442  24488586.3674                   24488598.2304
 128257793.82246  99941222.79643  24406665.7114                   24406674.7304
 108198920.00848  84310927.69546  20589534.6804                   20589539.4264
 124397754.832 7  96933380.548 6  23672071.031
 109990771.74748  85707171.87846  20930513.9384                   20930521.1374
 11  7 26  2 23 30.0000000  0  9G12G05G25G04G27G09G02G17G10
 110249501.901 8  85908911.994 7  20979809.734
 112611738.168 7  87749497.490 7  21429271.094
 122540372.209 7  95486077.666 6  23318656.328
 116747907.77247  90972561.84245  22216371.0944                   22216379.6884
 128753872.42745 100327790.85342  24501067.8054                   24501079.1914
 128342769.91846 100007437.91343  24422834.5554                   24422845.9104
 108208632.36148  84318495.77046  20591382.7344                   20591387.6454
 124460904.780 6  96982588.297 6  23684088.016
 110010427.57248  85722488.13846  20934253.9774                   20934261.3984
 11  7 26  2 24  0.0000000  0  9G12G05G25G04G27G09G02G17G10
 110213577.375 8  85880918.873 7  20972973.188
 112534124.094 7  87689019.041 7  21414502.039
 122451457.376 7  95416793.419 6  23301736.250
 116828728.13747  91035538.74445  22231750.6644                   22231759.1804
 128819409.58245 100378858.72542  24513539.9144                   24513551.5314
 128427764.94646 100073667.84443  24439010.1484                   24439019.8984
 108218600.30348  84326263.01746  20593279.6174                   20593284.2814
 124524226.595 6  97031929.970 6  23696137.445
 110030709.26448  85738292.07245  20938113.5314                   20938121.1374
 11  7 26  2 24 30.0000000  0  9G12G05G25G04G27G09G02G17G10
 110178180.578 8  85853336.966 7  20966237.586
 112456915.485 7  87628856.526 7  21399809.914
 122362839.106 7  95347740.311 6  23284872.414
 116909630.00447  91098579.16345  22247146.0704                   22247154.0164
 128884894.648 6                  24525999.641
 128512775.91246 100139910.07942  24455186.8054                   24455197.2934
 108228822.91748  84334228.71146  20595224.7814                   20595229.5784
 124587720.832 6  97081405.992 6  23708220.930
 110051616.29548  85754583.29646  20942091.9384                   20942099.7974
 11  7 26  2 25  0.0000000  0  9G12G05G25G04G27G09G02G17G10
 110143313.732 8  85826168.018 7  20959602.641
 112380114.960 7  87569012.013 7  21385195.273
 122274520.322 7  95278920.608 6  23268065.852
 116990611.98647  91161682.02145  22262556.7584                   22262564.2464
 128950325.347 6                  24538452.289
 128597799.39345 100206162.12042  24471365.2664                   24471375.7624
 108239299.27348  84342392.10246  20597218.5394                   20597223.5944
 124651387.727 6  97131016.591 6  23720336.547
 110073148.18848  85771361.41945  20946189.3134                   20946196.8364
 11  7 26  2 25 30.0000000  0  9G12G05G25G04G27G09G02G17G10
 110108977.782 8  85799412.747 7  20953068.156
 112303724.971 7  87509487.398 7  21370658.297
 122186503.413 7  95210336.128 6  23251317.461
 117071672.33647  91224845.92044  22277981.8524                   22277989.7704
 129015698.70046 100531836.14652  24550890.7584                   24550902.5554
 128682832.21246 100272421.38743  24487546.5394                   24487557.7624
 108250027.86748  84350752.05346  20599259.6024                   20599265.0944
 124715227.687 6  97180762.025 6  23732483.891
 110095304.05848  85788625.75146  20950405.4924                   20950413.0634
 11  7 26  2 26  0.0000000  0  9G12G05G25G04G27G09G02G17G10
 110075174.357 8  85773072.426 7  20946635.961
 112227747.824 7  87450284.480 7  21356200.500
 122098791.107 7  95141988.965 7  23234625.734
 117152809.50047  91288069.68345  22293421.9844                   22293429.9104
 129081012.30746 100582729.91042  24563320.4774                   24563332.3834
 128767871.13046 100338685.48943  24503729.0554                   24503739.7664
 108261007.70448  84359307.78746  20601349.0474                   20601354.2424
 124779240.929 6  97230642.477 6  23744665.063
 110118082.82848  85806375.46046  20954740.3204                   20954747.5784
 11  7 26  2 26 30.0000000  0  9G12G05G25G04G27G09G02G17G10
 110041905.178 8  85747148.417 7  20940305.242
 112152186.146 7  87391405.288 7  21341821.414
 122011386.149 7  95073881.315 6  23217992.953
 117234021.80347  91351352.01244  22308875.8834                   22308883.6254
 129146263.70946 100633575.13242  24575737.3594                   24575748.9964
 128852913.12546 100404951.96142  24519912.5394                   24519922.1844
 108272237.50248  84368058.29046  20603486.0704                   20603491.3954
 124843427.491 6  97280657.993 6  23756879.711
 110141483.85047  85824610.03645  20959193.2894                   20959200.5514
 11  7 26  2 27  0.0000000  0  9G12G05G25G04G27G09G02G17G10
 110009171.823 8  85721641.917 7  20934076.047
 112077042.579 7  87332851.909 7  21327522.367
 121924291.157 7  95006015.200 6  23201419.813
 117315307.87247  91414691.82644  22324344.4534                   22324351.9184
 129211450.22746 100684369.74342  24588141.9144                   24588153.5434
 128937954.99046 100471218.26142  24536094.6484                   24536104.6644
 108283716.17948  84377002.72546  20605670.4614                   20605675.6844
 124907787.727 6  97330808.858 5  23769127.211
 110165506.27247  85843328.83246  20963764.3524                   20963771.5084
 11  7 26  2 27 30.0000000  0  9G12G05G25G04G27G09G02G17G10
 109976975.693 8  85696554.037 7  20927949.758
 112002319.337 7  87274626.052 7  21313302.609
 121837508.681 7  94938392.629 6  23184905.367
 117396665.88347  91478087.68344  22339826.1564                   22339833.9694
 129276569.17946 100735111.72643  24600533.5944                   24600545.5204
 129022993.75146 100537482.24843  24552277.6644                   24552287.0394
 108295442.75148  84386140.31746  20607901.9614                   20607906.8874
 124972321.942 6  97381095.264 6  23781407.547
 110190149.10247  85862531.06045  20968453.9144                   20968460.5664
 11  7 26  2 28  0.0000000  0  9G12G05G25G04G27G09G02G17G10
 109945318.654 8  85671886.234 7  20921925.195
 111928019.064 7  87216729.793 7  21299163.531
 121751041.616 7  94871015.808 6  23168450.625
 117478094.29247  91541538.41145  22355321.7814                   22355329.5824
 129341618.15746 100785799.18843  24612911.6094                   24612924.1724
 129108026.37346 100603741.32743  24568459.4774                   24568469.7704
 108307416.19748  84395470.28146  20610180.2584                   20610185.6024
 125037030.403 6  97431517.477 6  23793721.133
 110215411.52247  85882216.10746  20973261.0864                   20973267.6294
 11  7 26  2 28 30.0000000  0  9G12G05G25G04G27G09G02G17G10
 109914201.082 8  85647638.783 7  20916003.977
 111854144.082 7  87159164.918 7  21285105.820
 121664892.299 7  94803886.571 7  23152057.156
 117559591.54547  91605042.75645  22370830.0704                   22370837.6684
 129406594.52946 100836430.02942  24625277.4224                   24625288.3014
 129193049.35546 100669992.98043  24584637.8754                   24584648.7114
 108319634.98748  84404991.42546  20612505.6484                   20612510.5944
 125101913.181 7  97482075.516 6  23806068.117
 110241292.35248  85902383.02445  20978186.0084                   20978193.2894
 11  7 26  2 29  0.0000000  0  9G12G05G25G04G27G09G02G17G10
 109883625.173 8  85623813.419 7  20910185.414
 111780696.802 7  87101933.334 7  21271128.703
 121579063.565 7  94737007.118 6  23135724.805
 117641156.02447  91668599.51045  22386351.1094                   22386358.8954
 129471495.90146 100887002.44842  24637627.0314                   24637637.7584
 129278059.73546 100736234.78943  24600815.3134                   24600825.5904
 108332097.74748  84414702.68046  20614877.2344                   20614882.3244
 125166970.243 7  97532769.363 6  23818447.078
 110267790.83448  85923031.21445  20983228.4694                   20983235.6334
 11  7 26  2 29 30.0000000  0  9G12G05G25G04G27G09G02G17G10
 109853592.290 8  85600411.187 7  20904470.461
 111707679.508 7  87045036.771 7  21257234.414
 121493557.891 7  94670379.406 6  23119453.328
 117722786.19547  91732207.46645  22401885.3594                   22401892.6134
 129536319.65146 100937514.39643  24649965.0474                   24649974.8634
 129363054.20846 100802464.20743  24616990.2504                   24616999.8984
 108344803.80448  84424603.52346  20617295.3134                   20617299.7584
 125232202.405 7  97583599.637 6  23830860.695
 110294905.58147  85944159.62345  20988388.2584                   20988395.3364
 11  7 26  2 30  0.0000000  0  9G12G05G25G04G27G09G02G17G10
 109824103.734 8  85577433.104 7  20898858.617
 111635094.639 8  86988477.195 7  21243421.977
 121408377.854 7  94604005.461 6  23103243.555
 117804480.65947  91795865.52144  22417430.6254                   22417438.6804
 129601063.19445 100987963.85642  24662283.1884                   24662294.9774
 129448029.77946 100868678.89743  24633159.7664                   24633169.9734
 108357751.61148  84434692.76346  20619759.0864                   20619763.5044
 125297609.451 6  97634566.165 6  23843307.438
 110322635.37647  85965767.30846  20993664.8524                   20993672.1414
 11  7 26  2 30 30.0000000  0  9G12G05G25G04G27G09G02G17G10
 109795161.197 8  85554880.497 7  20893351.461
 111562945.000 8  86932256.742 7  21229692.547
 121323526.706 7  94537887.774 7  23087096.953
 117886237.98547  91859572.55244  22432988.1644                   22432996.6134
                                  24674584.1484                   24674599.1254
 129532983.76446 100934876.79143  24649325.9774                   24649335.9654
 108370940.77448  84444970.07346  20622268.4924                   20622273.4734
 125363191.964 6  97685669.403 6  23855787.047
 110350980.02448  85987854.06746  20999059.2114                   20999066.1054
 11  7 26  2 31  0.0000000  0  9G12G05G25G04G27G09G02G17G10
 109766765.763 8  85532754.212 7  20887947.672
 111491232.658 8  86876377.033 7  21216046.313
 121239006.637 7  94472028.014 7  23071012.961
 117968056.60947  91923327.32744  22448558.5864                   22448566.0664
 129730300.11814                  24686879.125
 129617912.69146 101001055.14343  24665487.3134                   24665497.9304
 108384369.79248  84455434.27346  20624824.0234                   20624828.9454
 125428949.834 6  97736909.318 6  23868300.820
 110379937.95648  86010418.71946  21004569.3674                   21004576.4844
 11  7 26  2 31 30.0000000  0  8G12G05G25G04G09G02G17G10
 109738919.090 8  85511055.521 7  20882648.711
 111419960.477 8  86820840.326 7  21202482.719
 121154820.578 7  94406428.524 6  23054992.891
 118049935.12047  91987128.79044  22464139.1174                   22464147.0984
 129702813.70246 101067211.73343  24681642.9224                   24681654.8204
 108398038.38948  84466085.14546  20627425.0864                   20627429.4654
 125494883.575 6  97788286.210 6  23880846.781
 110409508.25048  86033460.52246  21010196.3594                   21010203.5594
 11  7 26  2 32  0.0000000  0  8G12G05G25G04G09G02G17G10
 109711622.109 8  85489785.163 7  20877454.555
 111349129.985 8  86765647.773 7  21189004.852
 121070970.738 7  94341091.075 6  23039036.961
 118131871.75247  92050975.55345  22479730.8054                   22479738.4184
 129787683.34446 101133343.85043  24697793.3914                   24697803.8554
 108411943.70848  84476920.48446  20630071.2664                   20630076.0084
 125560992.977 6  97839800.027 6  23893427.180
 110439689.38747  86056978.31646  21015939.6334                   21015946.9924
 11  7 26  2 32 30.0000000  0  8G12G05G25G04G09G02G17G10
 109684876.150 8  85468944.182 7  20872364.656
 111278743.711 8  86710801.369 7  21175610.453
 120987459.833 7  94276017.679 6  23023145.844
 118213865.05647  92114866.43844  22495334.0634                   22495341.8134
 129872518.72646 101199449.30843  24713936.2424                   24713947.5634
 108426085.10548  84487939.77946  20632762.2664                   20632767.6174
 125627278.014 6  97891450.674 6  23906040.914
 110470480.24447  86080971.21845  21021798.9844                   21021805.9184
 11  7 26  2 33  0.0000000  0  8G12G05G25G04G09G02G17G10
 109658682.476 8  85448533.553 7  20867380.375
 111208803.917 8  86656302.876 7  21162301.422
 120904290.320 7  94211210.322 6  23007318.922
 118295913.40947  92178800.24944  22510947.2814                   22510955.0044
 129957316.72746 101265525.59343  24730074.1174                   24730085.6604
 108440461.55548  84499142.22946  20635498.1954                   20635502.7734
 125693738.955 6  97943238.455 6  23918688.578
 110501879.19547  86105437.95446  21027774.0554                   21027781.0864
 11  7 26  2 33 30.0000000  0  9G12G05G25G04G27G09G02G17G10
 109633042.295 8  85428554.232 7  20862501.031
 111139312.875 8  86602154.070 7  21149077.742
 120821465.022 7  94146671.170 7  22991557.570
 118378015.57147  92242775.96445  22526570.6094                   22526578.9734
 130051798.77815                  24748060.188
 130042074.22946 101331570.33043  24746203.4924                   24746213.5984
 108455071.81548  84510526.87846  20638278.1094                   20638282.5784
 125760376.117 6  97995163.537 6  23931369.328
 110533885.26847  86130377.75846  21033864.7274                   21033871.6724
 11  7 26  2 34  0.0000000  0  8G12G05G25G04G09G02G17G10
 109607956.518 8  85409006.894 7  20857727.508
 111070272.964 8  86548356.781 7  21135939.695
 120738986.194 7  94082402.038 7  22975862.336
 118460169.76947  92306792.23844  22542204.0394                   22542212.0044
 130126788.08045 101397581.01242  24762322.7664                   24762333.3364
 108469914.88348  84522092.91746  20641102.6884                   20641107.5274
 125827189.571 6  98047225.952 6  23944083.523
 110566497.30947  86155789.75745  21040070.1724                   21040077.3714
 11  7 26  2 34 30.0000000  0  9G12G05G25G04G27G09G02G17G10
 109583426.613 8  85389892.721 7  20853059.281
 111001686.103 8  86494912.518 7  21122888.273
 120656856.537 7  94018404.942 7  22960232.766
 118542374.66547  92370848.00844  22557846.9304                   22557855.1914
 130179722.32016                  24772401.820
 130211455.13745 101463555.24742  24778435.3754                   24778445.3134
 108484989.33648  84533839.26846  20643971.4774                   20643976.0084
 125894179.284 6  98099425.761 6  23956830.953
 110599714.09247  86181672.98245  21046391.4384                   21046398.0984
 11  7 26  2 35  0.0000000  0  9G12G05G25G04G27G09G02G17G10
 109559453.885 8  85371212.698 7  20848497.625
 110933555.173 8  86441823.505 7  21109923.516
 120575078.972 7  93954682.209 6  22944671.516
 118624628.96747  92434942.27844  22573499.3134                   22573507.0664
 130243526.53715                  24784541.414
 130296072.95945 101529491.17242  24794536.9384                   24794547.9064
 108500294.36848  84545765.28246  20646883.5944                   20646888.9064
 125961345.751 6  98151763.316 5  23969612.578
 110633534.52847  86208026.58445  21052826.8134                   21052834.0124
 11  7 26  2 35 30.0000000  0  9G12G05G25G04G27G09G02G17G10
 109536039.680 8  85352967.890 7  20844041.891
 110865882.390 8  86389091.497 7  21097045.328
 120493656.315 7  93891236.069 7  22929177.422
 118706931.46247  92499074.12944  22589161.7814                   22589168.1414
 130307223.340 5                  24796663.742
 130380638.57346 101595386.33843  24810630.4304                   24810639.8524
 108515829.06948  84557870.27746  20649839.7114                   20649845.4774
 126028689.101 6  98204238.734 6  23982427.883
 110667957.47348  86234849.65845  21059377.6094                   21059384.6564
 11  7 26  2 36  0.0000000  0  9G12G05G25G04G27G09G02G17G10
 109513184.751 8  85335158.870 7  20839692.594
 110798669.576 8  86336717.919 7  21084255.039
 120412590.640 7  93828068.044 7  22913751.414
 118789280.44647  92563242.18244  22604831.8204                   22604838.9414
 130370810.207 5                  24808765.281
 130465148.36846 101661238.07843  24826711.5004                   24826722.2974
 108531591.97448  84570153.09046  20652839.2194                   20652844.6644
 126096209.310 6  98256851.916 6  23995276.055
 110702981.18747  86262140.86845  21066042.6254                   21066049.7154
 11  7 26  2 36 30.0000000  0  9G12G05G25G04G27G09G02G17G10
 109490890.410 8  85317786.681 7  20835450.086
 110731919.172 7  86284704.662 7  21071552.945
 120331884.816 7  93765180.386 7  22898392.961
 118871674.72847  92627445.53344  22620510.6334                   22620518.4924
 130434284.700 4                  24820843.703
 130549600.10646 101727044.52042  24842782.7894                   24842792.5864
 108547582.17748  84582613.00846  20655882.2664                   20655886.7504
 126163906.667 6  98309603.110 5  24008157.930
 110738604.21547  86289899.09346  21072821.3284                   21072828.4534
 11  7 26  2 37  0.0000000  0  9G12G05G25G04G27G09G02G17G10
 109469157.820 8  85300852.208 7  20831314.719
 110665633.246 7  86233053.341 7  21058939.219
 120251541.313 7  93702575.113 6  22883104.766
 118954112.75847  92691682.94044  22636198.1334                   22636205.9924
 130497644.19814                  24832898.813
 130633990.44646 101792803.28243  24858840.7974                   24858851.8954
 108563798.48348  84595249.10946  20658968.1954                   20658972.9574
 126231781.314 5  98362492.475 6  24021073.695
 110774825.25647  86318123.30746  21079713.7114                   21079720.8834
 11  7 26  2 37 30.0000000  0  9G12G05G25G04G27G09G02G17G10
 109447987.962 8  85284356.256 7  20827286.063
 110599814.201 8  86181765.812 7  21046413.898
 120171562.843 7  93640254.273 6  22867885.195
 119036593.26347  92755953.46844  22651893.8914                   22651901.2384
 130560887.55415                  24844935.617
 130718316.17346 101858511.51642  24874888.0634                   24874897.9964
 108580239.66748  84608060.44446  20662096.7664                   20662101.4964
 126299833.102 5  98415519.921 6  24034023.969
 110811642.93747  86346812.42445  21086720.4304                   21086727.0824
 11  7 26  2 38  0.0000000  0  9G12G05G25G04G27G09G02G17G10
 109427381.785 8  85268299.528 7  20823364.945
 110534463.841 7  86130843.509 7  21033978.422
 120091951.613 7  93578219.546 7  22852735.906
 119119114.51847  92820255.76445  22667597.0314                   22667605.2814
 130624009.993 5                  24856946.813
 130802574.41946 101924167.21642  24890921.8364                   24890932.6884
 108596904.31548  84621045.90446  20665267.9224                   20665272.7664
 126368062.09416  98468685.33816  24047008.313
 110849055.53047  86375965.11446  21093839.4774                   21093846.5234
 11  7 26  2 38 30.0000000  0  9G12G05G25G04G27G09G02G17G10
 109407340.921 8  85252683.302 7  20819551.195
 110469584.390 7  86080288.132 7  21021632.609
 120012710.483 7  93516473.249 7  22837656.352
 119201675.78447  92884589.19744  22683307.6484                   22683316.6054
                                  24868935.453
 130886762.65546 101989768.39542  24906942.2274                   24906953.2504
 108613791.79748  84634205.00946  20668481.7424                   20668486.4224
 126436468.659 6  98521989.235 6  24060024.258
 110887061.79448  86405580.40445  21101071.4924                   21101078.6844
 11  7 26  2 39  0.0000000  0  8G12G05G25G04G09G02G17G10
 109387865.583 8  85237507.748 7  20815845.008
 110405178.130 7  86030101.479 7  21009375.766
 119933841.958 7  93455017.314 7  22822647.898
 119284275.36147  92948952.47644  22699025.7664                   22699034.0004
 130970877.43046 102055312.39542  24922948.5004                   24922959.1254
 108630900.66848  84647536.63046  20671736.9534                   20671742.2974
                                  24073073.867
 110925660.07047  86435656.98945  21108416.5944                   21108423.7894
 11  7 26  2 39 30.0000000  0  8G12G05G25G04G09G02G17G10
 109368957.000 8  85222773.818 7  20812247.352
 110341246.996 7  85980285.066 7  20997210.414
 119855348.716 7  93393853.762 7  22807711.461
 119366912.07247  93013344.70644  22714751.0784                   22714759.0594
 131054916.14446 102120797.11842  24938941.2274                   24938951.4064
 108648230.05048  84661040.06846  20675035.1484                   20675039.4024
 126573814.794 6  98629012.163 6  24086161.055
 110964849.23047  86466194.03146  21115874.2504                   21115880.6844
 11  7 26  2 40  0.0000000  0  8G12G05G25G04G09G02G17G10
 109350616.576 8  85208482.598 7  20808757.289
 110277793.394 7  85930840.721 7  20985135.391
 119777233.442 7  93332984.711 7  22792846.602
 119449584.50047  93077764.77644  22730483.5864                   22730490.4804
 131138875.74446 102186220.15342  24954918.4844                   24954929.0164
 108665779.08448  84674714.66446  20678373.9304                   20678379.2854
 126642754.434 6  98682731.431 5  24099280.172
 111004627.79947  86497190.33045  21123443.5704                   21123451.4734
 11  7 26  2 40 30.0000000  0  9G12G05G25G04G27G09G02G17G10
 109332844.026 8  85194633.883 7  20805374.969
 110214818.521 7  85881769.455 7  20973151.766
 119699497.559 7  93272411.305 6  22778053.289
 119532290.64347  93142211.10144  22746221.6954                   22746229.7114
 130937739.87515                  24916649.945
 131222752.38956 102251578.53652  24970879.3914                   24970890.0164
 108683545.55348  84688558.69546  20681754.7194                   20681759.6294
 126711871.126 6  98736588.653 6  24112431.992
 111044992.85348  86528643.65745  21131124.3914                   21131132.2074
 11  7 26  2 41  0.0000000  0  9G12G05G25G04G27G09G02G17G10
 109315641.552 8  85181229.392 7  20802101.367
 110152325.544 8  85833073.647 7  20961259.859
 119622145.051 7  93212136.664 7  22763334.492
 119615030.24447  93206683.51944  22761966.8524                   22761974.2774
 131000093.75414                  24928515.234
 131306544.55845 102316871.13242  24986823.8984                   24986834.4144
 108701529.48248  84702572.17646  20685177.0784                   20685182.1804
 126781166.191 6  98790584.854 6  24125618.570
 111085944.36447  86560553.95245  21138917.3674                   21138925.0984
 11  7 26  2 41 30.0000000  0  8G12G05G25G04G09G02G17G10
 109299009.976 8  85168269.749 7  20798936.477
 110090316.089 8  85784754.643 7  20949459.836
 119545177.940 7  93152162.336 7  22748687.734
 119697801.70647  93271180.77644  22777717.1884                   22777724.9454
 131390249.13946 102382095.41943  25002752.5084                   25002763.7074
 108719729.34548  84716753.91346  20688640.2504                   20688645.4304
 126850639.306 6  98844719.743 6  24138839.938
 111127480.16647  86592919.52845  21146821.6724                   21146828.6454
 11  7 26  2 42  0.0000000  0  9G12G05G25G29G04G09G02G17G10
 109282949.866 8  85155755.408 7  20795880.203
 110028792.281 8  85736814.052 7  20937752.320
 119468598.897 7  93092490.450 7  22734114.906
 130181761.27515 101440400.53514  24772772.180
 119780603.72547  93335701.83744  22793474.3284                   22793481.3054
 131473863.26446 102447249.20743  25018664.0554                   25018673.8204
 108738144.33948  84731103.28346  20692144.9224                   20692149.6604
 126920290.384 6  98898993.346 6  24152093.969
 111169598.63447  86625739.13846  21154836.2424                   21154843.7034
 11  7 26  2 42 30.0000000  0  9G12G05G25G29G04G09G02G17G10
 109267461.668 8  85143686.684 7  20792932.617
 109967755.809 8  85689253.219 7  20926137.586
 119392410.038 7  93033122.588 7  22719616.664
 130102086.333 6 101378316.196 4  24757611.742
 119863434.97747  93400245.70044  22809236.0704                   22809243.8164
 131557383.55046 102512329.93243  25034557.1724                   25034567.8984
 108756773.06848  84745619.20746  20695689.5944                   20695694.2584
 126990119.636 6  98953405.797 6  24165381.523
 111212297.95147  86659011.35145  21162962.0474                   21162969.2154
 11  7 26  2 43  0.0000000  0  9G12G05G25G29G04G09G02G17G10
 109252546.691 8  85132064.644 7  20790094.984
 109907209.028 8  85642073.954 7  20914615.547
 119316614.215 7  92974060.992 7  22705193.031
 130022340.292 5 101316176.551 5  24742436.500
 119946294.28447  93464811.34644  22825003.9774                   22825012.6174
 131640807.72546 102577335.73143  25050432.6724                   25050442.9924
 108775614.39348  84760300.76646  20699274.9064                   20699280.3834
 127060126.890 6  99007956.927 5  24178703.266
 111255576.87147  86692735.21145  21171197.2894                   21171204.3244
 11  7 26  2 43 30.0000000  0  9G12G05G25G29G04G09G02G17G10
 109238205.237 8  85120889.503 7  20787365.344
 109847153.361 8  85595277.372 7  20903187.414
 119241213.415 7  92915307.244 7  22690845.164
 129942523.165 5 101253981.408 5  24727246.789
 120029179.90946  93529397.55944  22840776.9454                   22840784.8284
 131724132.10446 102642263.80343  25066288.7194                   25066299.2544
 108794666.93448  84775146.94346  20702900.7584                   20702906.0744
 127130312.065 7  99062646.699 6  24192059.609
 111299432.95648  86726908.80945  21179542.7664                   21179549.8554
 11  7 26  2 44  0.0000000  0  9G12G05G25G29G04G09G02G17G10
 109224438.330 8  85110162.043 7  20784745.750
 109787591.112 8  85548865.268 7  20891852.828
 119166210.444 7  92856863.476 7  22676572.016
 129862635.900 6 101191731.668 5  24712045.750
 120112091.06847  93594003.64844  22856554.1564                   22856562.7974
 131807354.23946 102707112.15343  25082125.1564                   25082135.8914
 108813930.13648  84790157.25446  20706566.3834                   20706570.9774
 127200675.220 6  99117475.131 5  24205448.609
 111343864.73647  86761530.99445  21187997.8984                   21188005.2384
 11  7 26  2 44 30.0000000  0  9G12G05G25G29G04G09G02G17G10
 109211246.894 8  85099883.001 7  20782235.617
 109728524.008 8  85502838.989 7  20880612.797
 119091607.705 7  92798731.588 7  22662375.727
 129782678.611 5 101129427.377 5  24696831.086
 120195026.40646  93658628.57644  22872335.9534                   22872344.2544
 131890471.22046 102771878.53842  25097942.0704                   25097953.1414
 108833402.34448  84805330.41646  20710271.6024                   20710276.2624
 127271216.408 7  99172442.269 6  24218871.891
 111388870.20547  86796600.21245  21196562.4844                   21196569.6564
 11  7 26  2 45  0.0000000  0  9G12G05G25G29G04G09G02G17G10
 109198631.444 8  85090052.790 7  20779835.180
 109669954.124 8  85457200.165 7  20869467.391
 119017407.723 7  92740913.538 7  22648255.992
 129702651.933 5 101067069.058 5  24681601.625
 120277984.71546  93723271.42944  22888122.9454                   22888131.5314
 131973480.15445 102836560.83542  25113737.1884                   25113748.7154
 108853082.80848  84820665.87646  20714016.7734                   20714021.7974
 127341935.521 6  99227548.165 5  24232329.719
 111434447.89747  86832115.32745  21205235.1564                   21205242.6884
 11  7 26  2 45 30.0000000  0  9G12G05G25G29G04G09G02G17G10
 109186592.422 7  85080671.741 7  20777544.164
 109611882.885 8  85411949.892 7  20858416.414
 118943612.545 7  92683410.876 7  22634213.070
 129622556.154 5 101004656.751 5  24666360.164
 120360964.41747  93787930.96444  22903913.3134                   22903921.9184
 132056378.35246 102901156.76842  25129513.8364                   25129523.5704
 108872969.87647  84836162.31646  20717801.1954                   20717806.2774
 127412832.621 6  99282792.620 5  24245819.805
 111480595.89447  86868074.82445  21214016.8984                   21214024.3284
 11  7 26  2 46  0.0000000  0  9G12G05G25G29G04G09G02G17G10
 109175130.725 8  85071740.539 7  20775362.625
 109554312.572 8  85367089.959 7  20847461.055
 118870224.974 7  92626225.853 7  22620247.523
 129542391.789 5 100942191.120 5  24651103.195
 120443964.72446  93852606.51944  22919708.0864                   22919716.4344
 132139163.19445 102965664.43842  25145265.6334                   25145276.7664
 108893063.05748  84851819.35746  20721624.5004                   20721629.4614
 127483907.835 6  99338175.907 6  24259345.023
 111527312.83247  86904477.65145  21222907.2664                   21222914.3984
 11  7 26  2 46 30.0000000  0  9G12G05G25G29G04G09G02G17G10
 109164247.708 8  85063260.264 8  20773292.016
 109497245.392 8  85322622.072 7  20836601.930
 118797247.810 7  92569360.605 7  22606360.633
 129462159.98014 100879672.86415  24635833.617
 120526984.76247  93917297.46744  22935505.7814                   22935513.4734
 132221831.93644 103030081.59842  25160996.3134                   25161009.1804
 108913361.54748  84867636.36546  20725487.6954                   20725492.3554
 127555161.233 6  99393698.061 6  24272905.227
 111574596.91547  86941322.39645  21231904.8444                   21231912.2894
 11  7 26  2 47  0.0000000  0 10G12G05G25G29G04G27G09G02G17G10
 109153942.842 7  85055230.508 7  20771330.992
 109440682.855 8  85278547.414 7  20825837.945
 118724682.910 7  92512816.601 7  22592552.133
 129381860.376 5 100817101.724 5  24620555.289
 120610022.72247  93982002.41344  22951307.6414                   22951315.0204
                                  25068749.328
 132304381.38155 103094405.78952  25176705.8204                   25176717.9774
 108933863.82548  84883612.19246  20729388.8674                   20729393.6414
 127626592.446 6  99449358.752 6  24286497.289
 111622445.65747  86978607.13245  21241009.9534                   21241017.6134
 11  7 26  2 47 30.0000000  0  9G12G05G25G29G04G09G02G17G10
 109144217.531 8  85047652.358 8  20769479.914
 109384626.858 8  85234867.473 7  20815171.219
 118652533.202 7  92456596.111 7  22578822.430
 129301494.132 5 100754478.762 5  24605263.078
 120693077.77547  94046720.70244  22967112.3284                   22967119.7194
 132386809.40055 103158635.36252  25192392.1954                   25192403.7974
 108954568.98948  84899746.11246  20733328.6884                   20733333.7624
 127698202.004 6  99505158.383 6  24300124.891
 111670857.76447  87016330.85345  21250223.1254                   21250230.5664
 11  7 26  2 48  0.0000000  0  9G12G05G25G29G04G09G02G17G10
 109135071.770 8  85040525.817 7  20767739.859
 109329078.670 8  85191583.201 8  20804600.383
 118580800.414 7  92400700.465 7  22565172.242
 129221061.126 5 100691803.761 5  24589955.813
 120776148.29146  94111450.97244  22982919.5864                   22982928.0434
 132469112.32645 103222767.52342  25208054.0164                   25208065.4024
 108975475.35348  84916036.79946  20737307.5634                   20737311.8554
 127769989.008 6  99561096.362 6  24313783.445
 111719830.46547  87054491.42345  21259542.0394                   21259549.3674
 11  7 26  2 48 30.0000000  0  9G12G05G25G29G04G09G02G17G10
 109126505.945 8  85033851.154 7  20766109.961
 109274040.188 8  85148696.119 7  20794126.727
 118509487.047 7  92345131.674 7  22551601.891
 129140562.112 5 100629077.327 5  24574639.039
 120859233.27846  94176192.53744  22998730.6724                   22998738.7234
 132551287.35846 103286799.98442  25223691.6094                   25223702.0354
 108996581.81548  84932483.41046  20741323.8054                   20741328.1454
 127841953.848 6  99617172.828 6  24327478.891
 111769362.22347  87093087.61145  21268967.4774                   21268974.7034
 11  7 26  2 49  0.0000000  0  9G12G05G25G29G04G09G02G17G10
 109118521.477 7  85027629.516 7  20764590.391
 109219513.156 8  85106207.548 7  20783750.727
 118438595.763 7  92289891.738 7  22538111.570
 129059997.614 4 100566299.876 5  24559306.953
 120942331.68246  94240944.57444  23014543.3444                   23014551.0514
 132633332.21145 103350730.93942  25239304.3594                   25239314.4924
 109017887.95647  84949085.61146  20745378.0234                   20745382.7544
 127914096.140 6  99673387.605 6  24341208.422
 111819451.08947  87132117.90045  21278499.0164                   21278506.1764
 11  7 26  2 49 30.0000000  0  9G12G05G25G29G04G09G02G17G10
 109111118.017 8  85021860.614 7  20763181.164
 109165499.310 8  85064118.889 7  20773472.289
 118368128.685 7  92234982.368 7  22524701.992
 128979367.898 5 100503471.693 4  24543963.977
 121025442.15447  94305705.99444  23030358.9614                   23030366.0314
 132715244.05346 103414558.35042  25254891.3754                   25254902.3284
 109039392.42048  84965842.35746  20749470.3754                   20749475.1054
 127986416.359 6  99729741.034 6  24354969.461
 111870094.94947  87171580.65945  21288136.5084                   21288143.0634
 11  7 26  2 50  0.0000000  0  9G12G05G25G29G04G09G02G17G10
 109104296.362 8  85016545.055 7  20761883.531
 109112000.445 8  85022431.494 7  20763291.695
 118298088.513 7  92180405.650 7  22511373.469
 128898673.922 5 100440593.416 5  24528608.125
 121108563.94247  94370476.24444  23046176.0474                   23046184.2584
 132797020.27855 103478280.05052  25270452.7584                   25270464.1644
 109061094.19548  84982752.85546  20753599.5164                   20753604.4654
 128058914.140 6  99786232.843 6  24368764.422
 111921292.04247  87211474.50745  21297878.6954                   21297885.5944
 11  7 26  2 50 30.0000000  0  9G12G05G25G29G04G09G02G17G10
 109098057.305 8  85011683.494 7  20760696.133
 109059018.718 8  84981147.075 7  20753209.695
 118228477.634 7  92126163.439 7  22498127.188
 128817916.398 5 100377665.570 5  24513240.813
 121191695.72546  94435254.24144  23061996.4534                   23062004.1414
 132878658.07646 103541893.88943  25285987.0474                   25285998.9774
 109082992.42748  84999816.41446  20757766.7814                   20757771.5944
 128131589.765 6  99842863.209 6  24382596.180
 111973040.55547  87251798.02745  21307726.6884                   21307733.3484
 11  7 26  2 51  0.0000000  0  9G12G05G25G29G04G09G02G17G10
 109092401.093 7  85007276.063 7  20759619.734
 109006555.612 8  84940266.777 7  20743225.797
 118159298.282 7  92072257.505 7  22484962.398
 128737095.785 5 100314688.485 4  24497859.828
 121274836.45546  94500039.22044  23077817.7894                   23077825.2274
 132960154.82255 103605397.78553  25301497.2034                   25301507.0904
 109105085.78948  85017032.02046  20761971.1174                   20761976.5634
 128204442.699 6  99899631.697 6  24396459.883
 112025338.32947  87292549.56145  21317678.1564                   21317685.0554
 11  7 26  2 51 30.0000000  0  9G12G05G25G29G04G09G02G17G10
 109087327.690 7  85003322.791 7  20758654.586
 108954612.536 8  84899791.690 7  20733342.133
 118090552.912 7  92018689.740 7  22471880.336
 128656212.498 5 100251662.682 4  24482467.422
 121357985.23347  94564830.45644  23093640.2114                   23093647.6524
 133041507.80045 103668789.68042  25316978.6724                   25316988.3364
 109127373.42147  85034399.04646  20766212.7274                   20766217.3554
 128277473.121 6  99956538.569 6  24410355.523
 112078183.18647  87333727.39545  21327733.8834                   21327741.1294
 11  7 26  2 52  0.0000000  0  9G12G05G25G29G04G09G02G17G10
 109082838.078 7  84999824.420 7  20757800.164
 108903191.473 8  84859723.373 7  20723556.305
 118022244.118 7  91965462.145 7  22458882.078
 128575267.613 6 100188588.827 5  24467067.250
 121441141.27147  94629627.40244  23109464.3914                   23109472.1294
 133122714.66545 103732067.74542  25332429.5474                   25332441.1524
 109149854.45548  85051916.75846  20770490.3754                   20770494.7074
 128350681.181 6 100013583.853 6  24424287.734
 112131573.38347  87375330.15745  21337894.1644                   21337901.0274
 11  7 26  2 52 30.0000000  0  9G12G05G25G29G04G09G02G17G10
 109078932.299 8  84996780.971 7  20757057.063
 108852293.768 8  84820062.861 7  20713871.000
 117954373.692 7  91912576.128 7  22445966.484
 128494261.021 6 100125466.802 5  24451651.781
 121524302.75847  94694428.57644  23125289.0314                   23125297.2034
 133203772.25946 103795229.46043  25347855.6724                   25347866.7934
 109172527.49048  85069584.07646  20774804.6954                   20774808.8714
 128424066.294 6 100070767.088 6  24438251.742
 112185506.44047  87417355.93045  21348157.5234                   21348163.7154
 11  7 26  2 53  0.0000000  0  9G12G05G25G29G04G09G02G17G10
 109075610.629 8  84994192.669 8  20756424.328
 108801920.878 8  84780811.288 7  20704285.719
 117886943.965 7  91860033.562 7  22433135.039
 128413193.615 6 100062297.465 5  24436224.313
 121607469.03347  94759233.46344  23141114.9924                   23141123.2274
 133284678.02046 103858272.85642  25363252.0554                   25363262.2624
 109195391.41948  85087400.14146  20779155.6804                   20779160.4144
 128497628.483 6 100128088.286 6  24452249.781
 112239980.31847  87459803.13545  21358522.9534                   21358529.8404
 11  7 26  2 53 30.0000000  0  9G12G05G25G29G04G09G02G17G10
 109072873.075 7  84992059.540 7  20755903.656
 108752074.170 8  84741969.729 7  20694799.859
 117819957.258 7  91807836.180 7  22420388.289
 128332065.760 6  99999081.106 5  24420785.289
 121690638.71846  94824041.03844  23156941.5164                   23156950.0084
 133365429.37945 103921195.90142  25378618.2034                   25378628.0704
 109218445.25648  85105364.19146  20783542.3284                   20783547.4454
 128571367.712 6 100185547.477 6  24466282.578
 112294992.87147  87502670.08545  21368991.7424                   21368998.2934
 11  7 26  2 54  0.0000000  0  9G12G05G25G29G04G09G02G17G10
 109070719.774 8  84990381.658 8  20755493.977
 108702755.306 8  84703539.498 7  20685415.023
 117753415.648 7  91755985.622 7  22407725.477
 128250878.176 5  99935818.156 5  24405335.781
 121773810.54947  94888850.24643  23172768.4064                   23172776.2814
 133446023.49245 103983996.37943  25393954.5554                   25393965.9734
 109241687.59348  85123475.12646  20787965.6414                   20787970.1484
 128645283.721 6 100243144.351 6  24480347.703
 112350541.85247  87545955.03845  21379561.9534                   21379569.1454
 11  7 26  2 54 30.0000000  0  9G12G05G25G29G04G09G02G17G10
 109069151.679 8  84989159.776 8  20755195.211
 108653965.906 8  84665521.816 8  20676130.172
 117687321.819 7  91704483.947 7  22395148.141
 128169631.720 5  99872509.232 6  24389876.234
 121856984.21047  94953660.87644  23188596.2894                   23188603.6374
 133526458.07246 104046672.72442  25409259.5164                   25409271.5824
 109265118.16948  85141732.73446  20792424.2034                   20792428.5234
 128719376.236 6 100300878.860 6  24494447.633
 112406625.41147  87589656.53845  21390234.2424                   21390241.3594
 11  7 26  2 55  0.0000000  0  9G12G05G25G29G04G09G02G17G10
 109068168.872 8  84988393.971 8  20755008.477
 108605707.754 8  84627918.084 8  20666947.094
 117621677.946 7  91653332.921 7  22382656.789
 128088327.068 5  99809155.062 6  24374403.703
 121940158.40147  95018471.93244  23204423.1724                   23204430.9924
 133606730.13546 104109222.33042  25424535.6094                   25424547.0824
 109288735.64448  85160135.98346  20796918.2814                   20796923.3284
 128793645.348 7 100358750.888 6  24508581.164
 112463241.44747  87633772.94345  21401008.2344                   21401014.8594
 11  7 26  2 55 30.0000000  0  9G12G05G25G29G04G09G02G17G10
 109067771.409 8  84988084.276 8  20754932.914
 108557982.405 8  84590729.545 8  20657865.398
 117556486.312 8  91602534.267 7  22370251.211
 128006964.611 6  99745755.789 6  24358920.984
 122023332.09847  95083282.57244  23220251.5784                   23220259.2194
 133686837.29745 104171643.25342  25439779.6334                   25439791.0664
 109312539.05248  85178684.11646  20801448.0234                   20801452.8954
 128868090.906 7 100416760.503 6  24522747.117
 112520387.55147  87678302.40745  21411882.6334                   21411889.2234
 11  7 26  2 56  0.0000000  0  9G12G05G25G29G04G09G02G17G10
 109067959.314 8  84988230.725 7  20754968.547
 108510790.897 8  84553956.983 7  20648885.391
 117491749.011 8  91552089.645 7  22357931.961
 127925545.114 6  99682312.113 6  24343427.430
 122106504.09747  95148091.92644  23236078.8284                   23236086.0204
 133766777.141 5                  25454991.734
 109336527.27648  85197376.27346  20806013.0944                   20806017.9184
 128942712.793 6 100474907.523 6  24536946.477
 112578061.69947  87723243.30745  21422858.1884                   21422864.3634
 11  7 26  2 56 30.0000000  0  9G12G05G25G29G04G09G02G17G10
 109068733.048 8  84988833.625 7  20755115.727
 108464134.784 8  84517601.610 7  20640006.914
 117427468.505 7  91502000.977 7  22345699.914
 127844069.613 6  99618824.747 6  24327922.602
 122189673.82447  95212899.49444  23251904.6884                   23251912.7934
 133846546.85215                  25470175.375
 109360699.53448  85216211.80046  20810612.8054                   20810617.2624
 129017510.716 6 100533191.643 6  24551180.375
 112636261.73447  87768594.01345  21433932.8524                   21433939.4344
 11  7 26  2 57  0.0000000  0  9G12G05G25G29G04G09G02G17G10
 109070092.814 8  84989893.186 7  20755374.719
 108418015.576 8  84481664.601 8  20631230.313
 117363646.788 7  91452269.800 7  22333554.453
 127762538.295 6  99555293.934 6  24312407.641
 122272840.02247  95277704.30644  23267730.6644                   23267738.6804
                                  25485316.477
 109385054.45048  85235189.67946  20815247.2894                   20815252.1804
 129092484.653 6 100591612.933 5  24565447.859
 112694985.18747  87814352.56745  21445107.2894                   21445114.5704
 11  7 26  2 57 30.0000000  0  9G12G05G25G29G04G09G02G17G10
 109072037.969 8  84991408.914 7  20755744.938
 108372434.372 8  84446146.813 7  20622556.641
 117300285.935 7  91402897.763 7  22321498.008
 127680951.886 6  99491720.184 5  24296883.008
 122356001.47847  95342505.45344  23283556.3524                   23283564.1954
 134005565.29415                  25500432.148
 109409591.04748  85254309.13246  20819916.2344                   20819921.2194
 129167634.091 6 100650170.987 5  24579748.031
 112754229.59547  87860517.05345  21456381.3984                   21456388.6844
 11  7 26  2 58  0.0000000  0  9G12G05G25G29G04G09G02G17G10
 109074569.425 7  84993381.484 7  20756226.672
 108327392.508 8  84411049.299 8  20613985.336
 117237388.153 7  91353886.540 7  22309528.500
 127599311.074 6  99428104.013 5  24281346.672
 122439157.57547  95407302.40944  23299380.0704                   23299387.9454
 134084808.786 5                  25515511.977
 109434308.24448  85273569.32146  20824619.7194                   20824624.6254
 129242958.905 6 100708865.700 5  24594082.945
 112813992.61747  87907085.67145  21467754.0314                   21467760.6024
 11  7 26  2 58 30.0000000  0  9G12G05G25G29G04G09G02G17G10
 109077686.341 8  84995810.273 7  20756819.781
 108282891.461 8  84376373.197 8  20605517.211
 117174955.649 7  91305237.875 7  22297648.281
 127517616.448 6  99364445.970 6  24265800.906
 122522307.19946  95472094.31544  23315203.2734                   23315210.5904
 134163872.150 4                  25530555.617
 109459205.13548  85292969.51046  20829357.6484                   20829362.4024
 129318458.900 6 100767696.877 6  24608448.992
 112874272.17847  87954056.78645  21479224.5704                   21479231.3404
 11  7 26  2 59  0.0000000  0  9G12G05G25G29G04G09G02G17G10
 109081388.800 7  84998695.320 7  20757524.094
 108238932.259 8  84342119.317 8  20597151.586
 117112990.507 7  91256953.414 7  22285856.578
 127435868.883 6  99300746.577 5  24250244.781
 122605449.33746  95536880.40643  23331024.7894                   23331032.2974
 134242752.471 5                  25545566.656
 109484280.59848  85312508.84746  20834129.4924                   20834134.6844
 129394133.986 6 100826664.497 6  24622849.969
 112935065.90847  88001428.52845  21490793.4304                   21490800.5634
 11  7 26  2 59 30.0000000  0  9G12G05G25G29G04G09G02G17G10
 109085677.222 8  85002036.974 7  20758340.047
 108195516.746 8  84308289.092 8  20588889.984
 117051495.056 7  91209034.887 7  22274153.641
 127354069.280 6  99237006.661 5  24234678.820
 122688583.25346  95601660.09744  23346844.0474                   23346851.9654
 134321447.544 4                  25560542.086
 109509534.11048  85332186.92546  20838934.8134                   20838939.1994
 129469983.757 6 100885768.321 5  24637283.289
 112996371.53147  88049199.16145  21502459.5944                   21502466.1524
 11  7 26  3  0  0.0000000  0  9G12G05G25G29G04G09G02G17G10
 109090551.493 8  85005835.102 7  20759267.844
 108152646.126 8  84274883.452 7  20580732.086
 116990471.190 7  91161483.903 7  22262541.750
 127272218.273 6  99173226.632 5  24219103.086
 122771707.78346  95666432.48744  23362662.3444                   23362670.6604
 134399954.319 5                  25575482.648
 109534964.24748  85352002.62446  20843773.9844                   20843778.8834
 129546008.195 6 100945008.175 6  24651750.617
 113058186.56947  88097366.74045  21514222.0944                   21514228.9774
 11  7 26  3  0 30.0000000  0  9G12G05G25G29G04G09G02G17G10
 109096011.443 8  85010089.647 7  20760306.945
 108110321.528 8  84241903.273 7  20572678.164
 116929921.139 7  91114302.134 7  22251019.414
 127190316.426 6  99109407.067 5  24203517.398
 122854822.23546  95731197.00344  23378477.9774                   23378486.7274
 134478270.29415                  25590385.227
 109560570.23248  85371955.35546  20848646.8284                   20848651.7854
 129622207.247 6 101004384.022 6  24666248.922
 113120508.58747  88145929.36645  21526081.7344                   21526088.6954
 11  7 26  3  1  0.0000000  0  8G12G05G25G29G04G02G17G10
 109102057.922 8  85014801.199 7  20761457.555
 108068545.015 8  84209350.179 8  20564728.242
 116869847.880 7  91067491.847 7  22239587.930
 127108365.402 6  99045549.122 5  24187923.281
 122937926.38946  95795953.47544  23394292.5394                   23394300.3834
 109586351.97848  85392045.06846  20853552.6484                   20853557.6994
 129698580.966 6 101063896.063 5  24680783.609
 113183336.48447  88194886.20245  21538037.1724                   21538044.9104
 11  7 26  3  1 30.0000000  0  8G12G05G25G29G04G02G17G10
 109108689.826 8  85019968.933 8  20762719.016
 108027316.293 8  84177223.936 8  20556882.063
 116810252.124 7  91021053.627 7  22228247.141
 127026364.907 6  98981652.684 5  24172318.531
 123021018.18846  95860700.35643  23410103.6724                   23410112.2544
 109612306.88148  85412269.68746  20858491.8674                   20858496.4264
 129775128.133 6 101123543.230 6  24695350.000
 113246666.54847  88244234.31245  21550088.7504                   21550096.3164
 11  7 26  3  2  0.0000000  0  8G12G05G25G29G04G02G17G10
 109115907.743 8  85025593.313 7  20764092.484
 107986637.688 8  84145526.362 8  20549141.516
 116751137.027 7  90974989.950 7  22216997.133
 126944316.326 6  98917718.732 5  24156705.258
 123104097.63246  95925437.62743  23425913.3524                   23425922.1254
 109638435.45748  85432629.63846  20863463.7734                   20863468.6094
 129851849.687 5 101183326.286 5  24709950.852
 113310497.25547  88293972.54145  21562235.7814                   21562242.3444
 11  7 26  3  2 30.0000000  0  8G12G05G25G29G04G02G17G10
 109123710.940 8  85031673.758 7  20765577.141
 107946509.847 8  84114257.948 8  20541505.508
 116692503.971 7  90929301.952 7  22205839.703
 126862220.189 6  98853747.760 6  24141082.219
 123187163.20346  95990164.10243  23441720.0944                   23441728.8554
 109664735.92848  85453123.55946  20868468.5944                   20868473.5704
 129928744.651 5 101243244.431 5  24724582.031
 113374825.57347  88344098.52945  21574476.8284                   21574483.7814
 11  7 26  3  3  0.0000000  0  8G12G05G25G29G04G02G17G10
 109132098.569 8  85038209.575 7  20767173.563
 107906933.930 8  84083419.614 8  20533974.656
 116634355.036 7  90883991.147 7  22194774.328
 126780077.247 6  98789740.313 6  24125452.328
 123270214.25246  96054879.22543  23457524.5554                   23457533.3324
 109691207.44948  85473750.73246  20873505.8054                   20873510.7894
 130005812.590 5 101303297.347 6  24739247.516
 113439649.17447  88394610.44145  21586812.1094                   21586818.7194
 11  7 26  3  3 30.0000000  0  9G12G05G25G29G04G26G02G17G10
 109141071.369 8  85045201.389 7  20768881.375
 107867911.005 8  84053012.174 8  20526548.648
 116576692.324 7  90839059.202 7  22183802.047
 126697888.399 6  98725697.212 6  24109811.813
 123353250.02246  96119582.47544  23473325.8834                   23473333.2814
 135414073.95714                  25768451.344
 109717849.10548  85494510.48946  20878576.1484                   20878580.5784
 130083053.328 5 101363484.986 6  24753946.258
 113504965.47847  88445506.26645  21599241.5704                   21599248.2384
 11  7 26  3  4  0.0000000  0  9G12G05G25G29G04G09G02G17G10
 109150628.092 8  85052648.215 7  20770699.945
 107829441.418 8  84023035.915 8  20519228.406
 116519517.013 7  90794507.034 7  22172922.078
 126615653.628 6  98661618.291 6  24094162.688
 123436268.71547  96184272.41443  23489123.3524                   23489130.8404
 135020840.73715                  25693654.516
 109744658.93648  85515401.29146  20883677.8914                   20883682.0824
 130160465.831 6 101423806.413 6  24768677.656
 113570771.36447  88496783.58745  21611763.6954                   21611770.3594
 11  7 26  3  4 30.0000000  0  9G12G05G25G29G04G09G02G17G10
 109160768.460 8  85060549.814 7  20772629.844
 107791526.407 8  83993491.777 8  20512013.031
 116462831.121 7  90750336.272 7  22162134.156
 126533373.885 6  98597504.326 5  24078505.047
 123519269.49547  96248948.38343  23504918.2974                   23504925.6414
 135097544.834 4                  25708250.914
 109771636.05948  85536422.45446  20888811.1334                   20888815.9224
 130238049.936 5 101484261.621 6  24783440.781
 113637064.26047  88548440.40045  21624378.9694                   21624386.0554
 11  7 26  3  5  0.0000000  0  8G12G05G25G29G04G02G17G10
 109171493.845 8  85068907.291 7  20774670.406
 107754169.105 8  83964382.239 8  20504903.992
 116406638.740 8  90706550.022 6  22151442.367
 126451051.908 7  98533357.508 6  24062839.344
 123602253.64947  96313611.43243  23520709.4774                   23520716.9304
 109798781.86748  85557575.04346  20893976.6024                   20893981.3834
 130315807.188 5 101544851.736 5  24798237.305
 113703843.65747  88600476.31445  21637086.6094                   21637093.8754
 11  7 26  3  5 30.0000000  0  9G12G05G25G29G04G09G02G17G10
 109182801.453 8  85077718.449 7  20776822.047
 107717367.781 8  83935705.917 8  20497901.578
 116350939.107 7  90663147.744 7  22140842.516
 126368685.929 6  98469176.376 6  24047165.805
 123685217.75547  96378258.82743  23536497.5554                   23536504.6604
 135250304.90214                  25737321.773
 109826092.57048  85578856.13946  20899173.8984                   20899178.5204
 130393734.829 6 101605574.548 5  24813065.711
 113771104.67047  88652887.51245  21649886.1954                   21649893.0084
 11  7 26  3  6  0.0000000  0  9G12G05G25G29G04G26G02G17G10
 109194693.701 8  85086985.170 7  20779085.102
 107681125.741 8  83907465.399 8  20491004.758
 116295736.676 7  90620132.874 7  22130337.922
 126286279.395 6  98404963.630 6  24031484.836
 123768163.43247  96442891.89443  23552281.5084                   23552288.8594
 134989423.47315                  25687637.406
 109853569.79348  85600266.98846  20904402.1334                   20904407.0354
 130471834.992 6 101666431.907 5  24827928.414
 113838847.30247  88705673.98845  21662776.8204                   21662784.1024
 11  7 26  3  6 30.0000000  0  9G12G05G25G29G04G26G02G17G10
 109207169.008 8  85096706.213 7  20781459.055
 107645443.077 8  83879660.777 8  20484213.852
 116241032.315 7  90577506.160 7  22119927.188
 126203831.921 6  98340719.058 6  24015796.094
 123851088.87447  96507509.20144  23568061.0864                   23568068.9964
 134903721.92315                  25671330.250
 109881211.57747  85621806.06746  20909662.1954                   20909667.0824
 130550106.168 6 101727422.443 5  24842822.641
 113907067.98747  88758832.98945  21675758.1334                   21675765.9884
 11  7 26  3  7  0.0000000  0  9G12G05G25G29G04G26G02G17G10
 109220226.495 8  85106880.906 7  20783943.930
 107610320.262 8  83852292.381 8  20477530.711
 116186827.519 7  90535268.704 7  22109613.305
 126121344.073 6  98276443.026 6  24000098.500
 123933992.80747  96572109.72043  23583837.6094                   23583845.0944
 134817769.77515                  25654972.422
 109909016.57848  85643472.32746  20914953.6804                   20914958.1134
 130628547.938 6 101788545.841 5  24857751.883
 113975763.74147  88812362.13945  21688830.9614                   21688838.5164
 11  7 26  3  7 30.0000000  0  9G12G05G25G29G04G26G02G17G10
 109233865.756 8  85117508.921 7  20786539.313
 107575758.316 8  83825361.034 8  20470953.406
 116133124.393 7  90493422.145 7  22099393.695
 126038816.958 6  98212136.395 6  23984393.031
 124016874.73646  96636693.06344  23599609.5004                   23599616.3404
 134731569.661 5                  25638569.125
 109936984.16348  85665265.25346  20920275.7114                   20920280.4384
 130707159.960 6 101849802.014 5  24872710.461
 114044932.14147  88866259.62045  21701993.6564                   21702000.5744
 11  7 26  3  8  0.0000000  0  9G12G05G25G29G04G26G02G17G10
 109248087.133 8  85128590.519 7  20789245.133
 107541758.631 8  83798867.810 8  20464483.953
 116079925.202 7  90451968.284 7  22089270.219
 125956251.761 6  98147800.145 6  23968680.648
 124099734.20747  96701258.96044  23615377.3914                   23615384.0704
 134645123.962 5                  25622119.594
 109965113.86748  85687184.52546  20925628.4384                   20925633.0394
 130785942.073 6 101911190.687 5  24887702.172
 114114571.07647  88920523.75745  21715245.6254                   21715252.7814
 11  7 26  3  8 30.0000000  0  9G12G05G25G29G04G26G02G17G10
 109262889.068 8  85140124.509 7  20792062.359
 107508321.206 8  83772812.710 8  20458120.859
 116027230.821 7  90410907.751 7  22079242.648
 125873648.274 6  98083433.978 6  23952962.258
 124182569.50246  96765805.95243  23631139.2344                   23631148.0634
 134558434.424 5                  25605622.930
 109993403.47848  85709228.40146  20931011.7424                   20931016.4694
 130864893.157 6 101972711.091 5  24902725.164
 114184676.97747  88975151.75845  21728585.2504                   21728592.9534
 11  7 26  3  9  0.0000000  0  8G12G05G25G29G04G02G17G10
 109278272.235 8  85152111.388 7  20794989.250
 107475448.451 8  83747197.597 8  20451865.250
 115975044.672 7  90370243.299 7  22069311.516
 125791008.751 6  98019039.732 7  23937235.914
 124265381.36546  96830334.70743  23646897.8754                   23646906.5354
 110021854.28548  85731397.87846  20936425.8364                   20936430.2774
 130944014.472 6 102034364.070 5  24917782.148
 114255248.95347  89030142.89945  21742015.1564                   21742022.4384
 11  7 26  3  9 30.0000000  0  8G12G05G25G29G04G02G17G10
 109294234.932 8  85164549.858 7  20798027.102
 107443139.767 8  83722022.034 8  20445717.336
 115923367.138 7  90329975.166 7  22059477.859
 125708333.314 6  97954617.508 6  23921503.484
 124348167.73346  96894843.55043  23662652.1334                   23662660.2814
 110050463.44948  85753690.76246  20941870.1094                   20941875.0124
 131023303.969 6 102096148.161 6  24932869.469
 114326282.60847  89085493.84745  21755532.5004                   21755539.6174
 11  7 26  3 10  0.0000000  0  9G12G05G25G29G04G26G02G17G10
 109310777.611 8  85177440.253 7  20801175.367
 107411396.455 8  83697287.021 8  20439676.359
 115872200.818 7  90290105.354 7  22049741.094
 125625623.378 6  97890168.405 6  23905764.430
 124430928.71247  96959332.61643  23678400.7664                   23678408.2464
 134296923.15515                  25555862.148
 110079230.83548  85776106.89746  20947344.4774                   20947349.1484
 131102762.454 5 102158063.871 6  24947990.719
 114397776.43747  89141203.32045  21769138.0164                   21769144.9574
 11  7 26  3 10 30.0000000  0  9G12G05G25G29G04G26G02G17G10
 109327899.054 8  85190781.637 7  20804433.148
 107380219.375 8  83672993.221 8  20433743.492
 115821547.213 7  90250635.052 7  22040101.773
 125542879.556 6  97825692.855 6  23890018.266
 124513663.28847  97023801.16043  23694144.3914                   23694151.9804
 134209284.24714                  25539180.969
 110108155.68248  85798645.74046  20952848.3594                   20952853.0434
 131182388.929 6 102220110.502 6  24963142.672
 114469727.49147  89197269.11345  21782829.2424                   21782836.3244
 11  7 26  3 11  0.0000000  0  9G12G05G25G29G04G26G02G17G10
 109345598.877 8  85204573.694 7  20807801.281
 107349609.455 8  83649141.362 8  20427918.867
 115771408.248 7  90211565.791 7  22030560.977
 125460103.170 6  97761191.949 6  23874267.227
 124596370.93347  97088248.71044  23709884.0474                   23709890.8914
 134121413.86515                  25522461.867
 110137237.08748  85821306.58246  20958382.2114                   20958387.1454
 131262182.946 5 102282287.732 6  24978326.125
 114542133.16747  89253689.15445  21796607.9454                   21796615.0944
 11  7 26  3 11 30.0000000  0  9G12G05G25G29G04G26G02G17G10
 109363876.584 8  85218816.063 7  20811279.242
 107319566.967 8  83625731.651 8  20422201.844
 115721785.494 8  90172898.719 7  22021117.703
 125377294.891 5  97696666.154 6  23858508.641
 124679050.62346  97152674.45343  23725617.0164                   23725624.7304
 134033314.145 4                  25505696.016
 110166473.99648  85844088.59246  20963945.7034                   20963950.5784
 131342144.408 5 102344595.418 5  24993542.922
 114614990.60747  89310461.20445  21810471.6724                   21810478.8874
 11  7 26  3 12  0.0000000  0  9G12G05G25G29G04G26G02G17G10
 109382731.314 8  85233508.061 7  20814867.391
 107290092.919 8  83602764.892 8  20416593.016
 115672680.684 8  90134635.281 7  22011773.852
 125294455.863 6  97632116.380 5  23842744.617
 124761701.74647  97217077.92744  23741345.5084                   23741352.5164
 133944987.62515                  25488887.773
 110195865.73548  85866991.25046  20969538.9144                   20969543.7544
 131422272.981 5 102407033.259 5  25008790.820
 114688297.46147  89367583.44745  21824421.9924                   21824428.6054
 11  7 26  3 12 30.0000000  0  9G12G05G25G29G04G26G02G17G10
 109402162.161 8  85248648.974 7  20818564.914
 107261187.762 8  83580241.417 8  20411092.555
 115624095.421 8  90096776.674 7  22002528.203
 125211586.662 6  97567543.070 5  23826975.641
 124844323.57046  97281458.60243  23757067.5394                   23757075.1564
 133856436.654 5                  25472037.641
 110225410.94048  85890013.48646  20975161.1804                   20975166.1994
 131502568.019 5 102469600.850 6  25024069.258
 114762050.74047  89425053.54045  21838456.8984                   21838463.6684
 11  7 26  3 13  0.0000000  0  9G12G05G25G29G04G26G02G17G10
 109422168.855 8  85264238.607 7  20822371.961
 107232852.217 7  83558161.805 8  20405700.523
 115576031.782 8  90059324.508 7  21993381.992
 125128688.711 6  97502947.353 5  23811200.656
 124926915.64446  97345816.04444  23772783.6724                   23772791.7664
 133767663.68615                  25455145.117
 110255109.59948  85913155.31346  20980812.7504                   20980817.4694
 131583029.33215 102532298.00615  25039381.242
 114836248.34947  89482869.86845  21852576.5474                   21852582.7274
 11  7 26  3 13 30.0000000  0  9G12G05G25G29G04G26G02G17G10
 109442750.177 8  85280275.998 7  20826288.820
 107205086.926 8  83536526.538 8  20400417.133
 115528490.950 8  90022279.776 7  21984335.297
 125045762.789 6  97438329.896 5  23795419.492
 125009476.97246  97410149.61143  23788495.1024                   23788502.5514
 133678671.03445 104165243.55252  25438209.7894                   25438216.6884
 110284960.29548  85936415.58946  20986493.1414                   20986497.7584
 131663655.838 5 102595123.928 5  25054724.000
 114910886.88647  89541029.78145  21866779.3364                   21866785.8634
 11  7 26  3 14  0.0000000  0  9G12G05G25G29G04G26G02G17G10
 109463905.785 8  85296760.901 7  20830314.359
 107177892.236 7  83515335.902 8  20395242.070
 115481474.641 8  89985643.701 7  21975388.352
 124962809.745 6  97373691.212 6  23779634.859
 125092007.04746  97474458.77443  23804200.3594                   23804207.3164
 133589461.22545 104095729.49942  25421233.5474                   25421242.4064
 110314962.07748  85959793.62246  20992202.3204                   20992207.2384
 131744447.72015 102658078.53516  25070097.156
 114985963.87747  89599531.34645  21881065.7584                   21881072.5164
 11  7 26  3 14 30.0000000  0  9G12G05G25G29G04G26G02G17G10
 109485634.429 8  85313692.310 7  20834449.117
 107151269.000 7  83494590.563 8  20390175.469
 115434984.685 8  89949417.809 7  21966541.836
 124879830.800 6  97309032.338 6  23763843.969
 125174505.14647  97538742.99243  23819897.5234                   23819906.6454
 133500036.67855 104026048.12052  25404216.2424                   25404226.0204
 110345114.36448  85983288.93446  20997940.1884                   20997944.2504
 131825404.073 5 102721161.462 5  25085503.203
 115061477.01447  89658372.74945  21895435.8204                   21895441.8244
 11  7 26  3 15  0.0000000  0  9G12G05G25G29G04G26G02G17G10
 109507935.295 8  85331069.618 7  20838693.031
 107125217.757 8  83474290.902 8  20385218.422
 115389022.629 8  89913603.273 7  21957794.977
 124796826.887 6  97244354.053 6  23748048.359
 125256970.64747  97603001.79943  23835591.2584                   23835599.1684
 133410400.03055 103956201.46152  25387159.7274                   25387169.0314
 110375416.21848  86006900.78946  21003706.1174                   21003711.0704
 131906524.719 5 102784372.399 4  25100940.711
 115137423.18747  89717551.57945  21909887.5474                   21909894.3754
 11  7 26  3 15 30.0000000  0  9G12G05G25G29G04G26G02G17G10
 109530807.778 8  85348892.344 7  20843045.250
 107099738.965 8  83454437.336 8  20380369.539
 115343590.041 8  89878201.281 7  21949149.328
 124713798.921 6  97179656.981 5  23732249.133
 125339403.03246  97667234.83343  23851278.7034                   23851285.0004
 133320553.74145 103886191.50542  25370061.1094                   25370071.4534
 110405866.95148  86030628.66846  21009500.9384                   21009506.0124
 131987809.173 5 102847710.923 5  25116408.438
 115213799.95447  89777065.95145  21924421.8364                   21924428.0704
 11  7 26  3 16  0.0000000  0  9G12G05G25G29G04G26G02G17G10
 109554251.032 8  85367159.818 7  20847506.625
 107074833.263 8  83435030.329 8  20375630.352
 115298688.576 8  89843213.140 7  21940604.844
 124630748.185 7  97114942.150 6  23716445.563
 125421801.42547  97731441.39443  23866957.2114                   23866965.2664
 133230500.44255 103816020.27552  25352923.6564                   25352935.0354
 110436465.80748  86054471.95846  21015323.8134                   21015327.9844
 132069256.665 5 102911176.480 4  25131907.430
 115290604.33147  89836913.52345  21939037.1804                   21939043.2424
 11  7 26  3 16 30.0000000  0  9G12G05G25G29G04G26G02G17G10
 109578264.189 8  85385871.375 7  20852075.969
 107050500.750 8  83416069.962 8  20370999.531
 115254319.750 8  89808640.047 7  21932162.125
 124547675.785 7  97050210.428 5  23700637.297
 125504165.30846  97795621.06643  23882630.9844                   23882638.3204
 133140242.61756 103745689.64552  25335749.3284                   25335759.2774
 110467211.76748  86078429.88946  21021174.1334                   21021178.9654
 132150866.991 5 102974768.924 5  25147436.148
 115367833.80847  89897092.35245  21953733.3594                   21953740.1254
 11  7 26  3 17  0.0000000  0  9G12G05G25G29G04G26G02G17G10
 109602846.328 8  85405026.286 7  20856754.266
 107026742.671 8  83397557.203 8  20366479.234
 115210485.181 8  89774483.293 7  21923820.313
 124464582.700 7  96985462.609 6  23684825.828
 125586494.34746  97859773.62043  23898297.5394                   23898305.0704
 133049782.60546 103675201.47942  25318535.4844                   25318544.7704
 110498104.20148  86102501.95646  21027053.0314                   21027057.9774
 132232639.784 5 103038488.010 4  25162998.141
 115445485.51847  89957600.18445  21968509.7034                   21968516.7034
 11  7 26  3 17 30.0000000  0  9G12G05G25G29G04G26G02G17G10
 109627996.295 8  85424623.685 7  20861539.375
 107003558.966 8  83379492.000 8  20362067.219
 115167186.359 8  89740743.964 7  21915580.758
 124381469.994 7  96920699.542 6  23669008.602
 125668787.86446  97923898.42543  23913958.0784                   23913964.1764
 132959123.17345 103604558.05542  25301283.3204                   25301293.9104
 110529142.45648  86126687.64946  21032959.4844                   21032964.2154
 132314574.517 5 103102333.256 5  25178591.320
 115523556.86647  90018435.03445  21983365.9384                   21983373.3164
 11  7 26  3 18  0.0000000  0  9G12G05G25G29G04G26G02G17G10
 109653713.144 8  85444662.813 7  20866433.000
 106980949.884 8  83361874.561 8  20357764.828
 115124424.632 8  89707423.164 7  21907443.852
 124298338.768 7  96855922.064 6  23653189.375
 125751045.01046  97987994.94843  23929610.5554                   23929616.9224
 132868266.67446 103533760.97942  25283993.9844                   25284004.3524
 110560325.42848  86150986.10746  21038893.2424                   21038897.8244
 132396670.319 5 103166304.005 5  25194213.359
 115602045.18047  90079594.76645  21998301.6804                   21998308.8714
 11  7 26  3 18 30.0000000  0  9G12G05G25G29G04G26G02G17G10
 109679996.090 8  85465143.030 7  20871434.234
 106958915.713 8  83344705.102 8  20353571.516
 115082201.465 8  89674522.032 7  21899409.008
 124215189.850 6  96791130.823 6  23637366.227
 125833265.37847  98052062.73843  23945256.2894                   23945263.9344
 132777215.72246 103462812.42342  25266667.3914                   25266677.4384
 110591652.49048  86175396.84446  21044854.4304                   21044858.9304
                                  25209866.523
 115680947.50647  90141077.12344  22013316.4064                   22013323.2974
 11  7 26  3 19  0.0000000  0  9G12G05G25G29G04G26G02G17G10
 109706844.030 8  85486063.508 7  20876543.734
 106937457.012 8  83327984.073 8  20349488.234
 115040518.380 8  89642041.718 7  21891476.586
 124132024.720 6  96726326.938 6  23621540.727
 125915448.31146  98116101.34743  23960895.7424                   23960903.2814
 132685972.67646 103391714.02942  25249304.1174                   25249313.5904
 110623122.70148  86199919.12446  21050843.1644                   21050847.9884
 132561343.96615 103294621.11715  25225549.242
 115760261.15647  90202879.97444  22028409.8834                   22028415.9844
 11  7 26  3 19 30.0000000  0  9G12G05G25G29G04G26G02G17G10
 109734255.664 8  85507423.256 7  20881760.352
 106916574.307 8  83311711.877 8  20345514.516
 114999376.938 7  89609983.457 7  21883647.125
 124048844.534 7  96661511.269 6  23605712.188
 125997593.29846  98180110.45743  23976527.0474                   23976534.1454
 132594540.44546 103320468.19143  25231905.2584                   25231914.0434
 110654735.57448  86224552.55746  21056858.6804                   21056863.1094
 132643920.865 5 103358966.712 3  25241263.031
 115839983.54347  90265001.34245  22043580.4924                   22043586.9494
 11  7 26  3 20  0.0000000  0  9G12G05G25G29G04G26G02G17G10
 109762230.233 8  85529221.614 7  20887083.695
 106896267.663 8  83295888.539 8  20341650.445
 114958778.437 8  89578348.309 7  21875921.813
 123965650.233 7  96596684.654 6  23589880.977
 126079699.94246  98244089.69743  23992151.8364                   23992159.3554
 132502921.19946 103249076.58542  25214470.2114                   25214480.5394
 110686490.22248  86249296.45546  21062901.5554                   21062906.2304
 132726657.079 5 103423436.377 4  25257008.078
 115920111.76947  90327438.92345  22058828.0554                   22058834.9654
 11  7 26  3 20 30.0000000  0  9G12G05G25G29G04G26G02G17G10
 109790766.459 8  85551457.640 7  20892513.516
 106876537.163 8  83280514.147 8  20337895.523
 114918724.198 8  89547137.221 7  21868299.867
 123882442.956 7  96531847.908 6  23574046.969
 126161767.42046  98308038.39543  24007768.1094                   24007776.4804
 132411118.06845 103177541.69842  25197002.1094                   25197011.2704
 110718385.82648  86274150.20246  21068971.0944                   21068975.2704
                                  25272779.625
 116000642.62847  90390190.26745  22074152.5004                   22074159.1254
 11  7 26  3 21  0.0000000  0  8G12G05G25G29G04G26G02G10
 109819863.885 7  85574130.955 7  20898050.883
 106857384.187 8  83265589.773 8  20334251.008
 114879216.191 8  89516351.742 7  21860782.180
 123799224.368 7  96467002.342 6  23558211.203
 126243795.93846  98371956.72643  24023378.6174                   24023386.3404
 132319133.87445 103105865.86742  25179496.6174                   25179507.1024
 110750422.05847  86299113.52546  21075067.4144                   21075072.2664
 116081574.02947  90453253.71945  22089552.9774                   22089560.1414
 11  7 26  3 21 30.0000000  0  8G12G05G25G29G04G26G02G10
 109849521.193 8  85597240.582 7  20903694.328
 106838808.230 8  83251115.023 8  20330716.328
 114840255.273 8  89485992.605 7  21853367.836
 123715995.326 6  96402148.639 6  23542372.383
 126325784.35547  98435843.78143  24038979.4454                   24038987.3134
 132226970.76946 103034050.49142  25161958.7424                   25161967.6804
 110782597.85748  86324185.58146  21081189.8284                   21081194.8054
 116162902.63947  90516626.67145  22105029.2504                   22105036.6414
 11  7 26  3 22  0.0000000  0  8G12G05G25G29G04G26G02G10
 109879736.508 8  85620785.002 7  20909444.250
 106820809.034 8  83237089.703 8  20327290.969
 114801842.543 7  89456060.611 7  21846058.180
 123632756.535 6  96337287.339 6  23526532.141
 126407732.07247  98499699.17443  24054574.7114                   24054581.5634
 132134631.55346 102962097.92442  25144387.0864                   25144396.5744
 110814912.36548  86349365.73746  21087339.3364                   21087343.7894
 116244625.70847  90580306.98545  22120581.6094                   22120588.2194
 11  7 26  3 22 30.0000000  0  8G12G05G25G29G04G26G02G10
 109910508.679 8  85644763.311 7  20915299.672
 106803386.855 8  83223514.012 8  20323975.320
 114763979.346 8  89426556.814 7  21838852.977
 123549509.104 7  96272419.276 6  23510690.672
 126489638.34246  98563522.25343  24070159.9224                   24070167.7704
 132042118.69345 102890010.03642  25126782.2584                   25126792.5044
 110847364.68048  86374653.26946  21093514.9144                   21093519.1684
 116326740.27947  90644292.39345  22136206.8524                   22136214.0824
 11  7 26  3 23  0.0000000  0  8G12G05G25G29G04G26G02G10
 109941836.790 7  85669174.823 7  20921261.656
 106786542.120 8  83210388.275 8  20320770.531
 114726667.184 7  89397482.433 7  21831752.578
 123466254.770 7  96207545.847 6  23494848.633
 126571503.11046  98627312.98543  24085738.9304                   24085745.6214
 131949435.04145 102817789.12642  25109144.2504                   25109156.0004
 110879954.61348  86400048.04046  21099716.4304                   21099721.3244
 116409243.79547  90708580.86745  22151906.6254                   22151914.0084
 11  7 26  3 23 30.0000000  0  8G12G05G25G29G04G26G02G10
 109973719.847 8  85694018.796 7  20927328.500
 106770274.846 8  83197712.499 8  20317674.570
 114689907.329 8  89368838.372 7  21824757.539
 123382994.246 7  96142667.644 6  23479004.203
 126653325.84546  98691070.95643  24101308.7194                   24101316.1134
 131856583.47646 102745437.34142  25091475.4384                   25091486.1214
 110912681.03348  86425549.15446  21105944.1804                   21105949.1254
 116492133.42747  90773170.19444  22167680.3914                   22167686.9804
 11  7 26  3 24  0.0000000  0  8G12G05G25G29G04G26G02G10
 110006155.810 8  85719293.573 7  20933500.734
 106754585.059 8  83185486.700 8  20314688.773
 114653700.705 8  89340625.492 7  21817867.891
 123299729.073 6  96077785.764 6  23463160.000
 126735105.71346  98754795.52443  24116870.7504                   24116879.0784
 131763566.44946 102672956.67742  25073775.8204                   25073785.5824
 110945543.08148  86451155.95746  21112197.5784                   21112202.0394
 116575406.20247  90838058.07245  22183526.5004                   22183533.3984
 11  7 26  3 24 30.0000000  0  8G12G05G25G29G04G26G02G10
 110039143.870 8  85744998.564 7  20939778.695
 106739472.820 8  83173710.955 8  20311812.891
 114618048.630 8  89312844.705 7  21811083.281
 123216460.510 7  96012901.205 6  23447314.094
 126816842.40746  98818486.45243  24132425.7584                   24132432.0314
 131670386.33945 102600348.93142  25056042.6564                   25056053.3164
 110978540.29948  86476868.09446  21118476.7664                   21118481.1804
 116659059.40147  90903242.40344  22199445.1174                   22199451.6604
 11  7 26  3 25  0.0000000  0  8G12G05G25G29G04G26G02G10
 110072682.799 8  85771132.769 7  20946160.383
 106724938.847 8  83162385.807 8  20309047.234
 114582952.559 8  89285497.125 7  21804404.695
 123133189.635 6  95948014.951 6  23431468.688
 126898535.67246  98882143.56443  24147970.9144                   24147978.4344
 131577046.34346 102527616.62542  25038281.7034                   25038291.4224
 111011671.94448  86502684.96946  21124781.3594                   21124785.6604
 116743090.10847  90968720.86744  22215435.5394                   22215442.2464
 11  7 26  3 25 30.0000000  0  8G12G05G25G29G04G26G02G10
 110106771.179 7  85797695.179 7  20952647.063
 106710982.278 8  83151510.607 8  20306391.844
 114548413.426 7  89258583.601 7  21797831.859
 123049917.697 6  95883127.791 6  23415621.867
 126980184.87446  98945766.33243  24163508.0234                   24163515.7774
 131483549.06546 102454761.64243  25020489.9064                   25020499.1054
 111044937.38648  86528606.10946  21131111.7344                   21131116.0084
 116827495.58647  91034491.38644  22231497.5784                   22231504.0434
 11  7 26  3 26  0.0000000  0  8G12G05G25G29G04G26G02G10
 110141407.614 8  85824684.591 7  20959238.352
 106697603.397 8  83141085.527 8  20303845.531
 114514432.462 8  89232104.983 7  21791365.648
 122966645.833 6  95818240.792 6  23399776.117
 127061789.63746  99009354.42043  24179036.6024                   24179044.1334
 131389897.13046 102381786.20142  25002668.1954                   25002678.7384
 111078336.00848  86554631.02846  21137466.9844                   21137471.7774
 116912272.88547  91100551.64644  22247630.1644                   22247636.8134
 11  7 26  3 26 30.0000000  0  8G12G05G25G29G04G26G02G10
 110176590.672 8  85852099.948 7  20965933.750
 106684802.342 8  83131110.705 8  20301409.492
 114481010.713 8  89206062.127 7  21785006.039
 122883375.594 6  95753354.971 6  23383930.227
 127143349.39046  99072907.45843  24194556.9064                   24194564.7114
 131296093.45546 102308692.38142  24984818.5084                   24984827.8874
 111111866.83548  86580758.97046  21143847.5314                   21143852.1024
 116997419.18547  91166899.42944  22263832.5704                   22263839.6644
 11  7 26  3 27  0.0000000  0  8G12G05G25G29G04G26G02G10
 110212319.110 7  85879940.307 7  20972732.586
 106672579.184 8  83121586.195 8  20299083.758
 114448149.488 7  89180455.995 7  21778752.344
 122800108.021 6  95688471.258 6  23368084.156
 127224864.01246  99136425.23643  24210069.5554                   24210076.3204
 131202140.91246 102235482.66543  24966940.0944                   24966948.3634
 111145529.65548  86606989.73746  21150253.8444                   21150257.8404
 117082931.70947  91233532.58644  22280105.1334                   22280112.6884
 11  7 26  3 27 30.0000000  0  8G12G05G25G29G04G26G02G10
 110248591.609 7  85908204.591 7  20979634.852
 106660933.846 8  83112511.924 8  20296867.539
 114415849.746 8  89155287.425 7  21772605.531
 122716844.554 6  95623590.724 6  23352240.094
 127306332.75146  99199907.42843  24225572.2584                   24225579.6334
 131108042.17346 102162159.04942  24949033.2734                   24949042.6334
 111179323.81347  86633322.85546  21156684.3674                   21156689.2234
 117168807.63347  91300448.89744  22296447.1174                   22296453.7584
 11  7 26  3 28  0.0000000  0  8G12G05G25G29G04G26G02G10
 110285406.589 8  85936891.584 7  20986640.703
 106649865.692 8  83103887.417 8  20294761.391
 114384112.356 8  89130557.040 7  21766566.258
 122633586.205 6  95558714.106 6  23336394.922
 127387755.43746  99263353.72943  24241065.9224                   24241074.6414
 131013799.86646 102088723.58643  24931099.0084                   24931108.7424
 111213248.11248  86659757.40346  21163140.0164                   21163144.8324
 117255043.84347  91367645.95945  22312857.2734                   22312864.2814
 11  7 26  3 28 30.0000000  0  8G12G05G25G29G04G26G02G10
 110322762.390 8  85966000.012 7  20993748.648
 106639375.017 8  83095712.903 8  20292765.016
 114352938.501 8  89106265.750 7  21760634.391
 122550334.544 7  95493842.781 6  23320554.484
 127469131.37146  99326763.58843  24256553.0394                   24256559.1804
 130919417.07446 102015178.65942  24913138.7584                   24913148.6994
 111247302.26748  86686293.12646  21169620.2034                   21169624.7274
 117341637.74847  91435121.73445  22329335.5394                   22329342.1414
 11  7 26  3 29  0.0000000  0  8G12G05G25G29G04G26G02G10
 110360657.568 8  85995528.717 7  21000959.906
 106629461.667 8  83087988.245 8  20290878.688
 114322329.269 8  89082414.427 7  21754809.445
 122467090.765 6  95428977.596 6  23304712.938
 127550460.27246  99390136.73843  24272028.0864                   24272034.9414
 130824896.66146 101941526.41942  24895152.8444                   24895161.1484
 111281485.89248  86712929.73446  21176125.2734                   21176129.5864
 117428586.69747  91502874.16344  22345881.2584                   22345888.1884
 11  7 26  3 29 30.0000000  0  8G12G05G25G29G04G26G02G10
 110399090.950 8  86025476.813 7  21008273.711
 106620125.225 8  83080713.117 8  20289101.672
 114292285.421 8  89059003.678 7  21749092.180
 122383856.046 7  95364119.422 6  23288874.148
 127631741.70846  99453472.93343  24287495.9774                   24287503.0824
 130730241.28046 101867769.08042  24877139.3364                   24877148.5234
 111315797.66248  86739666.20046  21182654.4924                   21182658.8714
 117515887.36347  91570900.67344  22362493.9304                   22362501.0044
 11  7 26  3 30  0.0000000  0  8G12G05G25G29G04G26G02G10
 110438060.353 8  86055842.598 7  21015689.555
 106611365.694 8  83073887.529 8  20287434.727
 114262808.100 8  89036034.333 7  21743482.828
 122300632.066 6  95299269.633 6  23273036.758
 127712975.54246  99516771.96643  24302953.9144                   24302960.9144
 130635453.68846 101793908.75642  24859102.3284                   24859111.5864
 111350237.41648  86766502.38746  21189208.1174                   21189212.7774
 117603536.98847  91639199.08944  22379172.5634                   22379179.8554
 11  7 26  3 30 30.0000000  0  8G12G05G25G29G04G26G02G10
 110477564.501 8  86086625.047 7  21023207.453
 106603182.527 8  83067511.067 8  20285877.711
 114233898.119 8  89013507.120 7  21737981.922
 122217419.818 7  95234429.006 6  23257202.992
 127794161.05346  99580033.44243  24318402.9844                   24318410.6094
 130540536.94246 101719947.76643  24841040.2274                   24841049.0664
 111384804.32348  86793437.63546  21195785.7504                   21195790.7074
 117691532.83647  91707767.27844  22395918.5394                   22395925.0004
 11  7 26  3 31  0.0000000  0  8G12G05G25G29G04G26G02G10
 110517602.159 8  86117823.217 7  21030826.406
 106595575.810 8  83061583.774 8  20284430.219
 114205556.443 8  88991422.672 7  21732588.039
 122134220.874 6  95169598.693 6  23241369.836
 127875298.08047  99643257.11943  24333843.0864                   24333850.1604
 130445493.63146 101645888.07442  24822954.6804                   24822962.3834
 111419497.85847  86820471.58846  21202387.7504                   21202392.2734
 117779871.78947  91776602.82944  22412728.3984                   22412735.1254
 11  7 26  3 31 30.0000000  0  8G12G05G25G29G04G26G02G10
 110558171.596 8  86149435.790 7  21038546.313
 106588545.522 8  83056105.653 8  20283092.508
 114177784.099 8  88969781.896 7  21727303.758
 122051036.689 6  95104779.965 6  23225540.461
 127956386.22546  99706442.68243  24349272.9224                   24349280.2034
 130350327.02246 101571732.44442  24804844.6644                   24804853.2034
 111454317.71948  86847603.96046  21209013.6644                   21209018.5634
 117868551.35047  91845703.80244  22429603.8284                   22429610.7114
 11  7 26  3 32  0.0000000  0  8G12G05G25G29G04G26G02G10
 110599270.997 8  86181461.304 7  21046367.211
 106582091.250 8  83051076.379 8  20281864.281
 114150581.974 8  88948585.399 7  21722127.328
 121967868.276 6  95039973.534 6  23209713.164
 128037425.46546  99769590.11743  24364694.9304                   24364702.0704
 130255039.91545 101497482.81942  24786710.6024                   24786720.1684
 111489262.96948  86874834.06046  21215663.2274                   21215668.0474
 117957568.26047  91915067.63845  22446542.7034                   22446549.4384
 11  7 26  3 32 30.0000000  0  8G12G05G25G29G04G26G02G10
 110640898.725 8  86213898.503 7  21054288.227
 106576212.022 8  83046495.180 8  20280745.438
 114123950.578 8  88927833.681 7  21717059.047
 121884717.365 6  94975180.684 7  23193890.953
 128118414.85446  99832698.69343  24380106.4064                   24380113.1764
 130159634.94845 101423141.46942  24768555.6024                   24768565.0124
 111524332.99547  86902161.35846  21222337.2504                   21222341.7544
 118046919.74047  91984692.17344  22463545.8984                   22463552.6294
 11  7 26  3 33  0.0000000  0  8G12G05G25G29G04G26G02G10
 110683053.017 8  86246746.014 7  21062310.570
 106570907.986 8  83042362.186 8  20279735.867
 114097890.958 8  88907527.482 7  21712100.117
 121801585.236 6  94910402.523 6  23178070.438
 128199354.35246  99895768.37643  24395508.1334                   24395515.7544
 130064115.33946 101348710.74242  24750379.5944                   24750388.3244
 111559527.23048  86929585.46246  21229034.3204                   21229039.3014
 118136602.93147  92054575.17744  22480612.8674                   22480618.4844
 11  7 26  3 33 30.0000000  0  8G12G05G25G29G04G26G02G10
 110725732.281 8  86280002.578 7  21070431.922
 106566178.711 8  83038677.063 8  20278835.859
 114072403.919 8  88887667.450 7  21707250.523
 121718473.128 6  94845639.960 6  23162254.789
 128280243.60046  99958798.96543  24410901.2274                   24410909.3754
 129968483.79245 101274192.83142  24732180.4144                   24732189.9844
 111594845.13748  86957105.92646  21235755.2814                   21235760.3954
 118226615.03247  92124714.50744  22497740.6644                   22497747.6374
 11  7 26  3 34  0.0000000  0  8G12G05G25G29G04G26G02G10
 110768935.060 7  86313667.100 7  21078652.438
 106562023.910 8  83035439.580 8  20278045.367
 114047490.410 8  88868254.357 7  21702509.242
 121635382.464 6  94780894.039 6  23146443.141
 128361082.33046 100021790.16743  24426283.4064                   24426291.6994
 129872743.45346 101199590.13242  24713961.9144                   24713970.7854
 111630286.17548  86984722.32546  21242498.9534                   21242503.6254
 118316953.44547  92195108.07044  22514931.6024                   22514938.5474
 11  7 26  3 34 30.0000000  0  8G12G05G25G29G04G26G02G10
 110812659.405 8  86347738.005 7  21086973.531
 106558443.270 8  83032649.481 8  20277363.836
 114023150.944 8  88849288.554 7  21697877.633
 121552314.943 7  94716166.117 6  23130636.227
 128441870.27746 100084741.75943  24441657.9844                   24441665.6094
 129776897.27346 101124904.92143  24695724.2114                   24695731.9734
 111665849.96148  87012434.36646  21249267.3364                   21249271.6684
 118407614.87547  92265753.36344  22532184.1254                   22532190.8554
 11  7 26  3 35  0.0000000  0  8G12G05G25G29G04G26G02G10
 110856903.470 8  86382213.882 7  21095393.141
 106555436.242 8  83030306.346 8  20276791.820
 113999386.300 8  88830770.691 7  21693355.516
 121469272.020 7  94651457.454 6  23114833.953
 128522607.01346 100147653.48743  24457020.9144                   24457028.9884
 129680948.02546 101050139.37743  24677465.0864                   24677473.4654
 111701535.88348  87040241.62246  21256057.7424                   21256062.7464
 118498596.71747  92336648.33244  22549497.8914                   22549504.1024
 11  7 26  3 35 30.0000000  0  8G12G05G25G29G04G26G02G10
 110901665.387 8  86417093.322 7  21103910.695
 106553002.089 8  83028409.623 8  20276328.633
 113976197.008 8  88812701.134 7  21688942.445
 121386254.728 7  94586768.718 6  23099036.234
 128603292.26646 100210525.07042  24472375.6804                   24472382.9774
 129584898.66746 100975295.88743  24659187.2114                   24659195.8714
 111737343.18748  87068143.42746  21262872.0004                   21262876.2774
 118589895.86547  92407790.52944  22566870.9224                   22566877.4184
 11  7 26  3 36  0.0000000  0  8G12G05G25G29G04G26G02G10
 110946943.498 8  86452374.967 7  21112526.852
 106551140.253 8  83026958.846 8  20275974.227
 113953583.648 8  88795080.348 7  21684639.547
 121303264.418 7  94522101.008 6  23083243.281
 128683925.56646 100273356.23042  24487718.7424                   24487726.5124
 129488752.05246 100900376.55543  24640890.5004                   24640900.2464
 111773270.98748  87096139.11946  21269708.5084                   21269713.2114
 118681509.30647  92479177.64144  22584304.5234                   22584310.8164
 11  7 26  3 36 30.0000000  0  8G12G05G25G29G04G26G02G10
 110992735.835 8  86488057.313 7  21121241.211
 106549850.439 8  83025953.812 8  20275728.633
 113931547.048 8  88777908.999 7  21680445.875
 121220303.104 7  94457455.888 6  23067457.109
 128764506.76246 100336146.73343  24503053.0944                   24503061.1414
 129392511.36046 100825383.92843  24622576.9694                   24622585.6414
 111809319.20547  87124228.63746  21276568.4224                   21276572.8554
 118773433.94147  92550807.25544  22601797.1484                   22601803.6054
 11  7 26  3 37  0.0000000  0  8G12G05G25G29G04G26G02G10
 111039040.992 8  86524139.258 7  21130052.406
 106549132.104 8  83025394.091 8  20275592.461
 113910087.821 8  88761187.547 7  21676362.695
 121137371.941 7  94392834.300 6  23051674.852
 128845035.58246 100398896.41743  24518377.5864                   24518385.3834
 129296179.65446 100750320.42143  24604244.9454                   24604254.0354
 111845487.36048  87152411.61846  21283450.7974                   21283455.4414
 118865667.23647  92622677.37944  22619348.5234                   22619355.1414
 11  7 26  3 37 30.0000000  0  8G12G05G25G29G04G26G02G10
 111085856.598 8  86560618.962 7  21138960.953
 106548984.783 8  83025279.300 8  20275564.234
 113889206.611 8  88744916.485 7  21672388.719
 121054472.467 7  94328237.369 6  23035899.938
 128925511.90946 100461605.29143  24533691.3914                   24533699.8874
 129199759.77446 100675188.16543  24585896.6484                   24585905.8834
 111881774.47248  87180687.30146  21290356.4144                   21290360.1254
 118958206.24047  92694785.68544  22636958.0084                   22636965.3754
 11  7 26  3 38  0.0000000  0  8G12G05G25G29G04G26G02G10
 111133181.084 8  86597495.167 7  21147966.563
 106549407.939 8  83025609.047 8  20275644.547
 113868903.982 8  88729096.300 7  21668525.328
 120971606.291 7  94263666.418 6  23020130.719
 129005935.41346 100524273.02042  24548995.8204                   24549003.6564
 129103254.93447 100599989.72043  24567532.9614                   24567541.6484
 111918180.53248  87209055.67446  21297283.4774                   21297288.0354
 119051048.06347  92767130.00344  22654625.1564                   22654632.6684
 11  7 26  3 38 30.0000000  0  8G12G05G25G29G04G26G02G10
 111181012.497 8  86634766.397 7  21157068.586
 106550400.792 8  83026382.706 8  20275833.570
 113849180.382 8  88713727.266 7  21664771.680
 120888774.900 7  94199122.543 6  23004368.313
 129086305.74146 100586899.23843  24564289.3134                   24564297.1094
 129006668.22146 100524727.43443  24549152.6484                   24549161.6334
 111954704.94148  87237516.25146  21304233.9454                   21304238.7624
 119144189.72247  92839707.90844  22672350.0234                   22672356.5904
 11  7 26  3 39  0.0000000  0  8G12G05G25G29G04G26G02G10
 111229348.553 8  86672430.860 7  21166266.531
 106551962.736 8  83027599.818 8  20276130.469
 113830036.361 8  88698809.846 7  21661128.867
 120805979.587 7  94134606.799 6  22988613.242
 129166622.65946 100649483.78643  24579573.5554                   24579580.6724
 128910002.49946 100449403.61443  24530758.8444                   24530766.7584
 111991347.10148  87266068.57446  21311207.0784                   21311211.9264
 119237628.41147  92912517.29944  22690129.9844                   22690137.1804
 11  7 26  3 39 30.0000000  0  8G12G05G25G29G04G26G02G10
 111278187.954 8  86710487.532 7  21175560.586
 106554093.195 8  83029259.935 8  20276536.000
 113811472.495 8  88684344.495 7  21657596.219
 120723222.004 7  94070120.458 6  22972864.406
 129246886.08046 100712026.75143  24594846.4774                   24594854.7774
 128813260.81746 100374020.66543  24512348.4224                   24512358.1214
 112028106.69548  87294712.42246  21318202.1254                   21318206.6374
 119331361.37847  92985555.99344  22707966.7814                   22707973.3364
 11  7 26  3 40  0.0000000  0  8G12G05G25G29G04G26G02G10
 111327528.364 8  86748934.604 7  21184950.133
 106556791.272 8  83031362.347 8  20277049.352
 113793489.128 8  88670331.518 7  21654174.133
 120640503.351 7  94005664.485 7  22957123.844
 129327095.47846 100774527.55243  24610110.8914                   24610118.3284
 128716446.45946 100298580.97142  24493925.2584                   24493934.8984
 112064982.74548  87323447.03046  21325219.5944                   21325224.0554
 119425385.67647  93058821.72444  22725858.9694                   22725865.6134
 11  7 26  3 40 30.0000000  0  8G12G05G25G29G04G26G02G10
 111377367.809 8  86787770.544 7  21194433.570
 106560056.386 8  83033906.601 8  20277670.750
 113776086.688 8  88656771.172 7  21650862.625
 120557825.661 7  93941240.372 7  22941390.375
 129407250.85146 100836986.30442  24625363.1334                   24625371.0704
 128619562.26246 100223086.85442  24475488.5784                   24475497.5984
 112101975.22048  87352272.34246  21332258.9534                   21332263.6254
 119519698.09347  93132311.91244  22743805.9844                   22743813.3874
 11  7 26  3 41  0.0000000  0  8G12G05G25G29G04G26G02G10
 111427704.187 8  86826993.681 7  21204012.453
 106563887.538 8  83036891.934 8  20278399.594
 113759265.587 8  88643663.818 7  21647661.672
 120475190.183 7  93876849.155 6  22925665.273
 129487351.86346 100899402.70942  24640605.6414                   24640614.2114
 128522611.48246 100147540.89542  24457039.1094                   24457047.7544
 112139083.59148  87381187.96046  21339320.4774                   21339324.5084
 119614296.08547  93206024.62544  22761807.7584                   22761814.5704
 11  7 26  3 41 30.0000000  0  8G12G05G25G29G04G26G02G10
 111478535.763 8  86866602.685 7  21213685.516
 106568284.474 8  83040318.128 8  20279236.672
 113743026.321 8  88631009.859 7  21644571.563
 120392598.471 7  93812491.997 6  22909948.602
 129567398.51046 100961776.67342  24655838.3914                   24655846.4964
 128425597.15846 100071945.37542  24438578.3524                   24438586.8324
 112176307.34448  87410193.48746  21346403.7194                   21346408.4924
 119709176.88647  93279957.75744  22779862.9924                   22779870.0234
 11  7 26  3 42  0.0000000  0  8G12G05G25G29G04G26G02G10
 111529860.376 8  86906595.892 7  21223452.141
 106573246.524 8  83044184.679 8  20280180.703
 113727369.371 8  88618809.642 7  21641592.109
 120310052.446 6  93748170.475 6  22894240.141
 129647390.43446 101024108.05342  24671060.2114                   24671067.8444
 128328522.65145  99996303.02642  24420103.9534                   24420114.1094
 112213645.93648  87439288.51646  21353509.2114                   21353514.2854
 119804337.62247  93354109.03144  22797970.3984                   22797977.8834
 11  7 26  3 42 30.0000000  0  8G12G05G25G29G04G26G02G10
 111581675.746 8  86946971.490 7  21233312.461
 106578772.043 8  83048490.291 8  20281232.289
 113712294.569 8  88607063.041 7  21638723.406
 120227553.255 6  93683885.401 6  22878541.664
 129727327.23946 101086396.49543  24686272.1024                   24686278.9654
 128231390.57946  99920615.80143  24401621.9064                   24401629.6914
 112251098.63748  87468472.45146  21360636.2194                   21360640.6764
 119899774.85947  93428475.72844  22816131.9614                   22816139.7734
 11  7 26  3 43  0.0000000  0  8G12G05G25G29G04G26G02G10
 111633980.415 8  86987728.380 7  21243265.258
 106584860.866 8  83053234.862 8  20282391.117
 113697802.714 8  88595770.703 7  21635965.852
 120145102.529 7  93619638.150 6  22862851.555
 129807209.08746 101148642.09443  24701472.8444                   24701481.1484
 128134204.36146  99844886.41842  24383127.0704                   24383135.8984
 112288665.43348  87497745.27246  21367784.5394                   21367789.0664
 119995486.37647  93503056.12744  22834345.2584                   22834352.5314
 11  7 26  3 43 30.0000000  0  8G12G05G25G29G04G26G02G10
 111686771.712 8  87028864.453 7  21253311.055
 106591512.003 8  83058417.581 8  20283656.789
 113683893.970 8  88584932.730 7  21633318.930
 120062702.093 7  93555430.090 6  22847171.133
 129887035.63246 101210844.63243  24716663.7344                   24716671.2774
 128036967.27246  99769117.33542  24364623.9534                   24364631.8444
 112326345.93448  87527106.72046  21374954.8204                   21374959.3014
 120091469.02346  93577847.80644  22852610.2734                   22852617.0314
 11  7 26  3 44  0.0000000  0  8G12G05G25G29G04G26G02G10
 111740047.387 8  87070377.968 7  21263449.555
 106598724.324 8  83064037.608 8  20285028.828
 113670568.319 8  88574549.130 7  21630782.992
 119980353.427 7  93491262.303 6  22831501.680
 129966806.68846 101273003.85342  24731843.2734                   24731850.8754
 127939682.11346  99693310.77743  24346111.7814                   24346119.2304
 112364139.07448  87556555.93346  21382146.8444                   21382151.6334
 120187719.50246  93652848.15144  22870926.3524                   22870933.1884
 11  7 26  3 44 30.0000000  0  8G12G05G25G29G04G26G02G10
 111793805.652 8  87112267.509 7  21273679.320
 106606497.310 8  83070094.488 8  20286508.289
 113657826.325 8  88564620.314 7  21628358.219
 119898058.227 7  93427136.162 6  22815841.383
 130046521.99046 101335119.66742  24747012.9384                   24747020.0124
 127842352.27846  99617469.46643  24327590.3444                   24327598.5164
 112402045.20948  87586093.19046  21389360.3054                   21389364.6294
 120284235.25146  93728055.20044  22889292.8524                   22889299.5314
 11  7 26  3 45  0.0000000  0  8G12G05G25G29G04G26G02G10
 111848043.970 8  87154531.131 7  21284000.250
 106614829.631 8  83076587.219 8  20288093.289
 113645668.008 8  88555146.298 7  21626044.813
 119815818.026 7  93363052.893 6  22800191.852
 130126181.52546 101397192.04242  24762170.3754                   24762178.7974
 127744980.81346  99541595.67543  24309060.8204                   24309069.4804
 112440063.61748  87615717.92746  21396594.2504                   21396599.3444
 120381013.32946  93803466.69244  22907709.1644                   22907716.3054
 11  7 26  3 45 30.0000000  0  8G12G05G25G29G04G26G02G10
 111902760.676 8  87197167.515 7  21294412.508
 106623720.510 8  83083515.197 8  20289785.477
 113634093.431 8  88546127.161 7  21623842.453
 119733634.342 7  93299013.671 6  22784552.500
 130205784.92246 101459220.71542  24777320.1024                   24777326.7974
 127647570.84846  99465691.91643  24290524.4924                   24290533.3094
 112478193.74047  87645429.71346  21403850.4844                   21403854.8134
 120478051.02246  93879080.50944  22926175.3284                   22926182.0234
 11  7 26  3 46  0.0000000  0  8G12G05G25G29G04G26G02G10
 111957953.458 8  87240174.903 7  21304915.383
 106633169.494 8  83090878.064 8  20291583.531
 113623103.066 8  88537563.239 7  21621751.109
 119651509.073 7  93235019.992 6  22768924.570
 130285332.39545 101521205.77042  24792455.8524                   24792464.4344
 127550125.90346  99389760.85043  24271981.2584                   24271989.1254
 112516435.27748  87675228.32246  21411128.0084                   21411132.0664
 120575345.42547  93954894.33644  22944689.5314                   22944696.8914
 11  7 26  3 46 30.0000000  0  8G12G05G25G29G04G26G02G10
 112013620.091 8  87283551.487 7  21315508.445
 106643175.263 8  83098674.786 8  20293487.563
 113612696.934 8  88529454.583 7  21619770.805
 119569443.673 7  93171072.991 6  22753307.523
 130364823.49046 101583146.87742  24807583.3284                   24807591.7974
 127452649.22946  99313805.09143  24253431.4774                   24253439.7584
 112554787.83848  87705113.45946  21418426.0164                   21418430.5784
 120672893.83047  94030906.08244  22963252.7194                   22963258.7274
 11  7 26  3 47  0.0000000  0  8G12G05G25G29G04G26G02G10
 112069758.650 8  87327295.808 7  21326191.680
 106653736.770 8  83106904.557 8  20295497.430
 113602875.180 8  88521801.262 7  21617901.602
 119487439.881 7  93107174.024 6  22737702.258
 130444258.12246 101645044.00042  24822700.3834                   24822707.5904
 127355143.67946  99237826.81143  24234876.9224                   24234884.8054
 112593250.89848  87735084.66646  21425745.3594                   21425750.1564
 120770693.19547  94107113.39544  22981862.7274                   22981868.7344
 11  7 26  3 47 30.0000000  0  8G12G05G25G29G04G26G02G10
 112126366.164 8  87371405.550 7  21336963.211
 106664852.831 8  83115566.430 8  20297612.500
 113593637.584 8  88514603.143 7  21616143.828
 119405499.458 7  93043324.418 7  22722109.766
 130523636.29946 101706897.12043  24837804.5864                   24837812.7384
 127257612.57646  99161828.62944  24216317.3054                   24216325.6884
 112631824.14547  87765141.74146  21433085.5944                   21433089.8794
 120868740.29447  94183513.76044  23000520.4774                   23000526.5554
 11  7 26  3 48  0.0000000  0  8G12G05G25G29G04G26G02G10
 112183440.720 7  87415879.249 7  21347824.250
 106676522.502 8  83124659.696 8  20299832.977
 113584984.450 8  88507860.457 7  21614497.031
 119323623.964 7  92979525.383 6  22706529.523
 130602957.81346 101768706.05443  24852899.0234                   24852907.3284
 127160059.23746  99085813.10243  24197753.5394                   24197762.2464
 112670507.43248  87795284.58146  21440446.8754                   21440450.8364
 120967032.86646  94260105.37843  23019224.3444                   23019231.0744
 11  7 26  3 48 30.0000000  0  8G12G05G25G29G04G26G02G10
 112240980.135 8  87460715.148 7  21358773.820
 106688744.869 8  83134183.634 8  20302159.086
 113576915.727 8  88501573.134 7  21612961.859
 119241815.228 7  92915778.360 6  22690961.688
 130682222.45746 101830470.67943  24867982.7034                   24867990.4654
 127062486.74746  99009782.66443  24179186.6414                   24179194.2544
 112709300.13448  87825512.64946  21447828.7974                   21447832.9734
 121065568.11246  94336886.08743  23037974.9454                   23037981.6524
 11  7 26  3 49  0.0000000  0  8G12G05G25G29G04G26G02G10
 112298981.803 8  87505911.252 7  21369811.234
 106701517.919 8  83144136.693 8  20304589.664
 113569431.060 8  88495740.951 7  21611537.070
 119160074.403 7  92852084.247 7  22675407.289
 130761429.85246 101892190.73342  24883054.3594                   24883063.1764
 126964898.35046  98933739.83043  24160615.5394                   24160623.8554
 112748201.28348  87855825.24146  21455231.3524                   21455236.7624
 121164342.49446  94413853.14844  23056771.3594                   23056778.2544
 11  7 26  3 49 30.0000000  0  8G12G05G25G29G04G26G02G10
 112357443.455 8  87551465.793 7  21380936.586
 106714841.290 8  83154518.554 8  20307125.328
 113562530.781 8  88490364.109 7  21610224.180
 119078403.679 7  92788444.806 7  22659865.203
 130840580.43545 101953866.47942  24898116.4454                   24898124.5664
 126867297.42046  98857687.22643  24142043.1484                   24142051.2034
 112787211.42748  87886222.76046  21462654.8754                   21462659.9844
 121263353.66947  94491004.70943  23075612.6884                   23075618.9144
 11  7 26  3 50  0.0000000  0  9G12G05G25G29G04G15G26G02G10
 112416363.285 8  87597377.328 7  21392147.680
 106728714.306 8  83165328.713 8  20309764.656
 113556214.936 8  88485442.676 7  21609022.367
 118996805.013 7  92724861.494 6  22644337.852
 130919673.80646 102015497.61142  24913167.8914                   24913176.0274
 131846609.26515                  25089581.734
 126769687.23346  98781627.41043  24123466.9924                   24123475.7934
 112826330.18548  87916704.90446  21470098.8134                   21470102.9454
 121362598.84046  94568338.63843  23094498.9384                   23094505.5704
 11  7 26  3 50 30.0000000  0  9G12G05G25G29G04G15G26G02G10
 112475739.008 8  87643644.131 7  21403446.688
 106743135.786 8  83176566.230 8  20312509.297
 113550483.493 8  88480976.617 7  21607932.188
 118915279.764 7  92661335.392 7  22628823.844
 130998710.42345 102077084.68042  24928206.4534                   24928215.9224
 131755154.99315                  25072181.086
 126672071.38446  98705563.23243  24104891.2504                   24104900.7584
 112865557.14547  87947271.37646  21477563.5704                   21477567.9844
 121462075.03046  94645852.56144  23113428.0164                   23113435.4494
 11  7 26  3 51  0.0000000  0  8G12G05G25G29G04G26G02G10
 112535567.866 8  87690264.010 7  21414832.211
 106758104.028 8  83188229.823 8  20315357.633
 113545336.184 8  88476965.745 7  21606952.445
 118833829.839 7  92597867.996 7  22613324.711
 131077689.68545 102138626.95242  24943238.2034                   24943245.6644
 126574452.79946  98629496.82743  24086315.9144                   24086324.3754
 112904891.61848  87977921.61446  21485048.7584                   21485053.5274
 121561779.40146  94723544.28644  23132401.4224                   23132408.2274
